<?xml version="1.0" encoding="UTF-8" standalone="no" ?>
<gpx xmlns="http://www.topografix.com/GPX/1/1" xmlns:xsi="http://www.w3.org/2001/XMLSchema-instance" xsi:schemaLocation="http://www.topografix.com/GPX/1/1 http://www.topografix.com/GPX/1/1/gpx.xsd" version="1.1" creator="VisuGPX - https://www.visugpx.com">
  <metadata>
    <name>Cherveux 9km</name>
    <desc><![CDATA[Départ & retour ici:
[url]https://goo.gl/maps/wuzeT4TApouWPVQ17[/url]]]></desc>
  </metadata>
  <wpt lat="46.4366" lon="-0.35991">
    <ele>81.1</ele>
  </wpt>
  <wpt lat="46.43698" lon="-0.35884">
    <ele>74</ele>
  </wpt>
  <wpt lat="46.43329" lon="-0.35114">
    <ele>68.4</ele>
  </wpt>
  <trk>
    <name><![CDATA[Cherveux 9km_1]]></name>
    <trkseg>
      <trkpt lat="46.41598" lon="-0.35081">
        <ele>93</ele>
        <time>2013-03-19T14:07:18Z</time>
      </trkpt>
      <trkpt lat="46.41598" lon="-0.35082">
        <ele>93</ele>
        <time>2013-03-19T14:07:43Z</time>
      </trkpt>
      <trkpt lat="46.41598" lon="-0.35081">
        <ele>93</ele>
        <time>2013-03-19T14:07:48Z</time>
      </trkpt>
      <trkpt lat="46.41596" lon="-0.3508">
        <ele>93</ele>
        <time>2013-03-19T14:07:53Z</time>
      </trkpt>
      <trkpt lat="46.41596" lon="-0.3508">
        <ele>93</ele>
        <time>2013-03-19T14:07:58Z</time>
      </trkpt>
      <trkpt lat="46.41596" lon="-0.3508">
        <ele>93</ele>
        <time>2013-03-19T14:08:03Z</time>
      </trkpt>
      <trkpt lat="46.41596" lon="-0.35081">
        <ele>93</ele>
        <time>2013-03-19T14:08:08Z</time>
      </trkpt>
      <trkpt lat="46.41596" lon="-0.35081">
        <ele>93</ele>
        <time>2013-03-19T14:08:13Z</time>
      </trkpt>
      <trkpt lat="46.41598" lon="-0.35086">
        <ele>93</ele>
        <time>2013-03-19T14:08:18Z</time>
      </trkpt>
      <trkpt lat="46.41598" lon="-0.35094">
        <ele>93</ele>
        <time>2013-03-19T14:08:23Z</time>
      </trkpt>
      <trkpt lat="46.41598" lon="-0.35099">
        <ele>93</ele>
        <time>2013-03-19T14:08:28Z</time>
      </trkpt>
      <trkpt lat="46.41597" lon="-0.35103">
        <ele>93</ele>
        <time>2013-03-19T14:08:33Z</time>
      </trkpt>
      <trkpt lat="46.41596" lon="-0.3511">
        <ele>93</ele>
        <time>2013-03-19T14:08:38Z</time>
      </trkpt>
      <trkpt lat="46.41596" lon="-0.35118">
        <ele>93</ele>
        <time>2013-03-19T14:08:43Z</time>
      </trkpt>
      <trkpt lat="46.41595" lon="-0.35125">
        <ele>93</ele>
        <time>2013-03-19T14:08:48Z</time>
      </trkpt>
      <trkpt lat="46.41598" lon="-0.35132">
        <ele>90</ele>
        <time>2013-03-19T14:08:53Z</time>
      </trkpt>
      <trkpt lat="46.41599" lon="-0.35138">
        <ele>90</ele>
        <time>2013-03-19T14:08:58Z</time>
      </trkpt>
      <trkpt lat="46.41601" lon="-0.35144">
        <ele>90</ele>
        <time>2013-03-19T14:09:03Z</time>
      </trkpt>
      <trkpt lat="46.41606" lon="-0.35148">
        <ele>90</ele>
        <time>2013-03-19T14:09:08Z</time>
      </trkpt>
      <trkpt lat="46.41609" lon="-0.3515">
        <ele>90</ele>
        <time>2013-03-19T14:09:13Z</time>
      </trkpt>
      <trkpt lat="46.41612" lon="-0.35155">
        <ele>90</ele>
        <time>2013-03-19T14:09:18Z</time>
      </trkpt>
      <trkpt lat="46.41615" lon="-0.35161">
        <ele>90</ele>
        <time>2013-03-19T14:09:23Z</time>
      </trkpt>
      <trkpt lat="46.41618" lon="-0.35165">
        <ele>90</ele>
        <time>2013-03-19T14:09:28Z</time>
      </trkpt>
      <trkpt lat="46.41621" lon="-0.35168">
        <ele>90</ele>
        <time>2013-03-19T14:09:33Z</time>
      </trkpt>
      <trkpt lat="46.41622" lon="-0.35172">
        <ele>90</ele>
        <time>2013-03-19T14:09:38Z</time>
      </trkpt>
      <trkpt lat="46.41625" lon="-0.35179">
        <ele>90</ele>
        <time>2013-03-19T14:09:43Z</time>
      </trkpt>
      <trkpt lat="46.41628" lon="-0.35184">
        <ele>92</ele>
        <time>2013-03-19T14:09:48Z</time>
      </trkpt>
      <trkpt lat="46.41631" lon="-0.35191">
        <ele>92</ele>
        <time>2013-03-19T14:09:53Z</time>
      </trkpt>
      <trkpt lat="46.41634" lon="-0.35199">
        <ele>92</ele>
        <time>2013-03-19T14:09:58Z</time>
      </trkpt>
      <trkpt lat="46.41635" lon="-0.35203">
        <ele>92</ele>
        <time>2013-03-19T14:10:03Z</time>
      </trkpt>
      <trkpt lat="46.4164" lon="-0.3521">
        <ele>90</ele>
        <time>2013-03-19T14:10:08Z</time>
      </trkpt>
      <trkpt lat="46.41645" lon="-0.35215">
        <ele>90</ele>
        <time>2013-03-19T14:10:13Z</time>
      </trkpt>
      <trkpt lat="46.41648" lon="-0.3522">
        <ele>90</ele>
        <time>2013-03-19T14:10:18Z</time>
      </trkpt>
      <trkpt lat="46.41652" lon="-0.35223">
        <ele>90</ele>
        <time>2013-03-19T14:10:23Z</time>
      </trkpt>
      <trkpt lat="46.41658" lon="-0.35225">
        <ele>90</ele>
        <time>2013-03-19T14:10:28Z</time>
      </trkpt>
      <trkpt lat="46.41664" lon="-0.35229">
        <ele>90</ele>
        <time>2013-03-19T14:10:33Z</time>
      </trkpt>
      <trkpt lat="46.41669" lon="-0.3523">
        <ele>90</ele>
        <time>2013-03-19T14:10:38Z</time>
      </trkpt>
      <trkpt lat="46.41671" lon="-0.35231">
        <ele>90</ele>
        <time>2013-03-19T14:10:43Z</time>
      </trkpt>
      <trkpt lat="46.41675" lon="-0.35238">
        <ele>90</ele>
        <time>2013-03-19T14:10:48Z</time>
      </trkpt>
      <trkpt lat="46.41679" lon="-0.35242">
        <ele>90</ele>
        <time>2013-03-19T14:10:53Z</time>
      </trkpt>
      <trkpt lat="46.41681" lon="-0.35246">
        <ele>90</ele>
        <time>2013-03-19T14:10:58Z</time>
      </trkpt>
      <trkpt lat="46.41686" lon="-0.35253">
        <ele>90</ele>
        <time>2013-03-19T14:11:03Z</time>
      </trkpt>
      <trkpt lat="46.41694" lon="-0.35262">
        <ele>90</ele>
        <time>2013-03-19T14:11:08Z</time>
      </trkpt>
      <trkpt lat="46.41698" lon="-0.35268">
        <ele>90</ele>
        <time>2013-03-19T14:11:13Z</time>
      </trkpt>
      <trkpt lat="46.41702" lon="-0.35274">
        <ele>90</ele>
        <time>2013-03-19T14:11:18Z</time>
      </trkpt>
      <trkpt lat="46.41707" lon="-0.35282">
        <ele>90</ele>
        <time>2013-03-19T14:11:23Z</time>
      </trkpt>
      <trkpt lat="46.41711" lon="-0.3529">
        <ele>97</ele>
        <time>2013-03-19T14:11:28Z</time>
      </trkpt>
      <trkpt lat="46.41717" lon="-0.35297">
        <ele>97</ele>
        <time>2013-03-19T14:11:33Z</time>
      </trkpt>
      <trkpt lat="46.4172" lon="-0.35303">
        <ele>97</ele>
        <time>2013-03-19T14:11:38Z</time>
      </trkpt>
      <trkpt lat="46.41723" lon="-0.3531">
        <ele>97</ele>
        <time>2013-03-19T14:11:43Z</time>
      </trkpt>
      <trkpt lat="46.41728" lon="-0.35318">
        <ele>97</ele>
        <time>2013-03-19T14:11:48Z</time>
      </trkpt>
      <trkpt lat="46.41728" lon="-0.35324">
        <ele>97</ele>
        <time>2013-03-19T14:11:53Z</time>
      </trkpt>
      <trkpt lat="46.41733" lon="-0.3533">
        <ele>97</ele>
        <time>2013-03-19T14:11:58Z</time>
      </trkpt>
      <trkpt lat="46.41736" lon="-0.35338">
        <ele>97</ele>
        <time>2013-03-19T14:12:03Z</time>
      </trkpt>
      <trkpt lat="46.41743" lon="-0.35344">
        <ele>97</ele>
        <time>2013-03-19T14:12:08Z</time>
      </trkpt>
      <trkpt lat="46.41747" lon="-0.35349">
        <ele>97</ele>
        <time>2013-03-19T14:12:13Z</time>
      </trkpt>
      <trkpt lat="46.41751" lon="-0.35355">
        <ele>97</ele>
        <time>2013-03-19T14:12:18Z</time>
      </trkpt>
      <trkpt lat="46.41755" lon="-0.3536">
        <ele>97</ele>
        <time>2013-03-19T14:12:23Z</time>
      </trkpt>
      <trkpt lat="46.41757" lon="-0.35367">
        <ele>97</ele>
        <time>2013-03-19T14:12:28Z</time>
      </trkpt>
      <trkpt lat="46.41761" lon="-0.35373">
        <ele>97</ele>
        <time>2013-03-19T14:12:33Z</time>
      </trkpt>
      <trkpt lat="46.41764" lon="-0.35378">
        <ele>97</ele>
        <time>2013-03-19T14:12:38Z</time>
      </trkpt>
      <trkpt lat="46.41768" lon="-0.35386">
        <ele>97</ele>
        <time>2013-03-19T14:12:43Z</time>
      </trkpt>
      <trkpt lat="46.4177" lon="-0.35392">
        <ele>97</ele>
        <time>2013-03-19T14:12:48Z</time>
      </trkpt>
      <trkpt lat="46.41775" lon="-0.35399">
        <ele>97</ele>
        <time>2013-03-19T14:12:53Z</time>
      </trkpt>
      <trkpt lat="46.41777" lon="-0.35406">
        <ele>97</ele>
        <time>2013-03-19T14:12:58Z</time>
      </trkpt>
      <trkpt lat="46.41781" lon="-0.35412">
        <ele>97</ele>
        <time>2013-03-19T14:13:03Z</time>
      </trkpt>
      <trkpt lat="46.41785" lon="-0.35416">
        <ele>97</ele>
        <time>2013-03-19T14:13:08Z</time>
      </trkpt>
      <trkpt lat="46.41789" lon="-0.35423">
        <ele>97</ele>
        <time>2013-03-19T14:13:13Z</time>
      </trkpt>
      <trkpt lat="46.41792" lon="-0.35429">
        <ele>101</ele>
        <time>2013-03-19T14:13:18Z</time>
      </trkpt>
      <trkpt lat="46.41794" lon="-0.35437">
        <ele>101</ele>
        <time>2013-03-19T14:13:23Z</time>
      </trkpt>
      <trkpt lat="46.41798" lon="-0.35443">
        <ele>101</ele>
        <time>2013-03-19T14:13:28Z</time>
      </trkpt>
      <trkpt lat="46.41801" lon="-0.35449">
        <ele>101</ele>
        <time>2013-03-19T14:13:33Z</time>
      </trkpt>
      <trkpt lat="46.41803" lon="-0.3546">
        <ele>100</ele>
        <time>2013-03-19T14:13:38Z</time>
      </trkpt>
      <trkpt lat="46.41806" lon="-0.35468">
        <ele>100</ele>
        <time>2013-03-19T14:13:43Z</time>
      </trkpt>
      <trkpt lat="46.41811" lon="-0.35472">
        <ele>100</ele>
        <time>2013-03-19T14:13:48Z</time>
      </trkpt>
      <trkpt lat="46.41814" lon="-0.35478">
        <ele>100</ele>
        <time>2013-03-19T14:13:53Z</time>
      </trkpt>
      <trkpt lat="46.41816" lon="-0.35482">
        <ele>100</ele>
        <time>2013-03-19T14:13:58Z</time>
      </trkpt>
      <trkpt lat="46.41819" lon="-0.35486">
        <ele>100</ele>
        <time>2013-03-19T14:14:03Z</time>
      </trkpt>
      <trkpt lat="46.41822" lon="-0.35493">
        <ele>100</ele>
        <time>2013-03-19T14:14:08Z</time>
      </trkpt>
      <trkpt lat="46.41824" lon="-0.35502">
        <ele>100</ele>
        <time>2013-03-19T14:14:13Z</time>
      </trkpt>
      <trkpt lat="46.41826" lon="-0.35505">
        <ele>100</ele>
        <time>2013-03-19T14:14:18Z</time>
      </trkpt>
      <trkpt lat="46.41827" lon="-0.35504">
        <ele>100</ele>
        <time>2013-03-19T14:14:23Z</time>
      </trkpt>
      <trkpt lat="46.41827" lon="-0.35504">
        <ele>100</ele>
        <time>2013-03-19T14:14:28Z</time>
      </trkpt>
      <trkpt lat="46.41833" lon="-0.35502">
        <ele>100</ele>
        <time>2013-03-19T14:14:33Z</time>
      </trkpt>
      <trkpt lat="46.41839" lon="-0.35498">
        <ele>100</ele>
        <time>2013-03-19T14:14:38Z</time>
      </trkpt>
      <trkpt lat="46.41845" lon="-0.35494">
        <ele>100</ele>
        <time>2013-03-19T14:14:43Z</time>
      </trkpt>
      <trkpt lat="46.41849" lon="-0.35489">
        <ele>100</ele>
        <time>2013-03-19T14:14:48Z</time>
      </trkpt>
      <trkpt lat="46.41854" lon="-0.35483">
        <ele>100</ele>
        <time>2013-03-19T14:14:53Z</time>
      </trkpt>
      <trkpt lat="46.41858" lon="-0.35478">
        <ele>100</ele>
        <time>2013-03-19T14:14:58Z</time>
      </trkpt>
      <trkpt lat="46.41862" lon="-0.35474">
        <ele>100</ele>
        <time>2013-03-19T14:15:03Z</time>
      </trkpt>
      <trkpt lat="46.41867" lon="-0.35471">
        <ele>100</ele>
        <time>2013-03-19T14:15:08Z</time>
      </trkpt>
      <trkpt lat="46.41873" lon="-0.35465">
        <ele>100</ele>
        <time>2013-03-19T14:15:13Z</time>
      </trkpt>
      <trkpt lat="46.41878" lon="-0.35462">
        <ele>100</ele>
        <time>2013-03-19T14:15:18Z</time>
      </trkpt>
      <trkpt lat="46.41882" lon="-0.35458">
        <ele>104</ele>
        <time>2013-03-19T14:15:23Z</time>
      </trkpt>
      <trkpt lat="46.41887" lon="-0.35452">
        <ele>104</ele>
        <time>2013-03-19T14:15:28Z</time>
      </trkpt>
      <trkpt lat="46.41893" lon="-0.35449">
        <ele>104</ele>
        <time>2013-03-19T14:15:33Z</time>
      </trkpt>
      <trkpt lat="46.41899" lon="-0.35444">
        <ele>104</ele>
        <time>2013-03-19T14:15:38Z</time>
      </trkpt>
      <trkpt lat="46.41903" lon="-0.3544">
        <ele>104</ele>
        <time>2013-03-19T14:15:43Z</time>
      </trkpt>
      <trkpt lat="46.41909" lon="-0.35437">
        <ele>104</ele>
        <time>2013-03-19T14:15:48Z</time>
      </trkpt>
      <trkpt lat="46.41915" lon="-0.35431">
        <ele>104</ele>
        <time>2013-03-19T14:15:53Z</time>
      </trkpt>
      <trkpt lat="46.41919" lon="-0.35428">
        <ele>104</ele>
        <time>2013-03-19T14:15:58Z</time>
      </trkpt>
      <trkpt lat="46.41924" lon="-0.35423">
        <ele>104</ele>
        <time>2013-03-19T14:16:03Z</time>
      </trkpt>
      <trkpt lat="46.41929" lon="-0.35419">
        <ele>104</ele>
        <time>2013-03-19T14:16:08Z</time>
      </trkpt>
      <trkpt lat="46.41934" lon="-0.35413">
        <ele>104</ele>
        <time>2013-03-19T14:16:13Z</time>
      </trkpt>
      <trkpt lat="46.41939" lon="-0.35408">
        <ele>104</ele>
        <time>2013-03-19T14:16:18Z</time>
      </trkpt>
      <trkpt lat="46.41943" lon="-0.35403">
        <ele>104</ele>
        <time>2013-03-19T14:16:23Z</time>
      </trkpt>
      <trkpt lat="46.41948" lon="-0.35397">
        <ele>104</ele>
        <time>2013-03-19T14:16:28Z</time>
      </trkpt>
      <trkpt lat="46.41953" lon="-0.3539">
        <ele>104</ele>
        <time>2013-03-19T14:16:33Z</time>
      </trkpt>
      <trkpt lat="46.41958" lon="-0.35384">
        <ele>104</ele>
        <time>2013-03-19T14:16:38Z</time>
      </trkpt>
      <trkpt lat="46.41963" lon="-0.35379">
        <ele>102</ele>
        <time>2013-03-19T14:16:43Z</time>
      </trkpt>
      <trkpt lat="46.41968" lon="-0.35374">
        <ele>104</ele>
        <time>2013-03-19T14:16:48Z</time>
      </trkpt>
      <trkpt lat="46.41971" lon="-0.35369">
        <ele>104</ele>
        <time>2013-03-19T14:16:53Z</time>
      </trkpt>
      <trkpt lat="46.41977" lon="-0.35362">
        <ele>104</ele>
        <time>2013-03-19T14:16:58Z</time>
      </trkpt>
      <trkpt lat="46.41982" lon="-0.35356">
        <ele>104</ele>
        <time>2013-03-19T14:17:03Z</time>
      </trkpt>
      <trkpt lat="46.41987" lon="-0.3535">
        <ele>104</ele>
        <time>2013-03-19T14:17:08Z</time>
      </trkpt>
      <trkpt lat="46.41991" lon="-0.35345">
        <ele>104</ele>
        <time>2013-03-19T14:17:13Z</time>
      </trkpt>
      <trkpt lat="46.41995" lon="-0.35338">
        <ele>104</ele>
        <time>2013-03-19T14:17:18Z</time>
      </trkpt>
      <trkpt lat="46.41999" lon="-0.35332">
        <ele>104</ele>
        <time>2013-03-19T14:17:23Z</time>
      </trkpt>
      <trkpt lat="46.42002" lon="-0.35326">
        <ele>104</ele>
        <time>2013-03-19T14:17:28Z</time>
      </trkpt>
      <trkpt lat="46.42007" lon="-0.35319">
        <ele>104</ele>
        <time>2013-03-19T14:17:33Z</time>
      </trkpt>
      <trkpt lat="46.42011" lon="-0.35312">
        <ele>104</ele>
        <time>2013-03-19T14:17:38Z</time>
      </trkpt>
      <trkpt lat="46.42014" lon="-0.35306">
        <ele>104</ele>
        <time>2013-03-19T14:17:43Z</time>
      </trkpt>
      <trkpt lat="46.42019" lon="-0.353">
        <ele>104</ele>
        <time>2013-03-19T14:17:48Z</time>
      </trkpt>
      <trkpt lat="46.42024" lon="-0.35294">
        <ele>104</ele>
        <time>2013-03-19T14:17:53Z</time>
      </trkpt>
      <trkpt lat="46.42028" lon="-0.35289">
        <ele>106</ele>
        <time>2013-03-19T14:17:58Z</time>
      </trkpt>
      <trkpt lat="46.42032" lon="-0.35281">
        <ele>106</ele>
        <time>2013-03-19T14:18:03Z</time>
      </trkpt>
      <trkpt lat="46.42037" lon="-0.35274">
        <ele>106</ele>
        <time>2013-03-19T14:18:08Z</time>
      </trkpt>
      <trkpt lat="46.42042" lon="-0.35267">
        <ele>108</ele>
        <time>2013-03-19T14:18:14Z</time>
      </trkpt>
      <trkpt lat="46.42045" lon="-0.3526">
        <ele>108</ele>
        <time>2013-03-19T14:18:18Z</time>
      </trkpt>
      <trkpt lat="46.42049" lon="-0.35254">
        <ele>108</ele>
        <time>2013-03-19T14:18:23Z</time>
      </trkpt>
      <trkpt lat="46.42053" lon="-0.35246">
        <ele>108</ele>
        <time>2013-03-19T14:18:28Z</time>
      </trkpt>
      <trkpt lat="46.42056" lon="-0.35239">
        <ele>108</ele>
        <time>2013-03-19T14:18:33Z</time>
      </trkpt>
      <trkpt lat="46.42059" lon="-0.35233">
        <ele>108</ele>
        <time>2013-03-19T14:18:38Z</time>
      </trkpt>
      <trkpt lat="46.42063" lon="-0.35227">
        <ele>108</ele>
        <time>2013-03-19T14:18:43Z</time>
      </trkpt>
      <trkpt lat="46.42067" lon="-0.35221">
        <ele>108</ele>
        <time>2013-03-19T14:18:48Z</time>
      </trkpt>
      <trkpt lat="46.42072" lon="-0.35216">
        <ele>108</ele>
        <time>2013-03-19T14:18:53Z</time>
      </trkpt>
      <trkpt lat="46.42076" lon="-0.35209">
        <ele>108</ele>
        <time>2013-03-19T14:18:58Z</time>
      </trkpt>
      <trkpt lat="46.42079" lon="-0.35203">
        <ele>109</ele>
        <time>2013-03-19T14:19:03Z</time>
      </trkpt>
      <trkpt lat="46.42083" lon="-0.35196">
        <ele>109</ele>
        <time>2013-03-19T14:19:08Z</time>
      </trkpt>
      <trkpt lat="46.42088" lon="-0.35191">
        <ele>109</ele>
        <time>2013-03-19T14:19:13Z</time>
      </trkpt>
      <trkpt lat="46.42093" lon="-0.35186">
        <ele>109</ele>
        <time>2013-03-19T14:19:18Z</time>
      </trkpt>
      <trkpt lat="46.42096" lon="-0.3518">
        <ele>109</ele>
        <time>2013-03-19T14:19:23Z</time>
      </trkpt>
      <trkpt lat="46.421" lon="-0.35174">
        <ele>109</ele>
        <time>2013-03-19T14:19:28Z</time>
      </trkpt>
      <trkpt lat="46.42105" lon="-0.3517">
        <ele>109</ele>
        <time>2013-03-19T14:19:33Z</time>
      </trkpt>
      <trkpt lat="46.4211" lon="-0.35163">
        <ele>109</ele>
        <time>2013-03-19T14:19:38Z</time>
      </trkpt>
      <trkpt lat="46.42116" lon="-0.35158">
        <ele>109</ele>
        <time>2013-03-19T14:19:43Z</time>
      </trkpt>
      <trkpt lat="46.42121" lon="-0.35153">
        <ele>109</ele>
        <time>2013-03-19T14:19:48Z</time>
      </trkpt>
      <trkpt lat="46.42126" lon="-0.35148">
        <ele>110</ele>
        <time>2013-03-19T14:19:53Z</time>
      </trkpt>
      <trkpt lat="46.42131" lon="-0.35144">
        <ele>110</ele>
        <time>2013-03-19T14:19:58Z</time>
      </trkpt>
      <trkpt lat="46.42137" lon="-0.3514">
        <ele>110</ele>
        <time>2013-03-19T14:20:03Z</time>
      </trkpt>
      <trkpt lat="46.42142" lon="-0.35136">
        <ele>110</ele>
        <time>2013-03-19T14:20:08Z</time>
      </trkpt>
      <trkpt lat="46.42147" lon="-0.35133">
        <ele>110</ele>
        <time>2013-03-19T14:20:13Z</time>
      </trkpt>
      <trkpt lat="46.42151" lon="-0.35129">
        <ele>110</ele>
        <time>2013-03-19T14:20:18Z</time>
      </trkpt>
      <trkpt lat="46.42155" lon="-0.35126">
        <ele>110</ele>
        <time>2013-03-19T14:20:23Z</time>
      </trkpt>
      <trkpt lat="46.42161" lon="-0.35121">
        <ele>109</ele>
        <time>2013-03-19T14:20:28Z</time>
      </trkpt>
      <trkpt lat="46.42168" lon="-0.35118">
        <ele>109</ele>
        <time>2013-03-19T14:20:33Z</time>
      </trkpt>
      <trkpt lat="46.42174" lon="-0.35117">
        <ele>109</ele>
        <time>2013-03-19T14:20:38Z</time>
      </trkpt>
      <trkpt lat="46.42179" lon="-0.35112">
        <ele>109</ele>
        <time>2013-03-19T14:20:43Z</time>
      </trkpt>
      <trkpt lat="46.42183" lon="-0.3511">
        <ele>109</ele>
        <time>2013-03-19T14:20:48Z</time>
      </trkpt>
      <trkpt lat="46.42188" lon="-0.35106">
        <ele>109</ele>
        <time>2013-03-19T14:20:53Z</time>
      </trkpt>
      <trkpt lat="46.42193" lon="-0.35104">
        <ele>109</ele>
        <time>2013-03-19T14:20:58Z</time>
      </trkpt>
      <trkpt lat="46.42198" lon="-0.35102">
        <ele>109</ele>
        <time>2013-03-19T14:21:03Z</time>
      </trkpt>
      <trkpt lat="46.42204" lon="-0.35099">
        <ele>109</ele>
        <time>2013-03-19T14:21:08Z</time>
      </trkpt>
      <trkpt lat="46.42209" lon="-0.35097">
        <ele>107</ele>
        <time>2013-03-19T14:21:13Z</time>
      </trkpt>
      <trkpt lat="46.42213" lon="-0.35097">
        <ele>107</ele>
        <time>2013-03-19T14:21:18Z</time>
      </trkpt>
      <trkpt lat="46.42219" lon="-0.35096">
        <ele>107</ele>
        <time>2013-03-19T14:21:23Z</time>
      </trkpt>
      <trkpt lat="46.42224" lon="-0.35094">
        <ele>107</ele>
        <time>2013-03-19T14:21:28Z</time>
      </trkpt>
      <trkpt lat="46.42229" lon="-0.35093">
        <ele>107</ele>
        <time>2013-03-19T14:21:33Z</time>
      </trkpt>
      <trkpt lat="46.42236" lon="-0.35092">
        <ele>107</ele>
        <time>2013-03-19T14:21:38Z</time>
      </trkpt>
      <trkpt lat="46.4224" lon="-0.35091">
        <ele>107</ele>
        <time>2013-03-19T14:21:43Z</time>
      </trkpt>
      <trkpt lat="46.42239" lon="-0.35092">
        <ele>107</ele>
        <time>2013-03-19T14:21:48Z</time>
      </trkpt>
      <trkpt lat="46.42239" lon="-0.35091">
        <ele>107</ele>
        <time>2013-03-19T14:21:53Z</time>
      </trkpt>
      <trkpt lat="46.4224" lon="-0.35093">
        <ele>107</ele>
        <time>2013-03-19T14:21:58Z</time>
      </trkpt>
      <trkpt lat="46.42242" lon="-0.35093">
        <ele>107</ele>
        <time>2013-03-19T14:22:03Z</time>
      </trkpt>
      <trkpt lat="46.42243" lon="-0.35093">
        <ele>107</ele>
        <time>2013-03-19T14:22:08Z</time>
      </trkpt>
      <trkpt lat="46.42245" lon="-0.35095">
        <ele>107</ele>
        <time>2013-03-19T14:22:13Z</time>
      </trkpt>
      <trkpt lat="46.42249" lon="-0.35098">
        <ele>107</ele>
        <time>2013-03-19T14:22:18Z</time>
      </trkpt>
      <trkpt lat="46.42253" lon="-0.35102">
        <ele>107</ele>
        <time>2013-03-19T14:22:23Z</time>
      </trkpt>
      <trkpt lat="46.42257" lon="-0.35104">
        <ele>107</ele>
        <time>2013-03-19T14:22:28Z</time>
      </trkpt>
      <trkpt lat="46.42261" lon="-0.35105">
        <ele>107</ele>
        <time>2013-03-19T14:22:33Z</time>
      </trkpt>
      <trkpt lat="46.42262" lon="-0.35105">
        <ele>107</ele>
        <time>2013-03-19T14:22:38Z</time>
      </trkpt>
      <trkpt lat="46.42265" lon="-0.35106">
        <ele>107</ele>
        <time>2013-03-19T14:22:43Z</time>
      </trkpt>
      <trkpt lat="46.42271" lon="-0.35107">
        <ele>107</ele>
        <time>2013-03-19T14:22:48Z</time>
      </trkpt>
      <trkpt lat="46.42276" lon="-0.35111">
        <ele>107</ele>
        <time>2013-03-19T14:22:53Z</time>
      </trkpt>
      <trkpt lat="46.42281" lon="-0.35116">
        <ele>107</ele>
        <time>2013-03-19T14:22:58Z</time>
      </trkpt>
      <trkpt lat="46.42284" lon="-0.3512">
        <ele>107</ele>
        <time>2013-03-19T14:23:03Z</time>
      </trkpt>
      <trkpt lat="46.42287" lon="-0.35124">
        <ele>107</ele>
        <time>2013-03-19T14:23:08Z</time>
      </trkpt>
      <trkpt lat="46.42292" lon="-0.35128">
        <ele>103</ele>
        <time>2013-03-19T14:23:13Z</time>
      </trkpt>
      <trkpt lat="46.42296" lon="-0.35131">
        <ele>103</ele>
        <time>2013-03-19T14:23:18Z</time>
      </trkpt>
      <trkpt lat="46.42301" lon="-0.35133">
        <ele>103</ele>
        <time>2013-03-19T14:23:23Z</time>
      </trkpt>
      <trkpt lat="46.42305" lon="-0.35137">
        <ele>103</ele>
        <time>2013-03-19T14:23:28Z</time>
      </trkpt>
      <trkpt lat="46.42311" lon="-0.3514">
        <ele>103</ele>
        <time>2013-03-19T14:23:33Z</time>
      </trkpt>
      <trkpt lat="46.42316" lon="-0.35144">
        <ele>103</ele>
        <time>2013-03-19T14:23:38Z</time>
      </trkpt>
      <trkpt lat="46.42322" lon="-0.35149">
        <ele>103</ele>
        <time>2013-03-19T14:23:43Z</time>
      </trkpt>
      <trkpt lat="46.42327" lon="-0.35155">
        <ele>103</ele>
        <time>2013-03-19T14:23:48Z</time>
      </trkpt>
      <trkpt lat="46.42332" lon="-0.35159">
        <ele>103</ele>
        <time>2013-03-19T14:23:53Z</time>
      </trkpt>
      <trkpt lat="46.42337" lon="-0.35164">
        <ele>103</ele>
        <time>2013-03-19T14:23:58Z</time>
      </trkpt>
      <trkpt lat="46.42342" lon="-0.35169">
        <ele>103</ele>
        <time>2013-03-19T14:24:03Z</time>
      </trkpt>
      <trkpt lat="46.42346" lon="-0.35172">
        <ele>103</ele>
        <time>2013-03-19T14:24:08Z</time>
      </trkpt>
      <trkpt lat="46.4235" lon="-0.35175">
        <ele>103</ele>
        <time>2013-03-19T14:24:13Z</time>
      </trkpt>
      <trkpt lat="46.42354" lon="-0.35179">
        <ele>103</ele>
        <time>2013-03-19T14:24:18Z</time>
      </trkpt>
      <trkpt lat="46.42358" lon="-0.35184">
        <ele>103</ele>
        <time>2013-03-19T14:24:23Z</time>
      </trkpt>
      <trkpt lat="46.42363" lon="-0.35188">
        <ele>103</ele>
        <time>2013-03-19T14:24:28Z</time>
      </trkpt>
      <trkpt lat="46.42367" lon="-0.35192">
        <ele>103</ele>
        <time>2013-03-19T14:24:33Z</time>
      </trkpt>
      <trkpt lat="46.42372" lon="-0.35195">
        <ele>103</ele>
        <time>2013-03-19T14:24:38Z</time>
      </trkpt>
      <trkpt lat="46.42379" lon="-0.35202">
        <ele>100</ele>
        <time>2013-03-19T14:24:43Z</time>
      </trkpt>
      <trkpt lat="46.42383" lon="-0.35207">
        <ele>100</ele>
        <time>2013-03-19T14:24:48Z</time>
      </trkpt>
      <trkpt lat="46.42386" lon="-0.35209">
        <ele>105</ele>
        <time>2013-03-19T14:24:53Z</time>
      </trkpt>
      <trkpt lat="46.42387" lon="-0.35209">
        <ele>105</ele>
        <time>2013-03-19T14:24:58Z</time>
      </trkpt>
      <trkpt lat="46.42392" lon="-0.35214">
        <ele>105</ele>
        <time>2013-03-19T14:25:03Z</time>
      </trkpt>
      <trkpt lat="46.42397" lon="-0.35219">
        <ele>105</ele>
        <time>2013-03-19T14:25:08Z</time>
      </trkpt>
      <trkpt lat="46.42401" lon="-0.35223">
        <ele>105</ele>
        <time>2013-03-19T14:25:13Z</time>
      </trkpt>
      <trkpt lat="46.42409" lon="-0.35229">
        <ele>105</ele>
        <time>2013-03-19T14:25:18Z</time>
      </trkpt>
      <trkpt lat="46.42415" lon="-0.35234">
        <ele>105</ele>
        <time>2013-03-19T14:25:23Z</time>
      </trkpt>
      <trkpt lat="46.42421" lon="-0.35238">
        <ele>105</ele>
        <time>2013-03-19T14:25:28Z</time>
      </trkpt>
      <trkpt lat="46.42427" lon="-0.35244">
        <ele>105</ele>
        <time>2013-03-19T14:25:33Z</time>
      </trkpt>
      <trkpt lat="46.42432" lon="-0.35249">
        <ele>105</ele>
        <time>2013-03-19T14:25:38Z</time>
      </trkpt>
      <trkpt lat="46.42437" lon="-0.35254">
        <ele>105</ele>
        <time>2013-03-19T14:25:43Z</time>
      </trkpt>
      <trkpt lat="46.42441" lon="-0.35257">
        <ele>105</ele>
        <time>2013-03-19T14:25:48Z</time>
      </trkpt>
      <trkpt lat="46.42446" lon="-0.35261">
        <ele>105</ele>
        <time>2013-03-19T14:25:53Z</time>
      </trkpt>
      <trkpt lat="46.42451" lon="-0.35265">
        <ele>105</ele>
        <time>2013-03-19T14:25:58Z</time>
      </trkpt>
      <trkpt lat="46.42454" lon="-0.35268">
        <ele>105</ele>
        <time>2013-03-19T14:26:03Z</time>
      </trkpt>
      <trkpt lat="46.42455" lon="-0.3527">
        <ele>105</ele>
        <time>2013-03-19T14:26:08Z</time>
      </trkpt>
      <trkpt lat="46.42462" lon="-0.35276">
        <ele>103</ele>
        <time>2013-03-19T14:26:13Z</time>
      </trkpt>
      <trkpt lat="46.42468" lon="-0.3528">
        <ele>103</ele>
        <time>2013-03-19T14:26:18Z</time>
      </trkpt>
      <trkpt lat="46.42474" lon="-0.35283">
        <ele>103</ele>
        <time>2013-03-19T14:26:23Z</time>
      </trkpt>
      <trkpt lat="46.42475" lon="-0.35283">
        <ele>103</ele>
        <time>2013-03-19T14:26:28Z</time>
      </trkpt>
      <trkpt lat="46.4248" lon="-0.35288">
        <ele>103</ele>
        <time>2013-03-19T14:26:33Z</time>
      </trkpt>
      <trkpt lat="46.42487" lon="-0.35289">
        <ele>103</ele>
        <time>2013-03-19T14:26:38Z</time>
      </trkpt>
      <trkpt lat="46.42492" lon="-0.35294">
        <ele>106</ele>
        <time>2013-03-19T14:26:43Z</time>
      </trkpt>
      <trkpt lat="46.42498" lon="-0.35301">
        <ele>106</ele>
        <time>2013-03-19T14:26:48Z</time>
      </trkpt>
      <trkpt lat="46.42505" lon="-0.35304">
        <ele>106</ele>
        <time>2013-03-19T14:26:53Z</time>
      </trkpt>
      <trkpt lat="46.4251" lon="-0.35309">
        <ele>106</ele>
        <time>2013-03-19T14:26:58Z</time>
      </trkpt>
      <trkpt lat="46.42514" lon="-0.35312">
        <ele>106</ele>
        <time>2013-03-19T14:27:03Z</time>
      </trkpt>
      <trkpt lat="46.4252" lon="-0.35316">
        <ele>106</ele>
        <time>2013-03-19T14:27:08Z</time>
      </trkpt>
      <trkpt lat="46.42527" lon="-0.3532">
        <ele>106</ele>
        <time>2013-03-19T14:27:13Z</time>
      </trkpt>
      <trkpt lat="46.42532" lon="-0.35324">
        <ele>106</ele>
        <time>2013-03-19T14:27:18Z</time>
      </trkpt>
      <trkpt lat="46.42537" lon="-0.35328">
        <ele>106</ele>
        <time>2013-03-19T14:27:23Z</time>
      </trkpt>
      <trkpt lat="46.42542" lon="-0.35333">
        <ele>105</ele>
        <time>2013-03-19T14:27:28Z</time>
      </trkpt>
      <trkpt lat="46.42547" lon="-0.35338">
        <ele>105</ele>
        <time>2013-03-19T14:27:33Z</time>
      </trkpt>
      <trkpt lat="46.42552" lon="-0.35342">
        <ele>105</ele>
        <time>2013-03-19T14:27:38Z</time>
      </trkpt>
      <trkpt lat="46.42557" lon="-0.35348">
        <ele>105</ele>
        <time>2013-03-19T14:27:43Z</time>
      </trkpt>
      <trkpt lat="46.42561" lon="-0.35354">
        <ele>105</ele>
        <time>2013-03-19T14:27:48Z</time>
      </trkpt>
      <trkpt lat="46.42565" lon="-0.3536">
        <ele>105</ele>
        <time>2013-03-19T14:27:53Z</time>
      </trkpt>
      <trkpt lat="46.42569" lon="-0.35365">
        <ele>105</ele>
        <time>2013-03-19T14:27:58Z</time>
      </trkpt>
      <trkpt lat="46.42573" lon="-0.35373">
        <ele>105</ele>
        <time>2013-03-19T14:28:03Z</time>
      </trkpt>
      <trkpt lat="46.42577" lon="-0.3538">
        <ele>109</ele>
        <time>2013-03-19T14:28:08Z</time>
      </trkpt>
      <trkpt lat="46.4258" lon="-0.35385">
        <ele>109</ele>
        <time>2013-03-19T14:28:13Z</time>
      </trkpt>
      <trkpt lat="46.42583" lon="-0.35392">
        <ele>109</ele>
        <time>2013-03-19T14:28:18Z</time>
      </trkpt>
      <trkpt lat="46.42586" lon="-0.354">
        <ele>109</ele>
        <time>2013-03-19T14:28:23Z</time>
      </trkpt>
      <trkpt lat="46.42589" lon="-0.35403">
        <ele>109</ele>
        <time>2013-03-19T14:28:28Z</time>
      </trkpt>
      <trkpt lat="46.42592" lon="-0.35408">
        <ele>109</ele>
        <time>2013-03-19T14:28:33Z</time>
      </trkpt>
      <trkpt lat="46.42594" lon="-0.35412">
        <ele>109</ele>
        <time>2013-03-19T14:28:38Z</time>
      </trkpt>
      <trkpt lat="46.42595" lon="-0.35416">
        <ele>109</ele>
        <time>2013-03-19T14:28:43Z</time>
      </trkpt>
      <trkpt lat="46.42596" lon="-0.35416">
        <ele>109</ele>
        <time>2013-03-19T14:28:48Z</time>
      </trkpt>
      <trkpt lat="46.42597" lon="-0.35424">
        <ele>109</ele>
        <time>2013-03-19T14:28:53Z</time>
      </trkpt>
      <trkpt lat="46.426" lon="-0.3543">
        <ele>109</ele>
        <time>2013-03-19T14:28:58Z</time>
      </trkpt>
      <trkpt lat="46.42601" lon="-0.35437">
        <ele>109</ele>
        <time>2013-03-19T14:29:03Z</time>
      </trkpt>
      <trkpt lat="46.42603" lon="-0.35445">
        <ele>109</ele>
        <time>2013-03-19T14:29:08Z</time>
      </trkpt>
      <trkpt lat="46.42605" lon="-0.35454">
        <ele>109</ele>
        <time>2013-03-19T14:29:13Z</time>
      </trkpt>
      <trkpt lat="46.42608" lon="-0.35463">
        <ele>112</ele>
        <time>2013-03-19T14:29:18Z</time>
      </trkpt>
      <trkpt lat="46.4261" lon="-0.3547">
        <ele>112</ele>
        <time>2013-03-19T14:29:23Z</time>
      </trkpt>
      <trkpt lat="46.42612" lon="-0.35479">
        <ele>112</ele>
        <time>2013-03-19T14:29:28Z</time>
      </trkpt>
      <trkpt lat="46.42614" lon="-0.35486">
        <ele>112</ele>
        <time>2013-03-19T14:29:33Z</time>
      </trkpt>
      <trkpt lat="46.42616" lon="-0.35494">
        <ele>112</ele>
        <time>2013-03-19T14:29:38Z</time>
      </trkpt>
      <trkpt lat="46.42618" lon="-0.35501">
        <ele>112</ele>
        <time>2013-03-19T14:29:43Z</time>
      </trkpt>
      <trkpt lat="46.4262" lon="-0.35508">
        <ele>112</ele>
        <time>2013-03-19T14:29:48Z</time>
      </trkpt>
      <trkpt lat="46.42622" lon="-0.35516">
        <ele>112</ele>
        <time>2013-03-19T14:29:53Z</time>
      </trkpt>
      <trkpt lat="46.42623" lon="-0.35525">
        <ele>112</ele>
        <time>2013-03-19T14:29:58Z</time>
      </trkpt>
      <trkpt lat="46.42624" lon="-0.35534">
        <ele>112</ele>
        <time>2013-03-19T14:30:03Z</time>
      </trkpt>
      <trkpt lat="46.42625" lon="-0.35542">
        <ele>115</ele>
        <time>2013-03-19T14:30:08Z</time>
      </trkpt>
      <trkpt lat="46.42626" lon="-0.35549">
        <ele>114</ele>
        <time>2013-03-19T14:30:13Z</time>
      </trkpt>
      <trkpt lat="46.42628" lon="-0.35558">
        <ele>114</ele>
        <time>2013-03-19T14:30:18Z</time>
      </trkpt>
      <trkpt lat="46.42631" lon="-0.35565">
        <ele>114</ele>
        <time>2013-03-19T14:30:23Z</time>
      </trkpt>
      <trkpt lat="46.42632" lon="-0.35573">
        <ele>114</ele>
        <time>2013-03-19T14:30:28Z</time>
      </trkpt>
      <trkpt lat="46.42633" lon="-0.35581">
        <ele>114</ele>
        <time>2013-03-19T14:30:33Z</time>
      </trkpt>
      <trkpt lat="46.42636" lon="-0.35588">
        <ele>114</ele>
        <time>2013-03-19T14:30:38Z</time>
      </trkpt>
      <trkpt lat="46.42637" lon="-0.35595">
        <ele>114</ele>
        <time>2013-03-19T14:30:43Z</time>
      </trkpt>
      <trkpt lat="46.42639" lon="-0.35603">
        <ele>114</ele>
        <time>2013-03-19T14:30:48Z</time>
      </trkpt>
      <trkpt lat="46.42643" lon="-0.35611">
        <ele>114</ele>
        <time>2013-03-19T14:30:53Z</time>
      </trkpt>
      <trkpt lat="46.42645" lon="-0.35618">
        <ele>114</ele>
        <time>2013-03-19T14:30:58Z</time>
      </trkpt>
      <trkpt lat="46.42647" lon="-0.35627">
        <ele>115</ele>
        <time>2013-03-19T14:31:03Z</time>
      </trkpt>
      <trkpt lat="46.42651" lon="-0.35634">
        <ele>115</ele>
        <time>2013-03-19T14:31:08Z</time>
      </trkpt>
      <trkpt lat="46.42652" lon="-0.35641">
        <ele>115</ele>
        <time>2013-03-19T14:31:13Z</time>
      </trkpt>
      <trkpt lat="46.42654" lon="-0.35649">
        <ele>115</ele>
        <time>2013-03-19T14:31:18Z</time>
      </trkpt>
      <trkpt lat="46.42655" lon="-0.35659">
        <ele>115</ele>
        <time>2013-03-19T14:31:23Z</time>
      </trkpt>
      <trkpt lat="46.42656" lon="-0.35667">
        <ele>115</ele>
        <time>2013-03-19T14:31:28Z</time>
      </trkpt>
      <trkpt lat="46.42658" lon="-0.35676">
        <ele>115</ele>
        <time>2013-03-19T14:31:33Z</time>
      </trkpt>
      <trkpt lat="46.4266" lon="-0.35685">
        <ele>115</ele>
        <time>2013-03-19T14:31:38Z</time>
      </trkpt>
      <trkpt lat="46.42663" lon="-0.35694">
        <ele>115</ele>
        <time>2013-03-19T14:31:43Z</time>
      </trkpt>
      <trkpt lat="46.42667" lon="-0.357">
        <ele>115</ele>
        <time>2013-03-19T14:31:48Z</time>
      </trkpt>
      <trkpt lat="46.42668" lon="-0.35708">
        <ele>115</ele>
        <time>2013-03-19T14:31:53Z</time>
      </trkpt>
      <trkpt lat="46.42671" lon="-0.35716">
        <ele>114</ele>
        <time>2013-03-19T14:31:58Z</time>
      </trkpt>
      <trkpt lat="46.42674" lon="-0.35723">
        <ele>114</ele>
        <time>2013-03-19T14:32:03Z</time>
      </trkpt>
      <trkpt lat="46.42676" lon="-0.35731">
        <ele>114</ele>
        <time>2013-03-19T14:32:08Z</time>
      </trkpt>
      <trkpt lat="46.4268" lon="-0.35738">
        <ele>114</ele>
        <time>2013-03-19T14:32:13Z</time>
      </trkpt>
      <trkpt lat="46.42683" lon="-0.35748">
        <ele>114</ele>
        <time>2013-03-19T14:32:18Z</time>
      </trkpt>
      <trkpt lat="46.42684" lon="-0.35754">
        <ele>114</ele>
        <time>2013-03-19T14:32:23Z</time>
      </trkpt>
      <trkpt lat="46.42688" lon="-0.35761">
        <ele>114</ele>
        <time>2013-03-19T14:32:28Z</time>
      </trkpt>
      <trkpt lat="46.4269" lon="-0.35768">
        <ele>114</ele>
        <time>2013-03-19T14:32:33Z</time>
      </trkpt>
      <trkpt lat="46.42692" lon="-0.35775">
        <ele>114</ele>
        <time>2013-03-19T14:32:38Z</time>
      </trkpt>
      <trkpt lat="46.42696" lon="-0.35782">
        <ele>114</ele>
        <time>2013-03-19T14:32:43Z</time>
      </trkpt>
      <trkpt lat="46.42699" lon="-0.3579">
        <ele>114</ele>
        <time>2013-03-19T14:32:48Z</time>
      </trkpt>
      <trkpt lat="46.42703" lon="-0.35797">
        <ele>113</ele>
        <time>2013-03-19T14:32:53Z</time>
      </trkpt>
      <trkpt lat="46.42705" lon="-0.35805">
        <ele>113</ele>
        <time>2013-03-19T14:32:58Z</time>
      </trkpt>
      <trkpt lat="46.4271" lon="-0.35811">
        <ele>113</ele>
        <time>2013-03-19T14:33:03Z</time>
      </trkpt>
      <trkpt lat="46.42712" lon="-0.35818">
        <ele>113</ele>
        <time>2013-03-19T14:33:08Z</time>
      </trkpt>
      <trkpt lat="46.42715" lon="-0.35827">
        <ele>113</ele>
        <time>2013-03-19T14:33:13Z</time>
      </trkpt>
      <trkpt lat="46.42716" lon="-0.35837">
        <ele>113</ele>
        <time>2013-03-19T14:33:18Z</time>
      </trkpt>
      <trkpt lat="46.42718" lon="-0.35845">
        <ele>113</ele>
        <time>2013-03-19T14:33:23Z</time>
      </trkpt>
      <trkpt lat="46.42721" lon="-0.35853">
        <ele>113</ele>
        <time>2013-03-19T14:33:28Z</time>
      </trkpt>
      <trkpt lat="46.42725" lon="-0.35862">
        <ele>113</ele>
        <time>2013-03-19T14:33:33Z</time>
      </trkpt>
      <trkpt lat="46.42727" lon="-0.35869">
        <ele>113</ele>
        <time>2013-03-19T14:33:38Z</time>
      </trkpt>
      <trkpt lat="46.42729" lon="-0.35878">
        <ele>113</ele>
        <time>2013-03-19T14:33:43Z</time>
      </trkpt>
      <trkpt lat="46.42732" lon="-0.35886">
        <ele>113</ele>
        <time>2013-03-19T14:33:48Z</time>
      </trkpt>
      <trkpt lat="46.42735" lon="-0.35893">
        <ele>113</ele>
        <time>2013-03-19T14:33:53Z</time>
      </trkpt>
      <trkpt lat="46.42738" lon="-0.359">
        <ele>113</ele>
        <time>2013-03-19T14:33:58Z</time>
      </trkpt>
      <trkpt lat="46.42741" lon="-0.35908">
        <ele>113</ele>
        <time>2013-03-19T14:34:03Z</time>
      </trkpt>
      <trkpt lat="46.42743" lon="-0.35916">
        <ele>113</ele>
        <time>2013-03-19T14:34:08Z</time>
      </trkpt>
      <trkpt lat="46.42747" lon="-0.35921">
        <ele>113</ele>
        <time>2013-03-19T14:34:13Z</time>
      </trkpt>
      <trkpt lat="46.42749" lon="-0.35928">
        <ele>113</ele>
        <time>2013-03-19T14:34:18Z</time>
      </trkpt>
      <trkpt lat="46.42751" lon="-0.35935">
        <ele>113</ele>
        <time>2013-03-19T14:34:23Z</time>
      </trkpt>
      <trkpt lat="46.42755" lon="-0.35942">
        <ele>113</ele>
        <time>2013-03-19T14:34:28Z</time>
      </trkpt>
      <trkpt lat="46.42757" lon="-0.35949">
        <ele>113</ele>
        <time>2013-03-19T14:34:33Z</time>
      </trkpt>
      <trkpt lat="46.42759" lon="-0.35956">
        <ele>113</ele>
        <time>2013-03-19T14:34:38Z</time>
      </trkpt>
      <trkpt lat="46.42763" lon="-0.35958">
        <ele>113</ele>
        <time>2013-03-19T14:34:43Z</time>
      </trkpt>
      <trkpt lat="46.42763" lon="-0.35957">
        <ele>113</ele>
        <time>2013-03-19T14:34:53Z</time>
      </trkpt>
      <trkpt lat="46.42762" lon="-0.35958">
        <ele>113</ele>
        <time>2013-03-19T14:35:03Z</time>
      </trkpt>
      <trkpt lat="46.42762" lon="-0.35959">
        <ele>113</ele>
        <time>2013-03-19T14:35:13Z</time>
      </trkpt>
      <trkpt lat="46.42763" lon="-0.35961">
        <ele>113</ele>
        <time>2013-03-19T14:35:18Z</time>
      </trkpt>
      <trkpt lat="46.42768" lon="-0.35962">
        <ele>113</ele>
        <time>2013-03-19T14:35:23Z</time>
      </trkpt>
      <trkpt lat="46.42772" lon="-0.35963">
        <ele>113</ele>
        <time>2013-03-19T14:35:28Z</time>
      </trkpt>
      <trkpt lat="46.42776" lon="-0.35959">
        <ele>113</ele>
        <time>2013-03-19T14:35:33Z</time>
      </trkpt>
      <trkpt lat="46.4278" lon="-0.35954">
        <ele>113</ele>
        <time>2013-03-19T14:35:38Z</time>
      </trkpt>
      <trkpt lat="46.42785" lon="-0.3595">
        <ele>113</ele>
        <time>2013-03-19T14:35:43Z</time>
      </trkpt>
      <trkpt lat="46.4279" lon="-0.35947">
        <ele>113</ele>
        <time>2013-03-19T14:35:48Z</time>
      </trkpt>
      <trkpt lat="46.42794" lon="-0.35944">
        <ele>113</ele>
        <time>2013-03-19T14:35:53Z</time>
      </trkpt>
      <trkpt lat="46.42799" lon="-0.35938">
        <ele>113</ele>
        <time>2013-03-19T14:35:58Z</time>
      </trkpt>
      <trkpt lat="46.42802" lon="-0.35936">
        <ele>113</ele>
        <time>2013-03-19T14:36:03Z</time>
      </trkpt>
      <trkpt lat="46.42807" lon="-0.35931">
        <ele>113</ele>
        <time>2013-03-19T14:36:08Z</time>
      </trkpt>
      <trkpt lat="46.42814" lon="-0.35928">
        <ele>113</ele>
        <time>2013-03-19T14:36:13Z</time>
      </trkpt>
      <trkpt lat="46.42816" lon="-0.35923">
        <ele>113</ele>
        <time>2013-03-19T14:36:18Z</time>
      </trkpt>
      <trkpt lat="46.42821" lon="-0.3592">
        <ele>113</ele>
        <time>2013-03-19T14:36:23Z</time>
      </trkpt>
      <trkpt lat="46.42827" lon="-0.35915">
        <ele>113</ele>
        <time>2013-03-19T14:36:28Z</time>
      </trkpt>
      <trkpt lat="46.42831" lon="-0.3591">
        <ele>113</ele>
        <time>2013-03-19T14:36:33Z</time>
      </trkpt>
      <trkpt lat="46.42838" lon="-0.35904">
        <ele>113</ele>
        <time>2013-03-19T14:36:38Z</time>
      </trkpt>
      <trkpt lat="46.42842" lon="-0.359">
        <ele>113</ele>
        <time>2013-03-19T14:36:43Z</time>
      </trkpt>
      <trkpt lat="46.42847" lon="-0.35895">
        <ele>113</ele>
        <time>2013-03-19T14:36:48Z</time>
      </trkpt>
      <trkpt lat="46.42852" lon="-0.3589">
        <ele>113</ele>
        <time>2013-03-19T14:36:53Z</time>
      </trkpt>
      <trkpt lat="46.42857" lon="-0.35888">
        <ele>113</ele>
        <time>2013-03-19T14:36:58Z</time>
      </trkpt>
      <trkpt lat="46.42864" lon="-0.35894">
        <ele>113</ele>
        <time>2013-03-19T14:37:03Z</time>
      </trkpt>
      <trkpt lat="46.42867" lon="-0.35901">
        <ele>113</ele>
        <time>2013-03-19T14:37:08Z</time>
      </trkpt>
      <trkpt lat="46.42871" lon="-0.35909">
        <ele>113</ele>
        <time>2013-03-19T14:37:13Z</time>
      </trkpt>
      <trkpt lat="46.42875" lon="-0.35914">
        <ele>106</ele>
        <time>2013-03-19T14:37:18Z</time>
      </trkpt>
      <trkpt lat="46.4288" lon="-0.35921">
        <ele>106</ele>
        <time>2013-03-19T14:37:23Z</time>
      </trkpt>
      <trkpt lat="46.42883" lon="-0.35926">
        <ele>106</ele>
        <time>2013-03-19T14:37:28Z</time>
      </trkpt>
      <trkpt lat="46.42886" lon="-0.35934">
        <ele>106</ele>
        <time>2013-03-19T14:37:33Z</time>
      </trkpt>
      <trkpt lat="46.42892" lon="-0.35937">
        <ele>106</ele>
        <time>2013-03-19T14:37:38Z</time>
      </trkpt>
      <trkpt lat="46.42895" lon="-0.35943">
        <ele>106</ele>
        <time>2013-03-19T14:37:43Z</time>
      </trkpt>
      <trkpt lat="46.42897" lon="-0.35951">
        <ele>106</ele>
        <time>2013-03-19T14:37:48Z</time>
      </trkpt>
      <trkpt lat="46.42899" lon="-0.35956">
        <ele>106</ele>
        <time>2013-03-19T14:37:53Z</time>
      </trkpt>
      <trkpt lat="46.42903" lon="-0.35961">
        <ele>111</ele>
        <time>2013-03-19T14:37:58Z</time>
      </trkpt>
      <trkpt lat="46.42906" lon="-0.35968">
        <ele>111</ele>
        <time>2013-03-19T14:38:03Z</time>
      </trkpt>
      <trkpt lat="46.42909" lon="-0.35975">
        <ele>111</ele>
        <time>2013-03-19T14:38:08Z</time>
      </trkpt>
      <trkpt lat="46.42912" lon="-0.35982">
        <ele>111</ele>
        <time>2013-03-19T14:38:13Z</time>
      </trkpt>
      <trkpt lat="46.42915" lon="-0.35988">
        <ele>111</ele>
        <time>2013-03-19T14:38:18Z</time>
      </trkpt>
      <trkpt lat="46.42919" lon="-0.35993">
        <ele>111</ele>
        <time>2013-03-19T14:38:23Z</time>
      </trkpt>
      <trkpt lat="46.42922" lon="-0.35998">
        <ele>111</ele>
        <time>2013-03-19T14:38:28Z</time>
      </trkpt>
      <trkpt lat="46.42923" lon="-0.36">
        <ele>111</ele>
        <time>2013-03-19T14:38:33Z</time>
      </trkpt>
      <trkpt lat="46.42927" lon="-0.36005">
        <ele>111</ele>
        <time>2013-03-19T14:38:38Z</time>
      </trkpt>
      <trkpt lat="46.42931" lon="-0.36009">
        <ele>111</ele>
        <time>2013-03-19T14:38:43Z</time>
      </trkpt>
      <trkpt lat="46.42934" lon="-0.36014">
        <ele>111</ele>
        <time>2013-03-19T14:38:48Z</time>
      </trkpt>
      <trkpt lat="46.42938" lon="-0.36019">
        <ele>111</ele>
        <time>2013-03-19T14:38:53Z</time>
      </trkpt>
      <trkpt lat="46.42944" lon="-0.36024">
        <ele>111</ele>
        <time>2013-03-19T14:38:58Z</time>
      </trkpt>
      <trkpt lat="46.42947" lon="-0.36031">
        <ele>111</ele>
        <time>2013-03-19T14:39:03Z</time>
      </trkpt>
      <trkpt lat="46.4295" lon="-0.36036">
        <ele>111</ele>
        <time>2013-03-19T14:39:08Z</time>
      </trkpt>
      <trkpt lat="46.42954" lon="-0.36041">
        <ele>111</ele>
        <time>2013-03-19T14:39:13Z</time>
      </trkpt>
      <trkpt lat="46.42956" lon="-0.36046">
        <ele>109</ele>
        <time>2013-03-19T14:39:18Z</time>
      </trkpt>
      <trkpt lat="46.42959" lon="-0.36054">
        <ele>98</ele>
        <time>2013-03-19T14:39:23Z</time>
      </trkpt>
      <trkpt lat="46.42963" lon="-0.36059">
        <ele>98</ele>
        <time>2013-03-19T14:39:28Z</time>
      </trkpt>
      <trkpt lat="46.42965" lon="-0.36063">
        <ele>98</ele>
        <time>2013-03-19T14:39:33Z</time>
      </trkpt>
      <trkpt lat="46.42968" lon="-0.3607">
        <ele>98</ele>
        <time>2013-03-19T14:39:38Z</time>
      </trkpt>
      <trkpt lat="46.42971" lon="-0.36075">
        <ele>98</ele>
        <time>2013-03-19T14:39:43Z</time>
      </trkpt>
      <trkpt lat="46.42975" lon="-0.36081">
        <ele>98</ele>
        <time>2013-03-19T14:39:48Z</time>
      </trkpt>
      <trkpt lat="46.42978" lon="-0.36087">
        <ele>98</ele>
        <time>2013-03-19T14:39:53Z</time>
      </trkpt>
      <trkpt lat="46.42981" lon="-0.36094">
        <ele>98</ele>
        <time>2013-03-19T14:39:58Z</time>
      </trkpt>
      <trkpt lat="46.42984" lon="-0.36099">
        <ele>98</ele>
        <time>2013-03-19T14:40:03Z</time>
      </trkpt>
      <trkpt lat="46.42988" lon="-0.36106">
        <ele>98</ele>
        <time>2013-03-19T14:40:08Z</time>
      </trkpt>
      <trkpt lat="46.42989" lon="-0.36115">
        <ele>98</ele>
        <time>2013-03-19T14:40:13Z</time>
      </trkpt>
      <trkpt lat="46.42992" lon="-0.3612">
        <ele>98</ele>
        <time>2013-03-19T14:40:18Z</time>
      </trkpt>
      <trkpt lat="46.42993" lon="-0.36128">
        <ele>102</ele>
        <time>2013-03-19T14:40:23Z</time>
      </trkpt>
      <trkpt lat="46.42996" lon="-0.36134">
        <ele>102</ele>
        <time>2013-03-19T14:40:28Z</time>
      </trkpt>
      <trkpt lat="46.42997" lon="-0.36141">
        <ele>102</ele>
        <time>2013-03-19T14:40:33Z</time>
      </trkpt>
      <trkpt lat="46.42999" lon="-0.36148">
        <ele>102</ele>
        <time>2013-03-19T14:40:38Z</time>
      </trkpt>
      <trkpt lat="46.43" lon="-0.36155">
        <ele>102</ele>
        <time>2013-03-19T14:40:43Z</time>
      </trkpt>
      <trkpt lat="46.43003" lon="-0.36163">
        <ele>102</ele>
        <time>2013-03-19T14:40:48Z</time>
      </trkpt>
      <trkpt lat="46.43005" lon="-0.36169">
        <ele>102</ele>
        <time>2013-03-19T14:40:53Z</time>
      </trkpt>
      <trkpt lat="46.43007" lon="-0.36173">
        <ele>102</ele>
        <time>2013-03-19T14:40:58Z</time>
      </trkpt>
      <trkpt lat="46.43009" lon="-0.36179">
        <ele>102</ele>
        <time>2013-03-19T14:41:03Z</time>
      </trkpt>
      <trkpt lat="46.43011" lon="-0.36184">
        <ele>102</ele>
        <time>2013-03-19T14:41:08Z</time>
      </trkpt>
      <trkpt lat="46.43014" lon="-0.36192">
        <ele>102</ele>
        <time>2013-03-19T14:41:13Z</time>
      </trkpt>
      <trkpt lat="46.43018" lon="-0.36199">
        <ele>102</ele>
        <time>2013-03-19T14:41:18Z</time>
      </trkpt>
      <trkpt lat="46.4302" lon="-0.36204">
        <ele>102</ele>
        <time>2013-03-19T14:41:23Z</time>
      </trkpt>
      <trkpt lat="46.43023" lon="-0.3621">
        <ele>106</ele>
        <time>2013-03-19T14:41:28Z</time>
      </trkpt>
      <trkpt lat="46.43026" lon="-0.36214">
        <ele>106</ele>
        <time>2013-03-19T14:41:33Z</time>
      </trkpt>
      <trkpt lat="46.43028" lon="-0.36219">
        <ele>106</ele>
        <time>2013-03-19T14:41:38Z</time>
      </trkpt>
      <trkpt lat="46.43031" lon="-0.36224">
        <ele>106</ele>
        <time>2013-03-19T14:41:43Z</time>
      </trkpt>
      <trkpt lat="46.43035" lon="-0.36231">
        <ele>106</ele>
        <time>2013-03-19T14:41:48Z</time>
      </trkpt>
      <trkpt lat="46.43038" lon="-0.36237">
        <ele>106</ele>
        <time>2013-03-19T14:41:53Z</time>
      </trkpt>
      <trkpt lat="46.4304" lon="-0.36241">
        <ele>106</ele>
        <time>2013-03-19T14:41:58Z</time>
      </trkpt>
      <trkpt lat="46.43041" lon="-0.36245">
        <ele>106</ele>
        <time>2013-03-19T14:42:03Z</time>
      </trkpt>
      <trkpt lat="46.43042" lon="-0.36249">
        <ele>100</ele>
        <time>2013-03-19T14:42:08Z</time>
      </trkpt>
      <trkpt lat="46.43045" lon="-0.36256">
        <ele>100</ele>
        <time>2013-03-19T14:42:13Z</time>
      </trkpt>
      <trkpt lat="46.43048" lon="-0.36264">
        <ele>100</ele>
        <time>2013-03-19T14:42:18Z</time>
      </trkpt>
      <trkpt lat="46.43052" lon="-0.3627">
        <ele>100</ele>
        <time>2013-03-19T14:42:23Z</time>
      </trkpt>
      <trkpt lat="46.43055" lon="-0.36275">
        <ele>100</ele>
        <time>2013-03-19T14:42:28Z</time>
      </trkpt>
      <trkpt lat="46.43057" lon="-0.3628">
        <ele>100</ele>
        <time>2013-03-19T14:42:33Z</time>
      </trkpt>
      <trkpt lat="46.4306" lon="-0.36285">
        <ele>100</ele>
        <time>2013-03-19T14:42:38Z</time>
      </trkpt>
      <trkpt lat="46.43063" lon="-0.36292">
        <ele>103</ele>
        <time>2013-03-19T14:42:43Z</time>
      </trkpt>
      <trkpt lat="46.43068" lon="-0.36301">
        <ele>103</ele>
        <time>2013-03-19T14:42:48Z</time>
      </trkpt>
      <trkpt lat="46.43071" lon="-0.36308">
        <ele>103</ele>
        <time>2013-03-19T14:42:53Z</time>
      </trkpt>
      <trkpt lat="46.43074" lon="-0.36313">
        <ele>103</ele>
        <time>2013-03-19T14:42:58Z</time>
      </trkpt>
      <trkpt lat="46.43078" lon="-0.36319">
        <ele>103</ele>
        <time>2013-03-19T14:43:03Z</time>
      </trkpt>
      <trkpt lat="46.43081" lon="-0.36324">
        <ele>103</ele>
        <time>2013-03-19T14:43:08Z</time>
      </trkpt>
      <trkpt lat="46.43083" lon="-0.36325">
        <ele>103</ele>
        <time>2013-03-19T14:43:13Z</time>
      </trkpt>
      <trkpt lat="46.43088" lon="-0.36331">
        <ele>103</ele>
        <time>2013-03-19T14:43:18Z</time>
      </trkpt>
      <trkpt lat="46.43092" lon="-0.36337">
        <ele>103</ele>
        <time>2013-03-19T14:43:23Z</time>
      </trkpt>
      <trkpt lat="46.43095" lon="-0.36343">
        <ele>103</ele>
        <time>2013-03-19T14:43:28Z</time>
      </trkpt>
      <trkpt lat="46.43097" lon="-0.36349">
        <ele>103</ele>
        <time>2013-03-19T14:43:33Z</time>
      </trkpt>
      <trkpt lat="46.43099" lon="-0.36352">
        <ele>103</ele>
        <time>2013-03-19T14:43:38Z</time>
      </trkpt>
      <trkpt lat="46.43103" lon="-0.36356">
        <ele>103</ele>
        <time>2013-03-19T14:43:43Z</time>
      </trkpt>
      <trkpt lat="46.43105" lon="-0.3636">
        <ele>103</ele>
        <time>2013-03-19T14:43:48Z</time>
      </trkpt>
      <trkpt lat="46.43109" lon="-0.36363">
        <ele>103</ele>
        <time>2013-03-19T14:43:53Z</time>
      </trkpt>
      <trkpt lat="46.4311" lon="-0.36366">
        <ele>103</ele>
        <time>2013-03-19T14:43:58Z</time>
      </trkpt>
      <trkpt lat="46.43111" lon="-0.36368">
        <ele>103</ele>
        <time>2013-03-19T14:44:03Z</time>
      </trkpt>
      <trkpt lat="46.43111" lon="-0.36369">
        <ele>103</ele>
        <time>2013-03-19T14:44:08Z</time>
      </trkpt>
      <trkpt lat="46.43112" lon="-0.36371">
        <ele>103</ele>
        <time>2013-03-19T14:44:13Z</time>
      </trkpt>
      <trkpt lat="46.43114" lon="-0.36373">
        <ele>103</ele>
        <time>2013-03-19T14:44:18Z</time>
      </trkpt>
      <trkpt lat="46.43118" lon="-0.3638">
        <ele>105</ele>
        <time>2013-03-19T14:44:23Z</time>
      </trkpt>
      <trkpt lat="46.43122" lon="-0.36384">
        <ele>105</ele>
        <time>2013-03-19T14:44:28Z</time>
      </trkpt>
      <trkpt lat="46.43125" lon="-0.36385">
        <ele>105</ele>
        <time>2013-03-19T14:44:33Z</time>
      </trkpt>
      <trkpt lat="46.43125" lon="-0.36385">
        <ele>105</ele>
        <time>2013-03-19T14:44:38Z</time>
      </trkpt>
      <trkpt lat="46.43125" lon="-0.36385">
        <ele>99</ele>
        <time>2013-03-19T14:44:43Z</time>
      </trkpt>
      <trkpt lat="46.43127" lon="-0.36383">
        <ele>99</ele>
        <time>2013-03-19T14:45:03Z</time>
      </trkpt>
      <trkpt lat="46.43128" lon="-0.36383">
        <ele>99</ele>
        <time>2013-03-19T14:45:08Z</time>
      </trkpt>
      <trkpt lat="46.43128" lon="-0.36383">
        <ele>99</ele>
        <time>2013-03-19T14:45:18Z</time>
      </trkpt>
      <trkpt lat="46.4313" lon="-0.36382">
        <ele>99</ele>
        <time>2013-03-19T14:45:58Z</time>
      </trkpt>
      <trkpt lat="46.4313" lon="-0.36383">
        <ele>99</ele>
        <time>2013-03-19T14:46:03Z</time>
      </trkpt>
      <trkpt lat="46.43131" lon="-0.36383">
        <ele>99</ele>
        <time>2013-03-19T14:46:08Z</time>
      </trkpt>
      <trkpt lat="46.43132" lon="-0.36381">
        <ele>99</ele>
        <time>2013-03-19T14:46:13Z</time>
      </trkpt>
      <trkpt lat="46.43134" lon="-0.36379">
        <ele>99</ele>
        <time>2013-03-19T14:46:18Z</time>
      </trkpt>
      <trkpt lat="46.43134" lon="-0.3638">
        <ele>99</ele>
        <time>2013-03-19T14:46:23Z</time>
      </trkpt>
      <trkpt lat="46.43134" lon="-0.36381">
        <ele>99</ele>
        <time>2013-03-19T14:46:28Z</time>
      </trkpt>
      <trkpt lat="46.43134" lon="-0.36381">
        <ele>99</ele>
        <time>2013-03-19T14:46:58Z</time>
      </trkpt>
      <trkpt lat="46.43136" lon="-0.36381">
        <ele>99</ele>
        <time>2013-03-19T14:47:08Z</time>
      </trkpt>
      <trkpt lat="46.43136" lon="-0.36381">
        <ele>99</ele>
        <time>2013-03-19T14:47:13Z</time>
      </trkpt>
      <trkpt lat="46.43136" lon="-0.36382">
        <ele>99</ele>
        <time>2013-03-19T14:47:18Z</time>
      </trkpt>
      <trkpt lat="46.43136" lon="-0.36382">
        <ele>99</ele>
        <time>2013-03-19T14:47:23Z</time>
      </trkpt>
      <trkpt lat="46.43136" lon="-0.36378">
        <ele>99</ele>
        <time>2013-03-19T14:47:28Z</time>
      </trkpt>
      <trkpt lat="46.43138" lon="-0.36374">
        <ele>99</ele>
        <time>2013-03-19T14:47:33Z</time>
      </trkpt>
      <trkpt lat="46.4314" lon="-0.3637">
        <ele>99</ele>
        <time>2013-03-19T14:47:38Z</time>
      </trkpt>
      <trkpt lat="46.43144" lon="-0.36367">
        <ele>99</ele>
        <time>2013-03-19T14:47:43Z</time>
      </trkpt>
      <trkpt lat="46.43145" lon="-0.36363">
        <ele>99</ele>
        <time>2013-03-19T14:47:48Z</time>
      </trkpt>
      <trkpt lat="46.43147" lon="-0.36359">
        <ele>99</ele>
        <time>2013-03-19T14:47:53Z</time>
      </trkpt>
      <trkpt lat="46.43151" lon="-0.36354">
        <ele>99</ele>
        <time>2013-03-19T14:47:58Z</time>
      </trkpt>
      <trkpt lat="46.43154" lon="-0.36349">
        <ele>99</ele>
        <time>2013-03-19T14:48:03Z</time>
      </trkpt>
      <trkpt lat="46.43157" lon="-0.36346">
        <ele>99</ele>
        <time>2013-03-19T14:48:08Z</time>
      </trkpt>
      <trkpt lat="46.43161" lon="-0.36343">
        <ele>99</ele>
        <time>2013-03-19T14:48:13Z</time>
      </trkpt>
      <trkpt lat="46.43164" lon="-0.36339">
        <ele>99</ele>
        <time>2013-03-19T14:48:18Z</time>
      </trkpt>
      <trkpt lat="46.43169" lon="-0.36333">
        <ele>99</ele>
        <time>2013-03-19T14:48:23Z</time>
      </trkpt>
      <trkpt lat="46.43173" lon="-0.36327">
        <ele>99</ele>
        <time>2013-03-19T14:48:28Z</time>
      </trkpt>
      <trkpt lat="46.43177" lon="-0.36322">
        <ele>99</ele>
        <time>2013-03-19T14:48:33Z</time>
      </trkpt>
      <trkpt lat="46.43181" lon="-0.36317">
        <ele>99</ele>
        <time>2013-03-19T14:48:38Z</time>
      </trkpt>
      <trkpt lat="46.43184" lon="-0.36312">
        <ele>99</ele>
        <time>2013-03-19T14:48:43Z</time>
      </trkpt>
      <trkpt lat="46.43187" lon="-0.36309">
        <ele>99</ele>
        <time>2013-03-19T14:48:48Z</time>
      </trkpt>
      <trkpt lat="46.4319" lon="-0.36305">
        <ele>99</ele>
        <time>2013-03-19T14:48:53Z</time>
      </trkpt>
      <trkpt lat="46.43191" lon="-0.36299">
        <ele>99</ele>
        <time>2013-03-19T14:48:58Z</time>
      </trkpt>
      <trkpt lat="46.43191" lon="-0.36292">
        <ele>99</ele>
        <time>2013-03-19T14:49:03Z</time>
      </trkpt>
      <trkpt lat="46.43191" lon="-0.36285">
        <ele>99</ele>
        <time>2013-03-19T14:49:08Z</time>
      </trkpt>
      <trkpt lat="46.43192" lon="-0.36279">
        <ele>99</ele>
        <time>2013-03-19T14:49:13Z</time>
      </trkpt>
      <trkpt lat="46.43193" lon="-0.36272">
        <ele>99</ele>
        <time>2013-03-19T14:49:18Z</time>
      </trkpt>
      <trkpt lat="46.43193" lon="-0.36266">
        <ele>99</ele>
        <time>2013-03-19T14:49:23Z</time>
      </trkpt>
      <trkpt lat="46.43193" lon="-0.3626">
        <ele>99</ele>
        <time>2013-03-19T14:49:28Z</time>
      </trkpt>
      <trkpt lat="46.43192" lon="-0.36253">
        <ele>99</ele>
        <time>2013-03-19T14:49:33Z</time>
      </trkpt>
      <trkpt lat="46.43191" lon="-0.36246">
        <ele>99</ele>
        <time>2013-03-19T14:49:38Z</time>
      </trkpt>
      <trkpt lat="46.43192" lon="-0.3624">
        <ele>99</ele>
        <time>2013-03-19T14:49:43Z</time>
      </trkpt>
      <trkpt lat="46.43193" lon="-0.36233">
        <ele>99</ele>
        <time>2013-03-19T14:49:48Z</time>
      </trkpt>
      <trkpt lat="46.43193" lon="-0.36229">
        <ele>99</ele>
        <time>2013-03-19T14:49:53Z</time>
      </trkpt>
      <trkpt lat="46.43192" lon="-0.36223">
        <ele>99</ele>
        <time>2013-03-19T14:49:58Z</time>
      </trkpt>
      <trkpt lat="46.43193" lon="-0.36216">
        <ele>99</ele>
        <time>2013-03-19T14:50:03Z</time>
      </trkpt>
      <trkpt lat="46.43194" lon="-0.36208">
        <ele>99</ele>
        <time>2013-03-19T14:50:08Z</time>
      </trkpt>
      <trkpt lat="46.43195" lon="-0.362">
        <ele>99</ele>
        <time>2013-03-19T14:50:13Z</time>
      </trkpt>
      <trkpt lat="46.43195" lon="-0.36192">
        <ele>99</ele>
        <time>2013-03-19T14:50:18Z</time>
      </trkpt>
      <trkpt lat="46.43195" lon="-0.36185">
        <ele>99</ele>
        <time>2013-03-19T14:50:23Z</time>
      </trkpt>
      <trkpt lat="46.43191" lon="-0.36177">
        <ele>99</ele>
        <time>2013-03-19T14:50:28Z</time>
      </trkpt>
      <trkpt lat="46.43192" lon="-0.36172">
        <ele>99</ele>
        <time>2013-03-19T14:50:33Z</time>
      </trkpt>
      <trkpt lat="46.43189" lon="-0.36165">
        <ele>99</ele>
        <time>2013-03-19T14:50:38Z</time>
      </trkpt>
      <trkpt lat="46.43189" lon="-0.36158">
        <ele>99</ele>
        <time>2013-03-19T14:50:43Z</time>
      </trkpt>
      <trkpt lat="46.43187" lon="-0.3615">
        <ele>99</ele>
        <time>2013-03-19T14:50:48Z</time>
      </trkpt>
      <trkpt lat="46.43186" lon="-0.36144">
        <ele>99</ele>
        <time>2013-03-19T14:50:53Z</time>
      </trkpt>
      <trkpt lat="46.43187" lon="-0.36138">
        <ele>99</ele>
        <time>2013-03-19T14:50:58Z</time>
      </trkpt>
      <trkpt lat="46.43187" lon="-0.36129">
        <ele>99</ele>
        <time>2013-03-19T14:51:03Z</time>
      </trkpt>
      <trkpt lat="46.43186" lon="-0.36122">
        <ele>98</ele>
        <time>2013-03-19T14:51:08Z</time>
      </trkpt>
      <trkpt lat="46.43187" lon="-0.36115">
        <ele>98</ele>
        <time>2013-03-19T14:51:13Z</time>
      </trkpt>
      <trkpt lat="46.43187" lon="-0.36112">
        <ele>98</ele>
        <time>2013-03-19T14:51:18Z</time>
      </trkpt>
      <trkpt lat="46.43187" lon="-0.36106">
        <ele>98</ele>
        <time>2013-03-19T14:51:23Z</time>
      </trkpt>
      <trkpt lat="46.43187" lon="-0.36093">
        <ele>98</ele>
        <time>2013-03-19T14:51:28Z</time>
      </trkpt>
      <trkpt lat="46.43187" lon="-0.36086">
        <ele>98</ele>
        <time>2013-03-19T14:51:33Z</time>
      </trkpt>
      <trkpt lat="46.43188" lon="-0.36076">
        <ele>98</ele>
        <time>2013-03-19T14:51:38Z</time>
      </trkpt>
      <trkpt lat="46.43187" lon="-0.3607">
        <ele>98</ele>
        <time>2013-03-19T14:51:43Z</time>
      </trkpt>
      <trkpt lat="46.43188" lon="-0.36063">
        <ele>98</ele>
        <time>2013-03-19T14:51:48Z</time>
      </trkpt>
      <trkpt lat="46.43187" lon="-0.36056">
        <ele>98</ele>
        <time>2013-03-19T14:51:53Z</time>
      </trkpt>
      <trkpt lat="46.43187" lon="-0.36047">
        <ele>98</ele>
        <time>2013-03-19T14:51:58Z</time>
      </trkpt>
      <trkpt lat="46.43187" lon="-0.3604">
        <ele>96</ele>
        <time>2013-03-19T14:52:03Z</time>
      </trkpt>
      <trkpt lat="46.43188" lon="-0.36033">
        <ele>96</ele>
        <time>2013-03-19T14:52:08Z</time>
      </trkpt>
      <trkpt lat="46.43187" lon="-0.36026">
        <ele>96</ele>
        <time>2013-03-19T14:52:13Z</time>
      </trkpt>
      <trkpt lat="46.43185" lon="-0.36017">
        <ele>96</ele>
        <time>2013-03-19T14:52:18Z</time>
      </trkpt>
      <trkpt lat="46.43185" lon="-0.3601">
        <ele>96</ele>
        <time>2013-03-19T14:52:23Z</time>
      </trkpt>
      <trkpt lat="46.43185" lon="-0.36">
        <ele>96</ele>
        <time>2013-03-19T14:52:28Z</time>
      </trkpt>
      <trkpt lat="46.43185" lon="-0.35994">
        <ele>96</ele>
        <time>2013-03-19T14:52:33Z</time>
      </trkpt>
      <trkpt lat="46.43184" lon="-0.35981">
        <ele>96</ele>
        <time>2013-03-19T14:52:38Z</time>
      </trkpt>
      <trkpt lat="46.43183" lon="-0.35976">
        <ele>96</ele>
        <time>2013-03-19T14:52:43Z</time>
      </trkpt>
      <trkpt lat="46.43183" lon="-0.35971">
        <ele>96</ele>
        <time>2013-03-19T14:52:48Z</time>
      </trkpt>
      <trkpt lat="46.43182" lon="-0.35963">
        <ele>96</ele>
        <time>2013-03-19T14:52:53Z</time>
      </trkpt>
      <trkpt lat="46.43182" lon="-0.35956">
        <ele>93</ele>
        <time>2013-03-19T14:52:58Z</time>
      </trkpt>
      <trkpt lat="46.43182" lon="-0.35949">
        <ele>93</ele>
        <time>2013-03-19T14:53:03Z</time>
      </trkpt>
      <trkpt lat="46.43183" lon="-0.35941">
        <ele>93</ele>
        <time>2013-03-19T14:53:08Z</time>
      </trkpt>
      <trkpt lat="46.43185" lon="-0.35935">
        <ele>93</ele>
        <time>2013-03-19T14:53:13Z</time>
      </trkpt>
      <trkpt lat="46.43188" lon="-0.3593">
        <ele>93</ele>
        <time>2013-03-19T14:53:18Z</time>
      </trkpt>
      <trkpt lat="46.4319" lon="-0.35924">
        <ele>93</ele>
        <time>2013-03-19T14:53:23Z</time>
      </trkpt>
      <trkpt lat="46.43192" lon="-0.35918">
        <ele>93</ele>
        <time>2013-03-19T14:53:28Z</time>
      </trkpt>
      <trkpt lat="46.43197" lon="-0.35914">
        <ele>93</ele>
        <time>2013-03-19T14:53:33Z</time>
      </trkpt>
      <trkpt lat="46.43199" lon="-0.35907">
        <ele>93</ele>
        <time>2013-03-19T14:53:38Z</time>
      </trkpt>
      <trkpt lat="46.43201" lon="-0.35897">
        <ele>93</ele>
        <time>2013-03-19T14:53:43Z</time>
      </trkpt>
      <trkpt lat="46.43205" lon="-0.35891">
        <ele>93</ele>
        <time>2013-03-19T14:53:48Z</time>
      </trkpt>
      <trkpt lat="46.43208" lon="-0.35884">
        <ele>93</ele>
        <time>2013-03-19T14:53:53Z</time>
      </trkpt>
      <trkpt lat="46.43211" lon="-0.35877">
        <ele>95</ele>
        <time>2013-03-19T14:53:58Z</time>
      </trkpt>
      <trkpt lat="46.43212" lon="-0.35872">
        <ele>93</ele>
        <time>2013-03-19T14:54:03Z</time>
      </trkpt>
      <trkpt lat="46.43216" lon="-0.35864">
        <ele>93</ele>
        <time>2013-03-19T14:54:08Z</time>
      </trkpt>
      <trkpt lat="46.43218" lon="-0.35859">
        <ele>93</ele>
        <time>2013-03-19T14:54:13Z</time>
      </trkpt>
      <trkpt lat="46.43221" lon="-0.35851">
        <ele>93</ele>
        <time>2013-03-19T14:54:18Z</time>
      </trkpt>
      <trkpt lat="46.43223" lon="-0.35846">
        <ele>93</ele>
        <time>2013-03-19T14:54:23Z</time>
      </trkpt>
      <trkpt lat="46.43226" lon="-0.35839">
        <ele>93</ele>
        <time>2013-03-19T14:54:28Z</time>
      </trkpt>
      <trkpt lat="46.43227" lon="-0.35832">
        <ele>93</ele>
        <time>2013-03-19T14:54:33Z</time>
      </trkpt>
      <trkpt lat="46.4323" lon="-0.35825">
        <ele>93</ele>
        <time>2013-03-19T14:54:38Z</time>
      </trkpt>
      <trkpt lat="46.43233" lon="-0.35818">
        <ele>93</ele>
        <time>2013-03-19T14:54:43Z</time>
      </trkpt>
      <trkpt lat="46.43235" lon="-0.35811">
        <ele>93</ele>
        <time>2013-03-19T14:54:48Z</time>
      </trkpt>
      <trkpt lat="46.43237" lon="-0.35803">
        <ele>93</ele>
        <time>2013-03-19T14:54:53Z</time>
      </trkpt>
      <trkpt lat="46.4324" lon="-0.35796">
        <ele>93</ele>
        <time>2013-03-19T14:54:58Z</time>
      </trkpt>
      <trkpt lat="46.43242" lon="-0.35788">
        <ele>90</ele>
        <time>2013-03-19T14:55:03Z</time>
      </trkpt>
      <trkpt lat="46.43243" lon="-0.35781">
        <ele>90</ele>
        <time>2013-03-19T14:55:08Z</time>
      </trkpt>
      <trkpt lat="46.43247" lon="-0.35774">
        <ele>90</ele>
        <time>2013-03-19T14:55:13Z</time>
      </trkpt>
      <trkpt lat="46.43248" lon="-0.35766">
        <ele>90</ele>
        <time>2013-03-19T14:55:18Z</time>
      </trkpt>
      <trkpt lat="46.4325" lon="-0.3576">
        <ele>90</ele>
        <time>2013-03-19T14:55:23Z</time>
      </trkpt>
      <trkpt lat="46.43252" lon="-0.35752">
        <ele>90</ele>
        <time>2013-03-19T14:55:28Z</time>
      </trkpt>
      <trkpt lat="46.43255" lon="-0.35745">
        <ele>90</ele>
        <time>2013-03-19T14:55:33Z</time>
      </trkpt>
      <trkpt lat="46.43255" lon="-0.35738">
        <ele>90</ele>
        <time>2013-03-19T14:55:38Z</time>
      </trkpt>
      <trkpt lat="46.43257" lon="-0.35732">
        <ele>90</ele>
        <time>2013-03-19T14:55:43Z</time>
      </trkpt>
      <trkpt lat="46.43258" lon="-0.35732">
        <ele>90</ele>
        <time>2013-03-19T14:55:48Z</time>
      </trkpt>
      <trkpt lat="46.43258" lon="-0.35732">
        <ele>90</ele>
        <time>2013-03-19T14:55:53Z</time>
      </trkpt>
      <trkpt lat="46.43259" lon="-0.35732">
        <ele>90</ele>
        <time>2013-03-19T14:55:58Z</time>
      </trkpt>
      <trkpt lat="46.43261" lon="-0.35731">
        <ele>90</ele>
        <time>2013-03-19T14:56:08Z</time>
      </trkpt>
      <trkpt lat="46.43261" lon="-0.35731">
        <ele>90</ele>
        <time>2013-03-19T14:56:13Z</time>
      </trkpt>
      <trkpt lat="46.4326" lon="-0.35732">
        <ele>90</ele>
        <time>2013-03-19T14:56:18Z</time>
      </trkpt>
      <trkpt lat="46.43259" lon="-0.35732">
        <ele>90</ele>
        <time>2013-03-19T14:56:23Z</time>
      </trkpt>
      <trkpt lat="46.43263" lon="-0.35728">
        <ele>90</ele>
        <time>2013-03-19T14:56:53Z</time>
      </trkpt>
      <trkpt lat="46.43265" lon="-0.35729">
        <ele>90</ele>
        <time>2013-03-19T14:56:58Z</time>
      </trkpt>
      <trkpt lat="46.43266" lon="-0.35732">
        <ele>90</ele>
        <time>2013-03-19T14:57:03Z</time>
      </trkpt>
      <trkpt lat="46.4327" lon="-0.35736">
        <ele>90</ele>
        <time>2013-03-19T14:57:08Z</time>
      </trkpt>
      <trkpt lat="46.43274" lon="-0.3574">
        <ele>90</ele>
        <time>2013-03-19T14:57:13Z</time>
      </trkpt>
      <trkpt lat="46.43277" lon="-0.35745">
        <ele>90</ele>
        <time>2013-03-19T14:57:18Z</time>
      </trkpt>
      <trkpt lat="46.43281" lon="-0.35749">
        <ele>90</ele>
        <time>2013-03-19T14:57:23Z</time>
      </trkpt>
      <trkpt lat="46.43284" lon="-0.35753">
        <ele>90</ele>
        <time>2013-03-19T14:57:28Z</time>
      </trkpt>
      <trkpt lat="46.43288" lon="-0.35758">
        <ele>90</ele>
        <time>2013-03-19T14:57:33Z</time>
      </trkpt>
      <trkpt lat="46.43291" lon="-0.35761">
        <ele>90</ele>
        <time>2013-03-19T14:57:38Z</time>
      </trkpt>
      <trkpt lat="46.43294" lon="-0.35766">
        <ele>88</ele>
        <time>2013-03-19T14:57:43Z</time>
      </trkpt>
      <trkpt lat="46.43298" lon="-0.35771">
        <ele>88</ele>
        <time>2013-03-19T14:57:48Z</time>
      </trkpt>
      <trkpt lat="46.43302" lon="-0.35776">
        <ele>88</ele>
        <time>2013-03-19T14:57:53Z</time>
      </trkpt>
      <trkpt lat="46.43306" lon="-0.35781">
        <ele>88</ele>
        <time>2013-03-19T14:57:58Z</time>
      </trkpt>
      <trkpt lat="46.4331" lon="-0.35786">
        <ele>88</ele>
        <time>2013-03-19T14:58:03Z</time>
      </trkpt>
      <trkpt lat="46.43314" lon="-0.3579">
        <ele>88</ele>
        <time>2013-03-19T14:58:08Z</time>
      </trkpt>
      <trkpt lat="46.43318" lon="-0.35795">
        <ele>92</ele>
        <time>2013-03-19T14:58:13Z</time>
      </trkpt>
      <trkpt lat="46.43323" lon="-0.35801">
        <ele>92</ele>
        <time>2013-03-19T14:58:18Z</time>
      </trkpt>
      <trkpt lat="46.43327" lon="-0.35805">
        <ele>92</ele>
        <time>2013-03-19T14:58:23Z</time>
      </trkpt>
      <trkpt lat="46.4333" lon="-0.3581">
        <ele>92</ele>
        <time>2013-03-19T14:58:28Z</time>
      </trkpt>
      <trkpt lat="46.43331" lon="-0.35811">
        <ele>92</ele>
        <time>2013-03-19T14:58:33Z</time>
      </trkpt>
      <trkpt lat="46.43336" lon="-0.35817">
        <ele>92</ele>
        <time>2013-03-19T14:58:38Z</time>
      </trkpt>
      <trkpt lat="46.4334" lon="-0.35823">
        <ele>92</ele>
        <time>2013-03-19T14:58:43Z</time>
      </trkpt>
      <trkpt lat="46.43345" lon="-0.35827">
        <ele>92</ele>
        <time>2013-03-19T14:58:48Z</time>
      </trkpt>
      <trkpt lat="46.43348" lon="-0.35833">
        <ele>92</ele>
        <time>2013-03-19T14:58:53Z</time>
      </trkpt>
      <trkpt lat="46.43352" lon="-0.35838">
        <ele>92</ele>
        <time>2013-03-19T14:58:58Z</time>
      </trkpt>
      <trkpt lat="46.43356" lon="-0.35843">
        <ele>92</ele>
        <time>2013-03-19T14:59:03Z</time>
      </trkpt>
      <trkpt lat="46.43359" lon="-0.3585">
        <ele>92</ele>
        <time>2013-03-19T14:59:08Z</time>
      </trkpt>
      <trkpt lat="46.43363" lon="-0.35856">
        <ele>92</ele>
        <time>2013-03-19T14:59:13Z</time>
      </trkpt>
      <trkpt lat="46.43367" lon="-0.35863">
        <ele>92</ele>
        <time>2013-03-19T14:59:18Z</time>
      </trkpt>
      <trkpt lat="46.43371" lon="-0.3587">
        <ele>92</ele>
        <time>2013-03-19T14:59:23Z</time>
      </trkpt>
      <trkpt lat="46.43373" lon="-0.35877">
        <ele>93</ele>
        <time>2013-03-19T14:59:28Z</time>
      </trkpt>
      <trkpt lat="46.43376" lon="-0.35884">
        <ele>90</ele>
        <time>2013-03-19T14:59:33Z</time>
      </trkpt>
      <trkpt lat="46.43379" lon="-0.3589">
        <ele>90</ele>
        <time>2013-03-19T14:59:38Z</time>
      </trkpt>
      <trkpt lat="46.43382" lon="-0.35897">
        <ele>90</ele>
        <time>2013-03-19T14:59:43Z</time>
      </trkpt>
      <trkpt lat="46.43386" lon="-0.35904">
        <ele>90</ele>
        <time>2013-03-19T14:59:48Z</time>
      </trkpt>
      <trkpt lat="46.43389" lon="-0.35912">
        <ele>90</ele>
        <time>2013-03-19T14:59:53Z</time>
      </trkpt>
      <trkpt lat="46.43393" lon="-0.35918">
        <ele>90</ele>
        <time>2013-03-19T14:59:58Z</time>
      </trkpt>
      <trkpt lat="46.43395" lon="-0.35924">
        <ele>90</ele>
        <time>2013-03-19T15:00:03Z</time>
      </trkpt>
      <trkpt lat="46.43399" lon="-0.35931">
        <ele>90</ele>
        <time>2013-03-19T15:00:08Z</time>
      </trkpt>
      <trkpt lat="46.43403" lon="-0.35938">
        <ele>90</ele>
        <time>2013-03-19T15:00:13Z</time>
      </trkpt>
      <trkpt lat="46.43405" lon="-0.35943">
        <ele>90</ele>
        <time>2013-03-19T15:00:18Z</time>
      </trkpt>
      <trkpt lat="46.43409" lon="-0.35949">
        <ele>90</ele>
        <time>2013-03-19T15:00:23Z</time>
      </trkpt>
      <trkpt lat="46.43414" lon="-0.35954">
        <ele>90</ele>
        <time>2013-03-19T15:00:28Z</time>
      </trkpt>
      <trkpt lat="46.43418" lon="-0.3596">
        <ele>93</ele>
        <time>2013-03-19T15:00:34Z</time>
      </trkpt>
      <trkpt lat="46.43422" lon="-0.35964">
        <ele>93</ele>
        <time>2013-03-19T15:00:38Z</time>
      </trkpt>
      <trkpt lat="46.43425" lon="-0.3597">
        <ele>93</ele>
        <time>2013-03-19T15:00:43Z</time>
      </trkpt>
      <trkpt lat="46.43429" lon="-0.35978">
        <ele>93</ele>
        <time>2013-03-19T15:00:48Z</time>
      </trkpt>
      <trkpt lat="46.43435" lon="-0.35985">
        <ele>93</ele>
        <time>2013-03-19T15:00:53Z</time>
      </trkpt>
      <trkpt lat="46.43439" lon="-0.3599">
        <ele>93</ele>
        <time>2013-03-19T15:00:58Z</time>
      </trkpt>
      <trkpt lat="46.43442" lon="-0.35997">
        <ele>93</ele>
        <time>2013-03-19T15:01:03Z</time>
      </trkpt>
      <trkpt lat="46.43444" lon="-0.36003">
        <ele>93</ele>
        <time>2013-03-19T15:01:08Z</time>
      </trkpt>
      <trkpt lat="46.43448" lon="-0.36009">
        <ele>93</ele>
        <time>2013-03-19T15:01:13Z</time>
      </trkpt>
      <trkpt lat="46.4345" lon="-0.36016">
        <ele>93</ele>
        <time>2013-03-19T15:01:18Z</time>
      </trkpt>
      <trkpt lat="46.43455" lon="-0.36023">
        <ele>93</ele>
        <time>2013-03-19T15:01:23Z</time>
      </trkpt>
      <trkpt lat="46.43458" lon="-0.36029">
        <ele>93</ele>
        <time>2013-03-19T15:01:28Z</time>
      </trkpt>
      <trkpt lat="46.4346" lon="-0.36037">
        <ele>87</ele>
        <time>2013-03-19T15:01:33Z</time>
      </trkpt>
      <trkpt lat="46.43463" lon="-0.36045">
        <ele>88</ele>
        <time>2013-03-19T15:01:38Z</time>
      </trkpt>
      <trkpt lat="46.43465" lon="-0.36052">
        <ele>88</ele>
        <time>2013-03-19T15:01:43Z</time>
      </trkpt>
      <trkpt lat="46.43468" lon="-0.36059">
        <ele>88</ele>
        <time>2013-03-19T15:01:48Z</time>
      </trkpt>
      <trkpt lat="46.43469" lon="-0.36067">
        <ele>88</ele>
        <time>2013-03-19T15:01:53Z</time>
      </trkpt>
      <trkpt lat="46.43471" lon="-0.36075">
        <ele>88</ele>
        <time>2013-03-19T15:01:58Z</time>
      </trkpt>
      <trkpt lat="46.43474" lon="-0.36083">
        <ele>88</ele>
        <time>2013-03-19T15:02:03Z</time>
      </trkpt>
      <trkpt lat="46.43475" lon="-0.36091">
        <ele>88</ele>
        <time>2013-03-19T15:02:08Z</time>
      </trkpt>
      <trkpt lat="46.43477" lon="-0.36098">
        <ele>88</ele>
        <time>2013-03-19T15:02:13Z</time>
      </trkpt>
      <trkpt lat="46.43478" lon="-0.36105">
        <ele>88</ele>
        <time>2013-03-19T15:02:18Z</time>
      </trkpt>
      <trkpt lat="46.43479" lon="-0.36113">
        <ele>88</ele>
        <time>2013-03-19T15:02:23Z</time>
      </trkpt>
      <trkpt lat="46.4348" lon="-0.36121">
        <ele>88</ele>
        <time>2013-03-19T15:02:28Z</time>
      </trkpt>
      <trkpt lat="46.4348" lon="-0.36126">
        <ele>89</ele>
        <time>2013-03-19T15:02:33Z</time>
      </trkpt>
      <trkpt lat="46.43482" lon="-0.36135">
        <ele>89</ele>
        <time>2013-03-19T15:02:38Z</time>
      </trkpt>
      <trkpt lat="46.43483" lon="-0.36143">
        <ele>89</ele>
        <time>2013-03-19T15:02:43Z</time>
      </trkpt>
      <trkpt lat="46.43484" lon="-0.36151">
        <ele>89</ele>
        <time>2013-03-19T15:02:48Z</time>
      </trkpt>
      <trkpt lat="46.43485" lon="-0.36162">
        <ele>89</ele>
        <time>2013-03-19T15:02:53Z</time>
      </trkpt>
      <trkpt lat="46.43489" lon="-0.3617">
        <ele>89</ele>
        <time>2013-03-19T15:02:58Z</time>
      </trkpt>
      <trkpt lat="46.43489" lon="-0.36179">
        <ele>89</ele>
        <time>2013-03-19T15:03:03Z</time>
      </trkpt>
      <trkpt lat="46.4349" lon="-0.36187">
        <ele>89</ele>
        <time>2013-03-19T15:03:08Z</time>
      </trkpt>
      <trkpt lat="46.43491" lon="-0.36194">
        <ele>89</ele>
        <time>2013-03-19T15:03:13Z</time>
      </trkpt>
      <trkpt lat="46.43492" lon="-0.36202">
        <ele>89</ele>
        <time>2013-03-19T15:03:18Z</time>
      </trkpt>
      <trkpt lat="46.43494" lon="-0.3621">
        <ele>91</ele>
        <time>2013-03-19T15:03:23Z</time>
      </trkpt>
      <trkpt lat="46.43496" lon="-0.36216">
        <ele>91</ele>
        <time>2013-03-19T15:03:28Z</time>
      </trkpt>
      <trkpt lat="46.43498" lon="-0.36222">
        <ele>91</ele>
        <time>2013-03-19T15:03:33Z</time>
      </trkpt>
      <trkpt lat="46.43501" lon="-0.36229">
        <ele>91</ele>
        <time>2013-03-19T15:03:38Z</time>
      </trkpt>
      <trkpt lat="46.43505" lon="-0.36233">
        <ele>91</ele>
        <time>2013-03-19T15:03:43Z</time>
      </trkpt>
      <trkpt lat="46.43508" lon="-0.36239">
        <ele>91</ele>
        <time>2013-03-19T15:03:48Z</time>
      </trkpt>
      <trkpt lat="46.43512" lon="-0.36244">
        <ele>91</ele>
        <time>2013-03-19T15:03:54Z</time>
      </trkpt>
      <trkpt lat="46.43517" lon="-0.36248">
        <ele>91</ele>
        <time>2013-03-19T15:03:58Z</time>
      </trkpt>
      <trkpt lat="46.43522" lon="-0.3625">
        <ele>91</ele>
        <time>2013-03-19T15:04:03Z</time>
      </trkpt>
      <trkpt lat="46.43527" lon="-0.36247">
        <ele>91</ele>
        <time>2013-03-19T15:04:08Z</time>
      </trkpt>
      <trkpt lat="46.43531" lon="-0.36244">
        <ele>91</ele>
        <time>2013-03-19T15:04:13Z</time>
      </trkpt>
      <trkpt lat="46.43536" lon="-0.3624">
        <ele>91</ele>
        <time>2013-03-19T15:04:18Z</time>
      </trkpt>
      <trkpt lat="46.43542" lon="-0.36236">
        <ele>91</ele>
        <time>2013-03-19T15:04:23Z</time>
      </trkpt>
      <trkpt lat="46.43546" lon="-0.36231">
        <ele>88</ele>
        <time>2013-03-19T15:04:28Z</time>
      </trkpt>
      <trkpt lat="46.43551" lon="-0.36223">
        <ele>88</ele>
        <time>2013-03-19T15:04:33Z</time>
      </trkpt>
      <trkpt lat="46.43553" lon="-0.36218">
        <ele>88</ele>
        <time>2013-03-19T15:04:38Z</time>
      </trkpt>
      <trkpt lat="46.43556" lon="-0.36211">
        <ele>88</ele>
        <time>2013-03-19T15:04:43Z</time>
      </trkpt>
      <trkpt lat="46.4356" lon="-0.36206">
        <ele>88</ele>
        <time>2013-03-19T15:04:48Z</time>
      </trkpt>
      <trkpt lat="46.43565" lon="-0.36201">
        <ele>88</ele>
        <time>2013-03-19T15:04:53Z</time>
      </trkpt>
      <trkpt lat="46.43569" lon="-0.36192">
        <ele>88</ele>
        <time>2013-03-19T15:04:58Z</time>
      </trkpt>
      <trkpt lat="46.43574" lon="-0.36188">
        <ele>88</ele>
        <time>2013-03-19T15:05:03Z</time>
      </trkpt>
      <trkpt lat="46.43579" lon="-0.36181">
        <ele>88</ele>
        <time>2013-03-19T15:05:08Z</time>
      </trkpt>
      <trkpt lat="46.43583" lon="-0.36173">
        <ele>88</ele>
        <time>2013-03-19T15:05:13Z</time>
      </trkpt>
      <trkpt lat="46.43586" lon="-0.36167">
        <ele>88</ele>
        <time>2013-03-19T15:05:18Z</time>
      </trkpt>
      <trkpt lat="46.43588" lon="-0.36162">
        <ele>88</ele>
        <time>2013-03-19T15:05:23Z</time>
      </trkpt>
      <trkpt lat="46.43593" lon="-0.36157">
        <ele>88</ele>
        <time>2013-03-19T15:05:28Z</time>
      </trkpt>
      <trkpt lat="46.43595" lon="-0.3615">
        <ele>88</ele>
        <time>2013-03-19T15:05:33Z</time>
      </trkpt>
      <trkpt lat="46.43598" lon="-0.36145">
        <ele>88</ele>
        <time>2013-03-19T15:05:38Z</time>
      </trkpt>
      <trkpt lat="46.43602" lon="-0.36141">
        <ele>88</ele>
        <time>2013-03-19T15:05:43Z</time>
      </trkpt>
      <trkpt lat="46.43605" lon="-0.36134">
        <ele>88</ele>
        <time>2013-03-19T15:05:48Z</time>
      </trkpt>
      <trkpt lat="46.43608" lon="-0.36128">
        <ele>88</ele>
        <time>2013-03-19T15:05:53Z</time>
      </trkpt>
      <trkpt lat="46.43612" lon="-0.36122">
        <ele>85</ele>
        <time>2013-03-19T15:05:58Z</time>
      </trkpt>
      <trkpt lat="46.43616" lon="-0.36115">
        <ele>85</ele>
        <time>2013-03-19T15:06:03Z</time>
      </trkpt>
      <trkpt lat="46.43621" lon="-0.3611">
        <ele>85</ele>
        <time>2013-03-19T15:06:08Z</time>
      </trkpt>
      <trkpt lat="46.43625" lon="-0.36104">
        <ele>85</ele>
        <time>2013-03-19T15:06:13Z</time>
      </trkpt>
      <trkpt lat="46.43628" lon="-0.36097">
        <ele>77</ele>
        <time>2013-03-19T15:06:18Z</time>
      </trkpt>
      <trkpt lat="46.43631" lon="-0.36092">
        <ele>77</ele>
        <time>2013-03-19T15:06:23Z</time>
      </trkpt>
      <trkpt lat="46.43635" lon="-0.36088">
        <ele>77</ele>
        <time>2013-03-19T15:06:28Z</time>
      </trkpt>
      <trkpt lat="46.4364" lon="-0.36082">
        <ele>77</ele>
        <time>2013-03-19T15:06:33Z</time>
      </trkpt>
      <trkpt lat="46.43643" lon="-0.36076">
        <ele>77</ele>
        <time>2013-03-19T15:06:38Z</time>
      </trkpt>
      <trkpt lat="46.43646" lon="-0.36071">
        <ele>77</ele>
        <time>2013-03-19T15:06:43Z</time>
      </trkpt>
      <trkpt lat="46.4365" lon="-0.36062">
        <ele>77</ele>
        <time>2013-03-19T15:06:48Z</time>
      </trkpt>
      <trkpt lat="46.43653" lon="-0.36056">
        <ele>77</ele>
        <time>2013-03-19T15:06:53Z</time>
      </trkpt>
      <trkpt lat="46.43658" lon="-0.36049">
        <ele>77</ele>
        <time>2013-03-19T15:06:58Z</time>
      </trkpt>
      <trkpt lat="46.43662" lon="-0.36042">
        <ele>77</ele>
        <time>2013-03-19T15:07:03Z</time>
      </trkpt>
      <trkpt lat="46.43664" lon="-0.36037">
        <ele>77</ele>
        <time>2013-03-19T15:07:08Z</time>
      </trkpt>
      <trkpt lat="46.43669" lon="-0.36029">
        <ele>77</ele>
        <time>2013-03-19T15:07:13Z</time>
      </trkpt>
      <trkpt lat="46.43672" lon="-0.36019">
        <ele>77</ele>
        <time>2013-03-19T15:07:18Z</time>
      </trkpt>
      <trkpt lat="46.43669" lon="-0.36012">
        <ele>77</ele>
        <time>2013-03-19T15:07:23Z</time>
      </trkpt>
      <trkpt lat="46.43666" lon="-0.36004">
        <ele>77</ele>
        <time>2013-03-19T15:07:28Z</time>
      </trkpt>
      <trkpt lat="46.43663" lon="-0.35999">
        <ele>77</ele>
        <time>2013-03-19T15:07:33Z</time>
      </trkpt>
      <trkpt lat="46.43662" lon="-0.35998">
        <ele>77</ele>
        <time>2013-03-19T15:07:38Z</time>
      </trkpt>
      <trkpt lat="46.4366" lon="-0.35994">
        <ele>77</ele>
        <time>2013-03-19T15:07:43Z</time>
      </trkpt>
      <trkpt lat="46.4366" lon="-0.35991">
        <ele>77</ele>
        <time>2013-03-19T15:07:48Z</time>
      </trkpt>
      <trkpt lat="46.43659" lon="-0.35991">
        <ele>77</ele>
        <time>2013-03-19T15:07:54Z</time>
      </trkpt>
      <trkpt lat="46.43659" lon="-0.35989">
        <ele>77</ele>
        <time>2013-03-19T15:08:13Z</time>
      </trkpt>
      <trkpt lat="46.43659" lon="-0.3599">
        <ele>77</ele>
        <time>2013-03-19T15:08:18Z</time>
      </trkpt>
      <trkpt lat="46.43661" lon="-0.35987">
        <ele>77</ele>
        <time>2013-03-19T15:08:28Z</time>
      </trkpt>
      <trkpt lat="46.43661" lon="-0.35986">
        <ele>77</ele>
        <time>2013-03-19T15:08:33Z</time>
      </trkpt>
      <trkpt lat="46.43664" lon="-0.35984">
        <ele>77</ele>
        <time>2013-03-19T15:08:38Z</time>
      </trkpt>
      <trkpt lat="46.43665" lon="-0.35983">
        <ele>77</ele>
        <time>2013-03-19T15:08:43Z</time>
      </trkpt>
      <trkpt lat="46.43666" lon="-0.35982">
        <ele>77</ele>
        <time>2013-03-19T15:08:48Z</time>
      </trkpt>
      <trkpt lat="46.43666" lon="-0.35982">
        <ele>77</ele>
        <time>2013-03-19T15:08:53Z</time>
      </trkpt>
      <trkpt lat="46.43666" lon="-0.35981">
        <ele>77</ele>
        <time>2013-03-19T15:08:58Z</time>
      </trkpt>
      <trkpt lat="46.43671" lon="-0.35977">
        <ele>77</ele>
        <time>2013-03-19T15:09:03Z</time>
      </trkpt>
      <trkpt lat="46.43671" lon="-0.35975">
        <ele>77</ele>
        <time>2013-03-19T15:09:08Z</time>
      </trkpt>
      <trkpt lat="46.43671" lon="-0.35971">
        <ele>77</ele>
        <time>2013-03-19T15:09:13Z</time>
      </trkpt>
      <trkpt lat="46.43671" lon="-0.35967">
        <ele>77</ele>
        <time>2013-03-19T15:09:18Z</time>
      </trkpt>
      <trkpt lat="46.43671" lon="-0.35965">
        <ele>77</ele>
        <time>2013-03-19T15:09:23Z</time>
      </trkpt>
      <trkpt lat="46.43671" lon="-0.35963">
        <ele>77</ele>
        <time>2013-03-19T15:09:28Z</time>
      </trkpt>
      <trkpt lat="46.43671" lon="-0.35958">
        <ele>78</ele>
        <time>2013-03-19T15:09:33Z</time>
      </trkpt>
      <trkpt lat="46.43671" lon="-0.35956">
        <ele>78</ele>
        <time>2013-03-19T15:09:38Z</time>
      </trkpt>
      <trkpt lat="46.4367" lon="-0.35954">
        <ele>78</ele>
        <time>2013-03-19T15:09:43Z</time>
      </trkpt>
      <trkpt lat="46.4367" lon="-0.35953">
        <ele>78</ele>
        <time>2013-03-19T15:09:48Z</time>
      </trkpt>
      <trkpt lat="46.43669" lon="-0.35953">
        <ele>78</ele>
        <time>2013-03-19T15:09:53Z</time>
      </trkpt>
      <trkpt lat="46.43669" lon="-0.35944">
        <ele>78</ele>
        <time>2013-03-19T15:10:08Z</time>
      </trkpt>
      <trkpt lat="46.4367" lon="-0.35938">
        <ele>78</ele>
        <time>2013-03-19T15:10:13Z</time>
      </trkpt>
      <trkpt lat="46.43674" lon="-0.35933">
        <ele>78</ele>
        <time>2013-03-19T15:10:18Z</time>
      </trkpt>
      <trkpt lat="46.43679" lon="-0.35929">
        <ele>78</ele>
        <time>2013-03-19T15:10:23Z</time>
      </trkpt>
      <trkpt lat="46.43681" lon="-0.35928">
        <ele>78</ele>
        <time>2013-03-19T15:10:28Z</time>
      </trkpt>
      <trkpt lat="46.43681" lon="-0.35926">
        <ele>78</ele>
        <time>2013-03-19T15:10:33Z</time>
      </trkpt>
      <trkpt lat="46.43684" lon="-0.35924">
        <ele>78</ele>
        <time>2013-03-19T15:10:38Z</time>
      </trkpt>
      <trkpt lat="46.43687" lon="-0.35909">
        <ele>78</ele>
        <time>2013-03-19T15:10:43Z</time>
      </trkpt>
      <trkpt lat="46.43688" lon="-0.35902">
        <ele>78</ele>
        <time>2013-03-19T15:10:48Z</time>
      </trkpt>
      <trkpt lat="46.43691" lon="-0.35901">
        <ele>78</ele>
        <time>2013-03-19T15:10:53Z</time>
      </trkpt>
      <trkpt lat="46.43691" lon="-0.359">
        <ele>78</ele>
        <time>2013-03-19T15:10:58Z</time>
      </trkpt>
      <trkpt lat="46.43695" lon="-0.35891">
        <ele>78</ele>
        <time>2013-03-19T15:11:03Z</time>
      </trkpt>
      <trkpt lat="46.43696" lon="-0.35886">
        <ele>78</ele>
        <time>2013-03-19T15:11:08Z</time>
      </trkpt>
      <trkpt lat="46.43698" lon="-0.35884">
        <ele>78</ele>
        <time>2013-03-19T15:11:14Z</time>
      </trkpt>
      <trkpt lat="46.43698" lon="-0.35884">
        <ele>78</ele>
        <time>2013-03-19T15:11:18Z</time>
      </trkpt>
      <trkpt lat="46.43698" lon="-0.35884">
        <ele>78</ele>
        <time>2013-03-19T15:11:23Z</time>
      </trkpt>
      <trkpt lat="46.43698" lon="-0.35884">
        <ele>78</ele>
        <time>2013-03-19T15:11:28Z</time>
      </trkpt>
      <trkpt lat="46.43701" lon="-0.35879">
        <ele>78</ele>
        <time>2013-03-19T15:11:33Z</time>
      </trkpt>
      <trkpt lat="46.43703" lon="-0.35875">
        <ele>78</ele>
        <time>2013-03-19T15:11:38Z</time>
      </trkpt>
      <trkpt lat="46.43705" lon="-0.35869">
        <ele>81</ele>
        <time>2013-03-19T15:11:43Z</time>
      </trkpt>
      <trkpt lat="46.43705" lon="-0.35862">
        <ele>81</ele>
        <time>2013-03-19T15:11:48Z</time>
      </trkpt>
      <trkpt lat="46.43705" lon="-0.35855">
        <ele>81</ele>
        <time>2013-03-19T15:11:53Z</time>
      </trkpt>
      <trkpt lat="46.43707" lon="-0.35846">
        <ele>81</ele>
        <time>2013-03-19T15:11:58Z</time>
      </trkpt>
      <trkpt lat="46.43709" lon="-0.35836">
        <ele>85</ele>
        <time>2013-03-19T15:12:03Z</time>
      </trkpt>
      <trkpt lat="46.43708" lon="-0.35827">
        <ele>81</ele>
        <time>2013-03-19T15:12:08Z</time>
      </trkpt>
      <trkpt lat="46.43707" lon="-0.35829">
        <ele>81</ele>
        <time>2013-03-19T15:12:13Z</time>
      </trkpt>
      <trkpt lat="46.43707" lon="-0.35832">
        <ele>81</ele>
        <time>2013-03-19T15:12:18Z</time>
      </trkpt>
      <trkpt lat="46.43706" lon="-0.35831">
        <ele>81</ele>
        <time>2013-03-19T15:12:23Z</time>
      </trkpt>
      <trkpt lat="46.43705" lon="-0.35821">
        <ele>81</ele>
        <time>2013-03-19T15:12:28Z</time>
      </trkpt>
      <trkpt lat="46.43704" lon="-0.35814">
        <ele>81</ele>
        <time>2013-03-19T15:12:33Z</time>
      </trkpt>
      <trkpt lat="46.437" lon="-0.35812">
        <ele>81</ele>
        <time>2013-03-19T15:12:38Z</time>
      </trkpt>
      <trkpt lat="46.43696" lon="-0.35812">
        <ele>81</ele>
        <time>2013-03-19T15:12:43Z</time>
      </trkpt>
      <trkpt lat="46.4369" lon="-0.35814">
        <ele>81</ele>
        <time>2013-03-19T15:12:48Z</time>
      </trkpt>
      <trkpt lat="46.43687" lon="-0.35817">
        <ele>81</ele>
        <time>2013-03-19T15:12:53Z</time>
      </trkpt>
      <trkpt lat="46.4368" lon="-0.35818">
        <ele>81</ele>
        <time>2013-03-19T15:12:58Z</time>
      </trkpt>
      <trkpt lat="46.43676" lon="-0.35819">
        <ele>81</ele>
        <time>2013-03-19T15:13:03Z</time>
      </trkpt>
      <trkpt lat="46.43672" lon="-0.35819">
        <ele>81</ele>
        <time>2013-03-19T15:13:08Z</time>
      </trkpt>
      <trkpt lat="46.43668" lon="-0.35818">
        <ele>81</ele>
        <time>2013-03-19T15:13:13Z</time>
      </trkpt>
      <trkpt lat="46.43662" lon="-0.35814">
        <ele>81</ele>
        <time>2013-03-19T15:13:18Z</time>
      </trkpt>
      <trkpt lat="46.43659" lon="-0.35813">
        <ele>81</ele>
        <time>2013-03-19T15:13:23Z</time>
      </trkpt>
      <trkpt lat="46.43654" lon="-0.35809">
        <ele>81</ele>
        <time>2013-03-19T15:13:28Z</time>
      </trkpt>
      <trkpt lat="46.43651" lon="-0.35807">
        <ele>81</ele>
        <time>2013-03-19T15:13:33Z</time>
      </trkpt>
      <trkpt lat="46.43652" lon="-0.35808">
        <ele>81</ele>
        <time>2013-03-19T15:13:38Z</time>
      </trkpt>
      <trkpt lat="46.43649" lon="-0.35805">
        <ele>81</ele>
        <time>2013-03-19T15:13:43Z</time>
      </trkpt>
      <trkpt lat="46.43644" lon="-0.35801">
        <ele>81</ele>
        <time>2013-03-19T15:13:48Z</time>
      </trkpt>
      <trkpt lat="46.43639" lon="-0.35796">
        <ele>81</ele>
        <time>2013-03-19T15:13:53Z</time>
      </trkpt>
      <trkpt lat="46.43635" lon="-0.35794">
        <ele>81</ele>
        <time>2013-03-19T15:13:58Z</time>
      </trkpt>
      <trkpt lat="46.43629" lon="-0.35789">
        <ele>88</ele>
        <time>2013-03-19T15:14:03Z</time>
      </trkpt>
      <trkpt lat="46.43626" lon="-0.35787">
        <ele>88</ele>
        <time>2013-03-19T15:14:08Z</time>
      </trkpt>
      <trkpt lat="46.43625" lon="-0.35787">
        <ele>88</ele>
        <time>2013-03-19T15:14:13Z</time>
      </trkpt>
      <trkpt lat="46.43622" lon="-0.35783">
        <ele>88</ele>
        <time>2013-03-19T15:14:18Z</time>
      </trkpt>
      <trkpt lat="46.43617" lon="-0.35782">
        <ele>88</ele>
        <time>2013-03-19T15:14:23Z</time>
      </trkpt>
      <trkpt lat="46.43608" lon="-0.35776">
        <ele>88</ele>
        <time>2013-03-19T15:14:28Z</time>
      </trkpt>
      <trkpt lat="46.43602" lon="-0.35773">
        <ele>88</ele>
        <time>2013-03-19T15:14:33Z</time>
      </trkpt>
      <trkpt lat="46.43601" lon="-0.35764">
        <ele>88</ele>
        <time>2013-03-19T15:14:38Z</time>
      </trkpt>
      <trkpt lat="46.43598" lon="-0.35759">
        <ele>88</ele>
        <time>2013-03-19T15:14:43Z</time>
      </trkpt>
      <trkpt lat="46.43594" lon="-0.35752">
        <ele>88</ele>
        <time>2013-03-19T15:14:48Z</time>
      </trkpt>
      <trkpt lat="46.43592" lon="-0.35753">
        <ele>88</ele>
        <time>2013-03-19T15:14:53Z</time>
      </trkpt>
      <trkpt lat="46.4359" lon="-0.35748">
        <ele>88</ele>
        <time>2013-03-19T15:14:58Z</time>
      </trkpt>
      <trkpt lat="46.43588" lon="-0.35745">
        <ele>88</ele>
        <time>2013-03-19T15:15:03Z</time>
      </trkpt>
      <trkpt lat="46.43586" lon="-0.3574">
        <ele>88</ele>
        <time>2013-03-19T15:15:08Z</time>
      </trkpt>
      <trkpt lat="46.43583" lon="-0.35737">
        <ele>88</ele>
        <time>2013-03-19T15:15:13Z</time>
      </trkpt>
      <trkpt lat="46.4358" lon="-0.35732">
        <ele>88</ele>
        <time>2013-03-19T15:15:18Z</time>
      </trkpt>
      <trkpt lat="46.43577" lon="-0.35729">
        <ele>88</ele>
        <time>2013-03-19T15:15:23Z</time>
      </trkpt>
      <trkpt lat="46.43574" lon="-0.35721">
        <ele>88</ele>
        <time>2013-03-19T15:15:28Z</time>
      </trkpt>
      <trkpt lat="46.43571" lon="-0.35716">
        <ele>88</ele>
        <time>2013-03-19T15:15:33Z</time>
      </trkpt>
      <trkpt lat="46.43568" lon="-0.35713">
        <ele>88</ele>
        <time>2013-03-19T15:15:38Z</time>
      </trkpt>
      <trkpt lat="46.43566" lon="-0.35708">
        <ele>88</ele>
        <time>2013-03-19T15:15:43Z</time>
      </trkpt>
      <trkpt lat="46.43563" lon="-0.35703">
        <ele>88</ele>
        <time>2013-03-19T15:15:48Z</time>
      </trkpt>
      <trkpt lat="46.4356" lon="-0.35699">
        <ele>88</ele>
        <time>2013-03-19T15:15:53Z</time>
      </trkpt>
      <trkpt lat="46.43556" lon="-0.35694">
        <ele>88</ele>
        <time>2013-03-19T15:15:58Z</time>
      </trkpt>
      <trkpt lat="46.43551" lon="-0.35686">
        <ele>88</ele>
        <time>2013-03-19T15:16:03Z</time>
      </trkpt>
      <trkpt lat="46.43547" lon="-0.35675">
        <ele>88</ele>
        <time>2013-03-19T15:16:08Z</time>
      </trkpt>
      <trkpt lat="46.43544" lon="-0.35668">
        <ele>88</ele>
        <time>2013-03-19T15:16:13Z</time>
      </trkpt>
      <trkpt lat="46.43544" lon="-0.35664">
        <ele>88</ele>
        <time>2013-03-19T15:16:18Z</time>
      </trkpt>
      <trkpt lat="46.43543" lon="-0.35658">
        <ele>88</ele>
        <time>2013-03-19T15:16:24Z</time>
      </trkpt>
      <trkpt lat="46.43543" lon="-0.35647">
        <ele>88</ele>
        <time>2013-03-19T15:16:28Z</time>
      </trkpt>
      <trkpt lat="46.43541" lon="-0.35639">
        <ele>83</ele>
        <time>2013-03-19T15:16:33Z</time>
      </trkpt>
      <trkpt lat="46.4354" lon="-0.35637">
        <ele>83</ele>
        <time>2013-03-19T15:16:38Z</time>
      </trkpt>
      <trkpt lat="46.4354" lon="-0.35636">
        <ele>83</ele>
        <time>2013-03-19T15:16:43Z</time>
      </trkpt>
      <trkpt lat="46.4354" lon="-0.35637">
        <ele>83</ele>
        <time>2013-03-19T15:16:48Z</time>
      </trkpt>
      <trkpt lat="46.43541" lon="-0.35636">
        <ele>83</ele>
        <time>2013-03-19T15:16:58Z</time>
      </trkpt>
      <trkpt lat="46.43543" lon="-0.35634">
        <ele>88</ele>
        <time>2013-03-19T15:17:03Z</time>
      </trkpt>
      <trkpt lat="46.43544" lon="-0.35628">
        <ele>88</ele>
        <time>2013-03-19T15:17:08Z</time>
      </trkpt>
      <trkpt lat="46.43544" lon="-0.3562">
        <ele>88</ele>
        <time>2013-03-19T15:17:13Z</time>
      </trkpt>
      <trkpt lat="46.43545" lon="-0.35614">
        <ele>88</ele>
        <time>2013-03-19T15:17:18Z</time>
      </trkpt>
      <trkpt lat="46.43548" lon="-0.3561">
        <ele>88</ele>
        <time>2013-03-19T15:17:23Z</time>
      </trkpt>
      <trkpt lat="46.43549" lon="-0.35604">
        <ele>88</ele>
        <time>2013-03-19T15:17:28Z</time>
      </trkpt>
      <trkpt lat="46.4355" lon="-0.35599">
        <ele>88</ele>
        <time>2013-03-19T15:17:33Z</time>
      </trkpt>
      <trkpt lat="46.43551" lon="-0.35593">
        <ele>88</ele>
        <time>2013-03-19T15:17:38Z</time>
      </trkpt>
      <trkpt lat="46.43553" lon="-0.35585">
        <ele>88</ele>
        <time>2013-03-19T15:17:43Z</time>
      </trkpt>
      <trkpt lat="46.43555" lon="-0.35581">
        <ele>88</ele>
        <time>2013-03-19T15:17:48Z</time>
      </trkpt>
      <trkpt lat="46.43556" lon="-0.35574">
        <ele>88</ele>
        <time>2013-03-19T15:17:53Z</time>
      </trkpt>
      <trkpt lat="46.43558" lon="-0.35569">
        <ele>88</ele>
        <time>2013-03-19T15:17:58Z</time>
      </trkpt>
      <trkpt lat="46.4356" lon="-0.35562">
        <ele>88</ele>
        <time>2013-03-19T15:18:03Z</time>
      </trkpt>
      <trkpt lat="46.43564" lon="-0.35554">
        <ele>88</ele>
        <time>2013-03-19T15:18:08Z</time>
      </trkpt>
      <trkpt lat="46.43561" lon="-0.35547">
        <ele>88</ele>
        <time>2013-03-19T15:18:13Z</time>
      </trkpt>
      <trkpt lat="46.43566" lon="-0.35542">
        <ele>88</ele>
        <time>2013-03-19T15:18:18Z</time>
      </trkpt>
      <trkpt lat="46.43567" lon="-0.35534">
        <ele>89</ele>
        <time>2013-03-19T15:18:23Z</time>
      </trkpt>
      <trkpt lat="46.4357" lon="-0.35528">
        <ele>89</ele>
        <time>2013-03-19T15:18:28Z</time>
      </trkpt>
      <trkpt lat="46.43573" lon="-0.35522">
        <ele>89</ele>
        <time>2013-03-19T15:18:33Z</time>
      </trkpt>
      <trkpt lat="46.43575" lon="-0.35516">
        <ele>89</ele>
        <time>2013-03-19T15:18:38Z</time>
      </trkpt>
      <trkpt lat="46.43578" lon="-0.35509">
        <ele>89</ele>
        <time>2013-03-19T15:18:43Z</time>
      </trkpt>
      <trkpt lat="46.43578" lon="-0.35502">
        <ele>89</ele>
        <time>2013-03-19T15:18:48Z</time>
      </trkpt>
      <trkpt lat="46.43579" lon="-0.35494">
        <ele>89</ele>
        <time>2013-03-19T15:18:53Z</time>
      </trkpt>
      <trkpt lat="46.43579" lon="-0.35488">
        <ele>89</ele>
        <time>2013-03-19T15:18:58Z</time>
      </trkpt>
      <trkpt lat="46.43581" lon="-0.35481">
        <ele>89</ele>
        <time>2013-03-19T15:19:03Z</time>
      </trkpt>
      <trkpt lat="46.43582" lon="-0.35476">
        <ele>89</ele>
        <time>2013-03-19T15:19:08Z</time>
      </trkpt>
      <trkpt lat="46.43584" lon="-0.35471">
        <ele>89</ele>
        <time>2013-03-19T15:19:13Z</time>
      </trkpt>
      <trkpt lat="46.43587" lon="-0.35466">
        <ele>89</ele>
        <time>2013-03-19T15:19:18Z</time>
      </trkpt>
      <trkpt lat="46.4359" lon="-0.35464">
        <ele>89</ele>
        <time>2013-03-19T15:19:23Z</time>
      </trkpt>
      <trkpt lat="46.43594" lon="-0.35464">
        <ele>89</ele>
        <time>2013-03-19T15:19:28Z</time>
      </trkpt>
      <trkpt lat="46.43597" lon="-0.35465">
        <ele>89</ele>
        <time>2013-03-19T15:19:33Z</time>
      </trkpt>
      <trkpt lat="46.43601" lon="-0.35467">
        <ele>89</ele>
        <time>2013-03-19T15:19:38Z</time>
      </trkpt>
      <trkpt lat="46.43603" lon="-0.3547">
        <ele>89</ele>
        <time>2013-03-19T15:19:43Z</time>
      </trkpt>
      <trkpt lat="46.43605" lon="-0.35473">
        <ele>89</ele>
        <time>2013-03-19T15:19:48Z</time>
      </trkpt>
      <trkpt lat="46.43609" lon="-0.35476">
        <ele>89</ele>
        <time>2013-03-19T15:19:53Z</time>
      </trkpt>
      <trkpt lat="46.43612" lon="-0.35477">
        <ele>89</ele>
        <time>2013-03-19T15:19:58Z</time>
      </trkpt>
      <trkpt lat="46.43616" lon="-0.35473">
        <ele>89</ele>
        <time>2013-03-19T15:20:03Z</time>
      </trkpt>
      <trkpt lat="46.43618" lon="-0.3547">
        <ele>89</ele>
        <time>2013-03-19T15:20:08Z</time>
      </trkpt>
      <trkpt lat="46.4362" lon="-0.35468">
        <ele>89</ele>
        <time>2013-03-19T15:20:13Z</time>
      </trkpt>
      <trkpt lat="46.43625" lon="-0.35466">
        <ele>93</ele>
        <time>2013-03-19T15:20:18Z</time>
      </trkpt>
      <trkpt lat="46.43626" lon="-0.35461">
        <ele>93</ele>
        <time>2013-03-19T15:20:23Z</time>
      </trkpt>
      <trkpt lat="46.43626" lon="-0.35455">
        <ele>95</ele>
        <time>2013-03-19T15:20:28Z</time>
      </trkpt>
      <trkpt lat="46.43624" lon="-0.3545">
        <ele>93</ele>
        <time>2013-03-19T15:20:33Z</time>
      </trkpt>
      <trkpt lat="46.43622" lon="-0.35445">
        <ele>93</ele>
        <time>2013-03-19T15:20:38Z</time>
      </trkpt>
      <trkpt lat="46.43619" lon="-0.3544">
        <ele>93</ele>
        <time>2013-03-19T15:20:43Z</time>
      </trkpt>
      <trkpt lat="46.43618" lon="-0.35435">
        <ele>93</ele>
        <time>2013-03-19T15:20:48Z</time>
      </trkpt>
      <trkpt lat="46.43617" lon="-0.35434">
        <ele>93</ele>
        <time>2013-03-19T15:20:53Z</time>
      </trkpt>
      <trkpt lat="46.43613" lon="-0.35427">
        <ele>93</ele>
        <time>2013-03-19T15:20:58Z</time>
      </trkpt>
      <trkpt lat="46.43609" lon="-0.3542">
        <ele>93</ele>
        <time>2013-03-19T15:21:03Z</time>
      </trkpt>
      <trkpt lat="46.43607" lon="-0.35416">
        <ele>93</ele>
        <time>2013-03-19T15:21:08Z</time>
      </trkpt>
      <trkpt lat="46.43602" lon="-0.35409">
        <ele>93</ele>
        <time>2013-03-19T15:21:13Z</time>
      </trkpt>
      <trkpt lat="46.436" lon="-0.35407">
        <ele>93</ele>
        <time>2013-03-19T15:21:18Z</time>
      </trkpt>
      <trkpt lat="46.43601" lon="-0.35405">
        <ele>93</ele>
        <time>2013-03-19T15:21:28Z</time>
      </trkpt>
      <trkpt lat="46.43598" lon="-0.35401">
        <ele>93</ele>
        <time>2013-03-19T15:21:33Z</time>
      </trkpt>
      <trkpt lat="46.43596" lon="-0.354">
        <ele>93</ele>
        <time>2013-03-19T15:21:38Z</time>
      </trkpt>
      <trkpt lat="46.43593" lon="-0.35396">
        <ele>93</ele>
        <time>2013-03-19T15:21:43Z</time>
      </trkpt>
      <trkpt lat="46.43593" lon="-0.35394">
        <ele>93</ele>
        <time>2013-03-19T15:21:48Z</time>
      </trkpt>
      <trkpt lat="46.43592" lon="-0.35394">
        <ele>93</ele>
        <time>2013-03-19T15:21:53Z</time>
      </trkpt>
      <trkpt lat="46.4359" lon="-0.35388">
        <ele>93</ele>
        <time>2013-03-19T15:21:58Z</time>
      </trkpt>
      <trkpt lat="46.43587" lon="-0.35383">
        <ele>93</ele>
        <time>2013-03-19T15:22:03Z</time>
      </trkpt>
      <trkpt lat="46.43586" lon="-0.35382">
        <ele>93</ele>
        <time>2013-03-19T15:22:08Z</time>
      </trkpt>
      <trkpt lat="46.43587" lon="-0.3538">
        <ele>93</ele>
        <time>2013-03-19T15:22:13Z</time>
      </trkpt>
      <trkpt lat="46.43586" lon="-0.35374">
        <ele>96</ele>
        <time>2013-03-19T15:22:18Z</time>
      </trkpt>
      <trkpt lat="46.43586" lon="-0.35368">
        <ele>96</ele>
        <time>2013-03-19T15:22:23Z</time>
      </trkpt>
      <trkpt lat="46.43587" lon="-0.35363">
        <ele>96</ele>
        <time>2013-03-19T15:22:28Z</time>
      </trkpt>
      <trkpt lat="46.43587" lon="-0.3536">
        <ele>96</ele>
        <time>2013-03-19T15:22:33Z</time>
      </trkpt>
      <trkpt lat="46.4359" lon="-0.35358">
        <ele>96</ele>
        <time>2013-03-19T15:22:38Z</time>
      </trkpt>
      <trkpt lat="46.43596" lon="-0.3536">
        <ele>96</ele>
        <time>2013-03-19T15:22:43Z</time>
      </trkpt>
      <trkpt lat="46.43602" lon="-0.35361">
        <ele>96</ele>
        <time>2013-03-19T15:22:48Z</time>
      </trkpt>
      <trkpt lat="46.43605" lon="-0.35362">
        <ele>96</ele>
        <time>2013-03-19T15:22:53Z</time>
      </trkpt>
      <trkpt lat="46.4361" lon="-0.35362">
        <ele>96</ele>
        <time>2013-03-19T15:22:58Z</time>
      </trkpt>
      <trkpt lat="46.43615" lon="-0.35363">
        <ele>96</ele>
        <time>2013-03-19T15:23:03Z</time>
      </trkpt>
      <trkpt lat="46.43619" lon="-0.35363">
        <ele>96</ele>
        <time>2013-03-19T15:23:08Z</time>
      </trkpt>
      <trkpt lat="46.43624" lon="-0.35363">
        <ele>96</ele>
        <time>2013-03-19T15:23:13Z</time>
      </trkpt>
      <trkpt lat="46.43629" lon="-0.35364">
        <ele>99</ele>
        <time>2013-03-19T15:23:18Z</time>
      </trkpt>
      <trkpt lat="46.43634" lon="-0.35364">
        <ele>99</ele>
        <time>2013-03-19T15:23:23Z</time>
      </trkpt>
      <trkpt lat="46.43639" lon="-0.35365">
        <ele>99</ele>
        <time>2013-03-19T15:23:28Z</time>
      </trkpt>
      <trkpt lat="46.43643" lon="-0.35367">
        <ele>99</ele>
        <time>2013-03-19T15:23:33Z</time>
      </trkpt>
      <trkpt lat="46.43646" lon="-0.35363">
        <ele>99</ele>
        <time>2013-03-19T15:23:38Z</time>
      </trkpt>
      <trkpt lat="46.43644" lon="-0.35362">
        <ele>99</ele>
        <time>2013-03-19T15:23:43Z</time>
      </trkpt>
      <trkpt lat="46.43639" lon="-0.35358">
        <ele>99</ele>
        <time>2013-03-19T15:23:48Z</time>
      </trkpt>
      <trkpt lat="46.43635" lon="-0.35353">
        <ele>99</ele>
        <time>2013-03-19T15:23:53Z</time>
      </trkpt>
      <trkpt lat="46.4363" lon="-0.35348">
        <ele>99</ele>
        <time>2013-03-19T15:23:58Z</time>
      </trkpt>
      <trkpt lat="46.43625" lon="-0.35346">
        <ele>99</ele>
        <time>2013-03-19T15:24:03Z</time>
      </trkpt>
      <trkpt lat="46.43621" lon="-0.35344">
        <ele>96</ele>
        <time>2013-03-19T15:24:08Z</time>
      </trkpt>
      <trkpt lat="46.43617" lon="-0.3534">
        <ele>96</ele>
        <time>2013-03-19T15:24:13Z</time>
      </trkpt>
      <trkpt lat="46.43613" lon="-0.35339">
        <ele>96</ele>
        <time>2013-03-19T15:24:18Z</time>
      </trkpt>
      <trkpt lat="46.4361" lon="-0.35338">
        <ele>96</ele>
        <time>2013-03-19T15:24:23Z</time>
      </trkpt>
      <trkpt lat="46.43608" lon="-0.35336">
        <ele>96</ele>
        <time>2013-03-19T15:24:28Z</time>
      </trkpt>
      <trkpt lat="46.43604" lon="-0.35331">
        <ele>96</ele>
        <time>2013-03-19T15:24:33Z</time>
      </trkpt>
      <trkpt lat="46.43601" lon="-0.35327">
        <ele>96</ele>
        <time>2013-03-19T15:24:38Z</time>
      </trkpt>
      <trkpt lat="46.43596" lon="-0.3532">
        <ele>96</ele>
        <time>2013-03-19T15:24:43Z</time>
      </trkpt>
      <trkpt lat="46.43592" lon="-0.35316">
        <ele>96</ele>
        <time>2013-03-19T15:24:48Z</time>
      </trkpt>
      <trkpt lat="46.43589" lon="-0.3531">
        <ele>96</ele>
        <time>2013-03-19T15:24:53Z</time>
      </trkpt>
      <trkpt lat="46.43585" lon="-0.35304">
        <ele>96</ele>
        <time>2013-03-19T15:24:58Z</time>
      </trkpt>
      <trkpt lat="46.43581" lon="-0.35299">
        <ele>96</ele>
        <time>2013-03-19T15:25:03Z</time>
      </trkpt>
      <trkpt lat="46.43577" lon="-0.35293">
        <ele>96</ele>
        <time>2013-03-19T15:25:08Z</time>
      </trkpt>
      <trkpt lat="46.43572" lon="-0.35289">
        <ele>96</ele>
        <time>2013-03-19T15:25:13Z</time>
      </trkpt>
      <trkpt lat="46.43567" lon="-0.35284">
        <ele>96</ele>
        <time>2013-03-19T15:25:18Z</time>
      </trkpt>
      <trkpt lat="46.43561" lon="-0.35281">
        <ele>96</ele>
        <time>2013-03-19T15:25:23Z</time>
      </trkpt>
      <trkpt lat="46.43556" lon="-0.35277">
        <ele>96</ele>
        <time>2013-03-19T15:25:28Z</time>
      </trkpt>
      <trkpt lat="46.4355" lon="-0.35274">
        <ele>96</ele>
        <time>2013-03-19T15:25:33Z</time>
      </trkpt>
      <trkpt lat="46.43545" lon="-0.35271">
        <ele>96</ele>
        <time>2013-03-19T15:25:38Z</time>
      </trkpt>
      <trkpt lat="46.43539" lon="-0.35268">
        <ele>92</ele>
        <time>2013-03-19T15:25:43Z</time>
      </trkpt>
      <trkpt lat="46.43534" lon="-0.35264">
        <ele>92</ele>
        <time>2013-03-19T15:25:48Z</time>
      </trkpt>
      <trkpt lat="46.4353" lon="-0.35261">
        <ele>92</ele>
        <time>2013-03-19T15:25:53Z</time>
      </trkpt>
      <trkpt lat="46.43524" lon="-0.35257">
        <ele>92</ele>
        <time>2013-03-19T15:25:58Z</time>
      </trkpt>
      <trkpt lat="46.43519" lon="-0.35256">
        <ele>92</ele>
        <time>2013-03-19T15:26:03Z</time>
      </trkpt>
      <trkpt lat="46.43514" lon="-0.35254">
        <ele>92</ele>
        <time>2013-03-19T15:26:08Z</time>
      </trkpt>
      <trkpt lat="46.43509" lon="-0.35252">
        <ele>92</ele>
        <time>2013-03-19T15:26:13Z</time>
      </trkpt>
      <trkpt lat="46.43505" lon="-0.3525">
        <ele>92</ele>
        <time>2013-03-19T15:26:18Z</time>
      </trkpt>
      <trkpt lat="46.43502" lon="-0.35249">
        <ele>92</ele>
        <time>2013-03-19T15:26:23Z</time>
      </trkpt>
      <trkpt lat="46.43497" lon="-0.35247">
        <ele>92</ele>
        <time>2013-03-19T15:26:28Z</time>
      </trkpt>
      <trkpt lat="46.43492" lon="-0.35247">
        <ele>92</ele>
        <time>2013-03-19T15:26:33Z</time>
      </trkpt>
      <trkpt lat="46.43487" lon="-0.35246">
        <ele>92</ele>
        <time>2013-03-19T15:26:38Z</time>
      </trkpt>
      <trkpt lat="46.43482" lon="-0.35247">
        <ele>92</ele>
        <time>2013-03-19T15:26:43Z</time>
      </trkpt>
      <trkpt lat="46.43476" lon="-0.35247">
        <ele>92</ele>
        <time>2013-03-19T15:26:48Z</time>
      </trkpt>
      <trkpt lat="46.4347" lon="-0.35249">
        <ele>92</ele>
        <time>2013-03-19T15:26:53Z</time>
      </trkpt>
      <trkpt lat="46.43465" lon="-0.3525">
        <ele>92</ele>
        <time>2013-03-19T15:26:58Z</time>
      </trkpt>
      <trkpt lat="46.4346" lon="-0.35253">
        <ele>92</ele>
        <time>2013-03-19T15:27:03Z</time>
      </trkpt>
      <trkpt lat="46.43455" lon="-0.35257">
        <ele>92</ele>
        <time>2013-03-19T15:27:08Z</time>
      </trkpt>
      <trkpt lat="46.4345" lon="-0.35258">
        <ele>92</ele>
        <time>2013-03-19T15:27:13Z</time>
      </trkpt>
      <trkpt lat="46.43445" lon="-0.35259">
        <ele>92</ele>
        <time>2013-03-19T15:27:18Z</time>
      </trkpt>
      <trkpt lat="46.43439" lon="-0.35262">
        <ele>92</ele>
        <time>2013-03-19T15:27:23Z</time>
      </trkpt>
      <trkpt lat="46.43434" lon="-0.35264">
        <ele>92</ele>
        <time>2013-03-19T15:27:28Z</time>
      </trkpt>
      <trkpt lat="46.4343" lon="-0.35266">
        <ele>92</ele>
        <time>2013-03-19T15:27:33Z</time>
      </trkpt>
      <trkpt lat="46.43424" lon="-0.35268">
        <ele>92</ele>
        <time>2013-03-19T15:27:38Z</time>
      </trkpt>
      <trkpt lat="46.43419" lon="-0.3527">
        <ele>92</ele>
        <time>2013-03-19T15:27:43Z</time>
      </trkpt>
      <trkpt lat="46.43414" lon="-0.35271">
        <ele>92</ele>
        <time>2013-03-19T15:27:48Z</time>
      </trkpt>
      <trkpt lat="46.43409" lon="-0.35272">
        <ele>92</ele>
        <time>2013-03-19T15:27:53Z</time>
      </trkpt>
      <trkpt lat="46.43403" lon="-0.35273">
        <ele>92</ele>
        <time>2013-03-19T15:27:58Z</time>
      </trkpt>
      <trkpt lat="46.43398" lon="-0.35273">
        <ele>92</ele>
        <time>2013-03-19T15:28:03Z</time>
      </trkpt>
      <trkpt lat="46.43393" lon="-0.35272">
        <ele>92</ele>
        <time>2013-03-19T15:28:08Z</time>
      </trkpt>
      <trkpt lat="46.43387" lon="-0.35268">
        <ele>92</ele>
        <time>2013-03-19T15:28:13Z</time>
      </trkpt>
      <trkpt lat="46.43383" lon="-0.35265">
        <ele>92</ele>
        <time>2013-03-19T15:28:18Z</time>
      </trkpt>
      <trkpt lat="46.4338" lon="-0.35262">
        <ele>92</ele>
        <time>2013-03-19T15:28:23Z</time>
      </trkpt>
      <trkpt lat="46.43376" lon="-0.35258">
        <ele>92</ele>
        <time>2013-03-19T15:28:28Z</time>
      </trkpt>
      <trkpt lat="46.43372" lon="-0.35252">
        <ele>84</ele>
        <time>2013-03-19T15:28:33Z</time>
      </trkpt>
      <trkpt lat="46.43368" lon="-0.35247">
        <ele>84</ele>
        <time>2013-03-19T15:28:38Z</time>
      </trkpt>
      <trkpt lat="46.43365" lon="-0.35238">
        <ele>84</ele>
        <time>2013-03-19T15:28:43Z</time>
      </trkpt>
      <trkpt lat="46.43359" lon="-0.35232">
        <ele>84</ele>
        <time>2013-03-19T15:28:48Z</time>
      </trkpt>
      <trkpt lat="46.43355" lon="-0.35225">
        <ele>84</ele>
        <time>2013-03-19T15:28:53Z</time>
      </trkpt>
      <trkpt lat="46.43352" lon="-0.35217">
        <ele>84</ele>
        <time>2013-03-19T15:28:58Z</time>
      </trkpt>
      <trkpt lat="46.43347" lon="-0.3521">
        <ele>84</ele>
        <time>2013-03-19T15:29:03Z</time>
      </trkpt>
      <trkpt lat="46.43346" lon="-0.35203">
        <ele>83</ele>
        <time>2013-03-19T15:29:08Z</time>
      </trkpt>
      <trkpt lat="46.43346" lon="-0.35195">
        <ele>83</ele>
        <time>2013-03-19T15:29:13Z</time>
      </trkpt>
      <trkpt lat="46.43345" lon="-0.35188">
        <ele>83</ele>
        <time>2013-03-19T15:29:18Z</time>
      </trkpt>
      <trkpt lat="46.43344" lon="-0.35181">
        <ele>83</ele>
        <time>2013-03-19T15:29:23Z</time>
      </trkpt>
      <trkpt lat="46.43343" lon="-0.35176">
        <ele>83</ele>
        <time>2013-03-19T15:29:28Z</time>
      </trkpt>
      <trkpt lat="46.43343" lon="-0.35168">
        <ele>83</ele>
        <time>2013-03-19T15:29:33Z</time>
      </trkpt>
      <trkpt lat="46.43342" lon="-0.3516">
        <ele>83</ele>
        <time>2013-03-19T15:29:38Z</time>
      </trkpt>
      <trkpt lat="46.43339" lon="-0.35152">
        <ele>83</ele>
        <time>2013-03-19T15:29:43Z</time>
      </trkpt>
      <trkpt lat="46.43337" lon="-0.35144">
        <ele>83</ele>
        <time>2013-03-19T15:29:48Z</time>
      </trkpt>
      <trkpt lat="46.43335" lon="-0.35142">
        <ele>83</ele>
        <time>2013-03-19T15:29:53Z</time>
      </trkpt>
      <trkpt lat="46.43335" lon="-0.35136">
        <ele>83</ele>
        <time>2013-03-19T15:29:58Z</time>
      </trkpt>
      <trkpt lat="46.43333" lon="-0.35126">
        <ele>83</ele>
        <time>2013-03-19T15:30:03Z</time>
      </trkpt>
      <trkpt lat="46.4333" lon="-0.35119">
        <ele>82</ele>
        <time>2013-03-19T15:30:08Z</time>
      </trkpt>
      <trkpt lat="46.43329" lon="-0.35114">
        <ele>82</ele>
        <time>2013-03-19T15:30:13Z</time>
      </trkpt>
      <trkpt lat="46.43329" lon="-0.35114">
        <ele>82</ele>
        <time>2013-03-19T15:30:23Z</time>
      </trkpt>
      <trkpt lat="46.4333" lon="-0.35113">
        <ele>82</ele>
        <time>2013-03-19T15:30:28Z</time>
      </trkpt>
      <trkpt lat="46.4333" lon="-0.35113">
        <ele>82</ele>
        <time>2013-03-19T15:30:38Z</time>
      </trkpt>
      <trkpt lat="46.43329" lon="-0.35113">
        <ele>82</ele>
        <time>2013-03-19T15:30:43Z</time>
      </trkpt>
      <trkpt lat="46.43329" lon="-0.35113">
        <ele>82</ele>
        <time>2013-03-19T15:30:49Z</time>
      </trkpt>
      <trkpt lat="46.43328" lon="-0.35113">
        <ele>82</ele>
        <time>2013-03-19T15:30:53Z</time>
      </trkpt>
      <trkpt lat="46.43326" lon="-0.35109">
        <ele>82</ele>
        <time>2013-03-19T15:30:58Z</time>
      </trkpt>
      <trkpt lat="46.43325" lon="-0.35107">
        <ele>82</ele>
        <time>2013-03-19T15:31:03Z</time>
      </trkpt>
      <trkpt lat="46.43327" lon="-0.35107">
        <ele>82</ele>
        <time>2013-03-19T15:31:23Z</time>
      </trkpt>
      <trkpt lat="46.43327" lon="-0.35106">
        <ele>82</ele>
        <time>2013-03-19T15:31:28Z</time>
      </trkpt>
      <trkpt lat="46.43327" lon="-0.35104">
        <ele>82</ele>
        <time>2013-03-19T15:32:23Z</time>
      </trkpt>
      <trkpt lat="46.43327" lon="-0.35102">
        <ele>82</ele>
        <time>2013-03-19T15:32:28Z</time>
      </trkpt>
      <trkpt lat="46.43327" lon="-0.351">
        <ele>82</ele>
        <time>2013-03-19T15:32:33Z</time>
      </trkpt>
      <trkpt lat="46.43324" lon="-0.35095">
        <ele>82</ele>
        <time>2013-03-19T15:32:38Z</time>
      </trkpt>
      <trkpt lat="46.4332" lon="-0.35087">
        <ele>82</ele>
        <time>2013-03-19T15:32:43Z</time>
      </trkpt>
      <trkpt lat="46.43317" lon="-0.3508">
        <ele>82</ele>
        <time>2013-03-19T15:32:48Z</time>
      </trkpt>
      <trkpt lat="46.43316" lon="-0.35072">
        <ele>82</ele>
        <time>2013-03-19T15:32:53Z</time>
      </trkpt>
      <trkpt lat="46.43313" lon="-0.35067">
        <ele>82</ele>
        <time>2013-03-19T15:32:58Z</time>
      </trkpt>
      <trkpt lat="46.43311" lon="-0.35061">
        <ele>82</ele>
        <time>2013-03-19T15:33:03Z</time>
      </trkpt>
      <trkpt lat="46.43309" lon="-0.35054">
        <ele>82</ele>
        <time>2013-03-19T15:33:08Z</time>
      </trkpt>
      <trkpt lat="46.43307" lon="-0.35049">
        <ele>82</ele>
        <time>2013-03-19T15:33:13Z</time>
      </trkpt>
      <trkpt lat="46.43308" lon="-0.35048">
        <ele>82</ele>
        <time>2013-03-19T15:33:18Z</time>
      </trkpt>
      <trkpt lat="46.43308" lon="-0.35049">
        <ele>82</ele>
        <time>2013-03-19T15:33:23Z</time>
      </trkpt>
      <trkpt lat="46.43307" lon="-0.35048">
        <ele>82</ele>
        <time>2013-03-19T15:33:28Z</time>
      </trkpt>
      <trkpt lat="46.43305" lon="-0.35044">
        <ele>82</ele>
        <time>2013-03-19T15:33:33Z</time>
      </trkpt>
      <trkpt lat="46.43302" lon="-0.35039">
        <ele>79</ele>
        <time>2013-03-19T15:33:38Z</time>
      </trkpt>
      <trkpt lat="46.43299" lon="-0.35034">
        <ele>79</ele>
        <time>2013-03-19T15:33:43Z</time>
      </trkpt>
      <trkpt lat="46.43299" lon="-0.35033">
        <ele>79</ele>
        <time>2013-03-19T15:33:48Z</time>
      </trkpt>
      <trkpt lat="46.43297" lon="-0.3503">
        <ele>79</ele>
        <time>2013-03-19T15:33:53Z</time>
      </trkpt>
      <trkpt lat="46.43294" lon="-0.35026">
        <ele>79</ele>
        <time>2013-03-19T15:33:58Z</time>
      </trkpt>
      <trkpt lat="46.43289" lon="-0.35019">
        <ele>69</ele>
        <time>2013-03-19T15:34:03Z</time>
      </trkpt>
      <trkpt lat="46.43285" lon="-0.35016">
        <ele>69</ele>
        <time>2013-03-19T15:34:08Z</time>
      </trkpt>
      <trkpt lat="46.43278" lon="-0.35015">
        <ele>69</ele>
        <time>2013-03-19T15:34:13Z</time>
      </trkpt>
      <trkpt lat="46.4327" lon="-0.35009">
        <ele>69</ele>
        <time>2013-03-19T15:34:18Z</time>
      </trkpt>
      <trkpt lat="46.43266" lon="-0.35008">
        <ele>69</ele>
        <time>2013-03-19T15:34:23Z</time>
      </trkpt>
      <trkpt lat="46.43259" lon="-0.35006">
        <ele>69</ele>
        <time>2013-03-19T15:34:28Z</time>
      </trkpt>
      <trkpt lat="46.43253" lon="-0.35007">
        <ele>69</ele>
        <time>2013-03-19T15:34:33Z</time>
      </trkpt>
      <trkpt lat="46.43248" lon="-0.35008">
        <ele>69</ele>
        <time>2013-03-19T15:34:38Z</time>
      </trkpt>
      <trkpt lat="46.43244" lon="-0.35009">
        <ele>69</ele>
        <time>2013-03-19T15:34:43Z</time>
      </trkpt>
      <trkpt lat="46.43239" lon="-0.3501">
        <ele>69</ele>
        <time>2013-03-19T15:34:48Z</time>
      </trkpt>
      <trkpt lat="46.43235" lon="-0.35011">
        <ele>69</ele>
        <time>2013-03-19T15:34:53Z</time>
      </trkpt>
      <trkpt lat="46.4323" lon="-0.35014">
        <ele>69</ele>
        <time>2013-03-19T15:34:58Z</time>
      </trkpt>
      <trkpt lat="46.43225" lon="-0.35014">
        <ele>69</ele>
        <time>2013-03-19T15:35:03Z</time>
      </trkpt>
      <trkpt lat="46.43221" lon="-0.35016">
        <ele>69</ele>
        <time>2013-03-19T15:35:08Z</time>
      </trkpt>
      <trkpt lat="46.43219" lon="-0.35017">
        <ele>69</ele>
        <time>2013-03-19T15:35:13Z</time>
      </trkpt>
      <trkpt lat="46.43214" lon="-0.3502">
        <ele>69</ele>
        <time>2013-03-19T15:35:18Z</time>
      </trkpt>
      <trkpt lat="46.43209" lon="-0.35022">
        <ele>69</ele>
        <time>2013-03-19T15:35:23Z</time>
      </trkpt>
      <trkpt lat="46.43204" lon="-0.35025">
        <ele>70</ele>
        <time>2013-03-19T15:35:28Z</time>
      </trkpt>
      <trkpt lat="46.432" lon="-0.35028">
        <ele>70</ele>
        <time>2013-03-19T15:35:33Z</time>
      </trkpt>
      <trkpt lat="46.43196" lon="-0.3503">
        <ele>70</ele>
        <time>2013-03-19T15:35:38Z</time>
      </trkpt>
      <trkpt lat="46.43191" lon="-0.35032">
        <ele>70</ele>
        <time>2013-03-19T15:35:43Z</time>
      </trkpt>
      <trkpt lat="46.43189" lon="-0.35032">
        <ele>70</ele>
        <time>2013-03-19T15:35:48Z</time>
      </trkpt>
      <trkpt lat="46.43184" lon="-0.35033">
        <ele>70</ele>
        <time>2013-03-19T15:35:53Z</time>
      </trkpt>
      <trkpt lat="46.43177" lon="-0.35031">
        <ele>70</ele>
        <time>2013-03-19T15:35:58Z</time>
      </trkpt>
      <trkpt lat="46.43169" lon="-0.35028">
        <ele>70</ele>
        <time>2013-03-19T15:36:03Z</time>
      </trkpt>
      <trkpt lat="46.43167" lon="-0.3503">
        <ele>70</ele>
        <time>2013-03-19T15:36:08Z</time>
      </trkpt>
      <trkpt lat="46.43163" lon="-0.3503">
        <ele>70</ele>
        <time>2013-03-19T15:36:13Z</time>
      </trkpt>
      <trkpt lat="46.4316" lon="-0.35033">
        <ele>70</ele>
        <time>2013-03-19T15:36:18Z</time>
      </trkpt>
      <trkpt lat="46.43156" lon="-0.35036">
        <ele>70</ele>
        <time>2013-03-19T15:36:23Z</time>
      </trkpt>
      <trkpt lat="46.43152" lon="-0.35038">
        <ele>70</ele>
        <time>2013-03-19T15:36:28Z</time>
      </trkpt>
      <trkpt lat="46.43148" lon="-0.35042">
        <ele>73</ele>
        <time>2013-03-19T15:36:33Z</time>
      </trkpt>
      <trkpt lat="46.43143" lon="-0.35041">
        <ele>70</ele>
        <time>2013-03-19T15:36:38Z</time>
      </trkpt>
      <trkpt lat="46.4314" lon="-0.35043">
        <ele>73</ele>
        <time>2013-03-19T15:36:43Z</time>
      </trkpt>
      <trkpt lat="46.43136" lon="-0.35043">
        <ele>73</ele>
        <time>2013-03-19T15:36:48Z</time>
      </trkpt>
      <trkpt lat="46.43131" lon="-0.35044">
        <ele>73</ele>
        <time>2013-03-19T15:36:53Z</time>
      </trkpt>
      <trkpt lat="46.4313" lon="-0.35043">
        <ele>73</ele>
        <time>2013-03-19T15:36:58Z</time>
      </trkpt>
      <trkpt lat="46.43128" lon="-0.35043">
        <ele>73</ele>
        <time>2013-03-19T15:37:03Z</time>
      </trkpt>
      <trkpt lat="46.43125" lon="-0.35044">
        <ele>73</ele>
        <time>2013-03-19T15:37:08Z</time>
      </trkpt>
      <trkpt lat="46.43125" lon="-0.35046">
        <ele>83</ele>
        <time>2013-03-19T15:37:13Z</time>
      </trkpt>
      <trkpt lat="46.43123" lon="-0.35049">
        <ele>83</ele>
        <time>2013-03-19T15:37:18Z</time>
      </trkpt>
      <trkpt lat="46.43125" lon="-0.35052">
        <ele>83</ele>
        <time>2013-03-19T15:37:23Z</time>
      </trkpt>
      <trkpt lat="46.43124" lon="-0.35052">
        <ele>83</ele>
        <time>2013-03-19T15:37:28Z</time>
      </trkpt>
      <trkpt lat="46.43123" lon="-0.35048">
        <ele>83</ele>
        <time>2013-03-19T15:37:38Z</time>
      </trkpt>
      <trkpt lat="46.43121" lon="-0.35047">
        <ele>83</ele>
        <time>2013-03-19T15:37:48Z</time>
      </trkpt>
      <trkpt lat="46.43117" lon="-0.35048">
        <ele>83</ele>
        <time>2013-03-19T15:37:53Z</time>
      </trkpt>
      <trkpt lat="46.43115" lon="-0.35049">
        <ele>83</ele>
        <time>2013-03-19T15:37:58Z</time>
      </trkpt>
      <trkpt lat="46.43114" lon="-0.35051">
        <ele>83</ele>
        <time>2013-03-19T15:38:03Z</time>
      </trkpt>
      <trkpt lat="46.4311" lon="-0.35052">
        <ele>83</ele>
        <time>2013-03-19T15:38:08Z</time>
      </trkpt>
      <trkpt lat="46.43105" lon="-0.35054">
        <ele>83</ele>
        <time>2013-03-19T15:38:13Z</time>
      </trkpt>
      <trkpt lat="46.43101" lon="-0.35057">
        <ele>83</ele>
        <time>2013-03-19T15:38:18Z</time>
      </trkpt>
      <trkpt lat="46.43096" lon="-0.35054">
        <ele>83</ele>
        <time>2013-03-19T15:38:23Z</time>
      </trkpt>
      <trkpt lat="46.43092" lon="-0.35055">
        <ele>83</ele>
        <time>2013-03-19T15:38:28Z</time>
      </trkpt>
      <trkpt lat="46.43087" lon="-0.35059">
        <ele>83</ele>
        <time>2013-03-19T15:38:33Z</time>
      </trkpt>
      <trkpt lat="46.43081" lon="-0.35061">
        <ele>83</ele>
        <time>2013-03-19T15:38:38Z</time>
      </trkpt>
      <trkpt lat="46.43078" lon="-0.35064">
        <ele>83</ele>
        <time>2013-03-19T15:38:43Z</time>
      </trkpt>
      <trkpt lat="46.43073" lon="-0.35065">
        <ele>83</ele>
        <time>2013-03-19T15:38:48Z</time>
      </trkpt>
      <trkpt lat="46.43068" lon="-0.35065">
        <ele>83</ele>
        <time>2013-03-19T15:38:53Z</time>
      </trkpt>
      <trkpt lat="46.43063" lon="-0.35066">
        <ele>83</ele>
        <time>2013-03-19T15:38:58Z</time>
      </trkpt>
      <trkpt lat="46.43057" lon="-0.35069">
        <ele>83</ele>
        <time>2013-03-19T15:39:03Z</time>
      </trkpt>
      <trkpt lat="46.43052" lon="-0.3507">
        <ele>83</ele>
        <time>2013-03-19T15:39:08Z</time>
      </trkpt>
      <trkpt lat="46.43047" lon="-0.35073">
        <ele>83</ele>
        <time>2013-03-19T15:39:13Z</time>
      </trkpt>
      <trkpt lat="46.43043" lon="-0.35076">
        <ele>83</ele>
        <time>2013-03-19T15:39:18Z</time>
      </trkpt>
      <trkpt lat="46.43039" lon="-0.3508">
        <ele>89</ele>
        <time>2013-03-19T15:39:23Z</time>
      </trkpt>
      <trkpt lat="46.43034" lon="-0.35082">
        <ele>89</ele>
        <time>2013-03-19T15:39:28Z</time>
      </trkpt>
      <trkpt lat="46.43029" lon="-0.35085">
        <ele>89</ele>
        <time>2013-03-19T15:39:33Z</time>
      </trkpt>
      <trkpt lat="46.43026" lon="-0.35089">
        <ele>89</ele>
        <time>2013-03-19T15:39:38Z</time>
      </trkpt>
      <trkpt lat="46.43022" lon="-0.35093">
        <ele>89</ele>
        <time>2013-03-19T15:39:43Z</time>
      </trkpt>
      <trkpt lat="46.43018" lon="-0.35096">
        <ele>89</ele>
        <time>2013-03-19T15:39:48Z</time>
      </trkpt>
      <trkpt lat="46.43015" lon="-0.35098">
        <ele>89</ele>
        <time>2013-03-19T15:39:53Z</time>
      </trkpt>
      <trkpt lat="46.4301" lon="-0.35104">
        <ele>89</ele>
        <time>2013-03-19T15:39:58Z</time>
      </trkpt>
      <trkpt lat="46.43005" lon="-0.35111">
        <ele>89</ele>
        <time>2013-03-19T15:40:03Z</time>
      </trkpt>
      <trkpt lat="46.43001" lon="-0.35115">
        <ele>89</ele>
        <time>2013-03-19T15:40:08Z</time>
      </trkpt>
      <trkpt lat="46.42996" lon="-0.35119">
        <ele>89</ele>
        <time>2013-03-19T15:40:13Z</time>
      </trkpt>
      <trkpt lat="46.42992" lon="-0.35124">
        <ele>89</ele>
        <time>2013-03-19T15:40:18Z</time>
      </trkpt>
      <trkpt lat="46.42989" lon="-0.3513">
        <ele>90</ele>
        <time>2013-03-19T15:40:23Z</time>
      </trkpt>
      <trkpt lat="46.42986" lon="-0.35134">
        <ele>90</ele>
        <time>2013-03-19T15:40:28Z</time>
      </trkpt>
      <trkpt lat="46.42983" lon="-0.35137">
        <ele>90</ele>
        <time>2013-03-19T15:40:33Z</time>
      </trkpt>
      <trkpt lat="46.4298" lon="-0.3514">
        <ele>90</ele>
        <time>2013-03-19T15:40:38Z</time>
      </trkpt>
      <trkpt lat="46.42976" lon="-0.35144">
        <ele>90</ele>
        <time>2013-03-19T15:40:44Z</time>
      </trkpt>
      <trkpt lat="46.42972" lon="-0.35148">
        <ele>90</ele>
        <time>2013-03-19T15:40:48Z</time>
      </trkpt>
      <trkpt lat="46.42968" lon="-0.3515">
        <ele>90</ele>
        <time>2013-03-19T15:40:53Z</time>
      </trkpt>
      <trkpt lat="46.42964" lon="-0.35153">
        <ele>90</ele>
        <time>2013-03-19T15:40:58Z</time>
      </trkpt>
      <trkpt lat="46.42961" lon="-0.35155">
        <ele>90</ele>
        <time>2013-03-19T15:41:03Z</time>
      </trkpt>
      <trkpt lat="46.42957" lon="-0.35153">
        <ele>92</ele>
        <time>2013-03-19T15:41:08Z</time>
      </trkpt>
      <trkpt lat="46.42957" lon="-0.35152">
        <ele>92</ele>
        <time>2013-03-19T15:41:13Z</time>
      </trkpt>
      <trkpt lat="46.42956" lon="-0.35151">
        <ele>92</ele>
        <time>2013-03-19T15:41:18Z</time>
      </trkpt>
      <trkpt lat="46.42953" lon="-0.35146">
        <ele>92</ele>
        <time>2013-03-19T15:41:23Z</time>
      </trkpt>
      <trkpt lat="46.4295" lon="-0.35142">
        <ele>92</ele>
        <time>2013-03-19T15:41:28Z</time>
      </trkpt>
      <trkpt lat="46.42948" lon="-0.35135">
        <ele>92</ele>
        <time>2013-03-19T15:41:33Z</time>
      </trkpt>
      <trkpt lat="46.42946" lon="-0.35129">
        <ele>92</ele>
        <time>2013-03-19T15:41:38Z</time>
      </trkpt>
      <trkpt lat="46.42945" lon="-0.35124">
        <ele>90</ele>
        <time>2013-03-19T15:41:44Z</time>
      </trkpt>
      <trkpt lat="46.42942" lon="-0.35118">
        <ele>90</ele>
        <time>2013-03-19T15:41:48Z</time>
      </trkpt>
      <trkpt lat="46.4294" lon="-0.35111">
        <ele>90</ele>
        <time>2013-03-19T15:41:53Z</time>
      </trkpt>
      <trkpt lat="46.42938" lon="-0.35109">
        <ele>90</ele>
        <time>2013-03-19T15:41:58Z</time>
      </trkpt>
      <trkpt lat="46.42937" lon="-0.35101">
        <ele>90</ele>
        <time>2013-03-19T15:42:03Z</time>
      </trkpt>
      <trkpt lat="46.42934" lon="-0.35095">
        <ele>90</ele>
        <time>2013-03-19T15:42:08Z</time>
      </trkpt>
      <trkpt lat="46.42933" lon="-0.35087">
        <ele>90</ele>
        <time>2013-03-19T15:42:13Z</time>
      </trkpt>
      <trkpt lat="46.42932" lon="-0.35079">
        <ele>90</ele>
        <time>2013-03-19T15:42:18Z</time>
      </trkpt>
      <trkpt lat="46.4293" lon="-0.3507">
        <ele>90</ele>
        <time>2013-03-19T15:42:23Z</time>
      </trkpt>
      <trkpt lat="46.42929" lon="-0.35064">
        <ele>90</ele>
        <time>2013-03-19T15:42:28Z</time>
      </trkpt>
      <trkpt lat="46.42927" lon="-0.35057">
        <ele>90</ele>
        <time>2013-03-19T15:42:33Z</time>
      </trkpt>
      <trkpt lat="46.42926" lon="-0.35049">
        <ele>90</ele>
        <time>2013-03-19T15:42:38Z</time>
      </trkpt>
      <trkpt lat="46.42924" lon="-0.35042">
        <ele>90</ele>
        <time>2013-03-19T15:42:43Z</time>
      </trkpt>
      <trkpt lat="46.42923" lon="-0.35034">
        <ele>88</ele>
        <time>2013-03-19T15:42:48Z</time>
      </trkpt>
      <trkpt lat="46.4292" lon="-0.35026">
        <ele>88</ele>
        <time>2013-03-19T15:42:53Z</time>
      </trkpt>
      <trkpt lat="46.42919" lon="-0.35021">
        <ele>88</ele>
        <time>2013-03-19T15:42:58Z</time>
      </trkpt>
      <trkpt lat="46.42917" lon="-0.35014">
        <ele>88</ele>
        <time>2013-03-19T15:43:03Z</time>
      </trkpt>
      <trkpt lat="46.42916" lon="-0.35006">
        <ele>88</ele>
        <time>2013-03-19T15:43:08Z</time>
      </trkpt>
      <trkpt lat="46.42913" lon="-0.34996">
        <ele>88</ele>
        <time>2013-03-19T15:43:13Z</time>
      </trkpt>
      <trkpt lat="46.42911" lon="-0.34988">
        <ele>88</ele>
        <time>2013-03-19T15:43:18Z</time>
      </trkpt>
      <trkpt lat="46.42909" lon="-0.34981">
        <ele>88</ele>
        <time>2013-03-19T15:43:23Z</time>
      </trkpt>
      <trkpt lat="46.42908" lon="-0.34973">
        <ele>88</ele>
        <time>2013-03-19T15:43:28Z</time>
      </trkpt>
      <trkpt lat="46.42905" lon="-0.34966">
        <ele>88</ele>
        <time>2013-03-19T15:43:33Z</time>
      </trkpt>
      <trkpt lat="46.42904" lon="-0.34957">
        <ele>84</ele>
        <time>2013-03-19T15:43:38Z</time>
      </trkpt>
      <trkpt lat="46.42903" lon="-0.3495">
        <ele>84</ele>
        <time>2013-03-19T15:43:43Z</time>
      </trkpt>
      <trkpt lat="46.42901" lon="-0.34943">
        <ele>84</ele>
        <time>2013-03-19T15:43:48Z</time>
      </trkpt>
      <trkpt lat="46.42897" lon="-0.34933">
        <ele>84</ele>
        <time>2013-03-19T15:43:53Z</time>
      </trkpt>
      <trkpt lat="46.42896" lon="-0.34925">
        <ele>84</ele>
        <time>2013-03-19T15:43:58Z</time>
      </trkpt>
      <trkpt lat="46.42895" lon="-0.34918">
        <ele>84</ele>
        <time>2013-03-19T15:44:03Z</time>
      </trkpt>
      <trkpt lat="46.42894" lon="-0.34912">
        <ele>84</ele>
        <time>2013-03-19T15:44:08Z</time>
      </trkpt>
      <trkpt lat="46.42893" lon="-0.34904">
        <ele>84</ele>
        <time>2013-03-19T15:44:13Z</time>
      </trkpt>
      <trkpt lat="46.42893" lon="-0.34896">
        <ele>84</ele>
        <time>2013-03-19T15:44:18Z</time>
      </trkpt>
      <trkpt lat="46.4289" lon="-0.34887">
        <ele>84</ele>
        <time>2013-03-19T15:44:23Z</time>
      </trkpt>
      <trkpt lat="46.42888" lon="-0.34881">
        <ele>84</ele>
        <time>2013-03-19T15:44:28Z</time>
      </trkpt>
      <trkpt lat="46.42884" lon="-0.34877">
        <ele>84</ele>
        <time>2013-03-19T15:44:33Z</time>
      </trkpt>
      <trkpt lat="46.42882" lon="-0.34869">
        <ele>78</ele>
        <time>2013-03-19T15:44:38Z</time>
      </trkpt>
      <trkpt lat="46.4288" lon="-0.34863">
        <ele>78</ele>
        <time>2013-03-19T15:44:43Z</time>
      </trkpt>
      <trkpt lat="46.42879" lon="-0.34855">
        <ele>78</ele>
        <time>2013-03-19T15:44:48Z</time>
      </trkpt>
      <trkpt lat="46.42878" lon="-0.34847">
        <ele>78</ele>
        <time>2013-03-19T15:44:53Z</time>
      </trkpt>
      <trkpt lat="46.42873" lon="-0.34839">
        <ele>84</ele>
        <time>2013-03-19T15:44:58Z</time>
      </trkpt>
      <trkpt lat="46.4287" lon="-0.3483">
        <ele>84</ele>
        <time>2013-03-19T15:45:03Z</time>
      </trkpt>
      <trkpt lat="46.42868" lon="-0.34822">
        <ele>84</ele>
        <time>2013-03-19T15:45:08Z</time>
      </trkpt>
      <trkpt lat="46.42865" lon="-0.34815">
        <ele>84</ele>
        <time>2013-03-19T15:45:13Z</time>
      </trkpt>
      <trkpt lat="46.42864" lon="-0.34808">
        <ele>84</ele>
        <time>2013-03-19T15:45:18Z</time>
      </trkpt>
      <trkpt lat="46.42861" lon="-0.34801">
        <ele>84</ele>
        <time>2013-03-19T15:45:23Z</time>
      </trkpt>
      <trkpt lat="46.42858" lon="-0.34793">
        <ele>84</ele>
        <time>2013-03-19T15:45:28Z</time>
      </trkpt>
      <trkpt lat="46.42855" lon="-0.34786">
        <ele>82</ele>
        <time>2013-03-19T15:45:33Z</time>
      </trkpt>
      <trkpt lat="46.42853" lon="-0.3478">
        <ele>82</ele>
        <time>2013-03-19T15:45:38Z</time>
      </trkpt>
      <trkpt lat="46.42851" lon="-0.34774">
        <ele>82</ele>
        <time>2013-03-19T15:45:43Z</time>
      </trkpt>
      <trkpt lat="46.4285" lon="-0.34769">
        <ele>82</ele>
        <time>2013-03-19T15:45:48Z</time>
      </trkpt>
      <trkpt lat="46.42849" lon="-0.34762">
        <ele>82</ele>
        <time>2013-03-19T15:45:53Z</time>
      </trkpt>
      <trkpt lat="46.42846" lon="-0.34757">
        <ele>82</ele>
        <time>2013-03-19T15:45:58Z</time>
      </trkpt>
      <trkpt lat="46.42845" lon="-0.3475">
        <ele>82</ele>
        <time>2013-03-19T15:46:03Z</time>
      </trkpt>
      <trkpt lat="46.42843" lon="-0.34746">
        <ele>82</ele>
        <time>2013-03-19T15:46:08Z</time>
      </trkpt>
      <trkpt lat="46.4284" lon="-0.34738">
        <ele>82</ele>
        <time>2013-03-19T15:46:13Z</time>
      </trkpt>
      <trkpt lat="46.42837" lon="-0.34731">
        <ele>82</ele>
        <time>2013-03-19T15:46:18Z</time>
      </trkpt>
      <trkpt lat="46.42835" lon="-0.34727">
        <ele>82</ele>
        <time>2013-03-19T15:46:23Z</time>
      </trkpt>
      <trkpt lat="46.42833" lon="-0.34719">
        <ele>82</ele>
        <time>2013-03-19T15:46:28Z</time>
      </trkpt>
      <trkpt lat="46.42829" lon="-0.34711">
        <ele>82</ele>
        <time>2013-03-19T15:46:33Z</time>
      </trkpt>
      <trkpt lat="46.42825" lon="-0.34705">
        <ele>76</ele>
        <time>2013-03-19T15:46:38Z</time>
      </trkpt>
      <trkpt lat="46.42822" lon="-0.34698">
        <ele>76</ele>
        <time>2013-03-19T15:46:43Z</time>
      </trkpt>
      <trkpt lat="46.42819" lon="-0.34691">
        <ele>76</ele>
        <time>2013-03-19T15:46:48Z</time>
      </trkpt>
      <trkpt lat="46.42814" lon="-0.34684">
        <ele>76</ele>
        <time>2013-03-19T15:46:53Z</time>
      </trkpt>
      <trkpt lat="46.4281" lon="-0.34678">
        <ele>76</ele>
        <time>2013-03-19T15:46:58Z</time>
      </trkpt>
      <trkpt lat="46.42807" lon="-0.34676">
        <ele>76</ele>
        <time>2013-03-19T15:47:03Z</time>
      </trkpt>
      <trkpt lat="46.42803" lon="-0.34672">
        <ele>76</ele>
        <time>2013-03-19T15:47:08Z</time>
      </trkpt>
      <trkpt lat="46.42799" lon="-0.34668">
        <ele>76</ele>
        <time>2013-03-19T15:47:13Z</time>
      </trkpt>
      <trkpt lat="46.42794" lon="-0.34663">
        <ele>76</ele>
        <time>2013-03-19T15:47:18Z</time>
      </trkpt>
      <trkpt lat="46.42788" lon="-0.34657">
        <ele>84</ele>
        <time>2013-03-19T15:47:23Z</time>
      </trkpt>
      <trkpt lat="46.42784" lon="-0.34654">
        <ele>84</ele>
        <time>2013-03-19T15:47:28Z</time>
      </trkpt>
      <trkpt lat="46.42781" lon="-0.34649">
        <ele>84</ele>
        <time>2013-03-19T15:47:33Z</time>
      </trkpt>
      <trkpt lat="46.42777" lon="-0.34645">
        <ele>84</ele>
        <time>2013-03-19T15:47:38Z</time>
      </trkpt>
      <trkpt lat="46.42777" lon="-0.34644">
        <ele>84</ele>
        <time>2013-03-19T15:47:43Z</time>
      </trkpt>
      <trkpt lat="46.42773" lon="-0.34639">
        <ele>84</ele>
        <time>2013-03-19T15:47:48Z</time>
      </trkpt>
      <trkpt lat="46.42769" lon="-0.34634">
        <ele>84</ele>
        <time>2013-03-19T15:47:53Z</time>
      </trkpt>
      <trkpt lat="46.42765" lon="-0.34629">
        <ele>84</ele>
        <time>2013-03-19T15:47:58Z</time>
      </trkpt>
      <trkpt lat="46.42762" lon="-0.34624">
        <ele>74</ele>
        <time>2013-03-19T15:48:03Z</time>
      </trkpt>
      <trkpt lat="46.42758" lon="-0.3462">
        <ele>74</ele>
        <time>2013-03-19T15:48:08Z</time>
      </trkpt>
      <trkpt lat="46.42757" lon="-0.34618">
        <ele>74</ele>
        <time>2013-03-19T15:48:13Z</time>
      </trkpt>
      <trkpt lat="46.42754" lon="-0.34613">
        <ele>74</ele>
        <time>2013-03-19T15:48:18Z</time>
      </trkpt>
      <trkpt lat="46.4275" lon="-0.34608">
        <ele>74</ele>
        <time>2013-03-19T15:48:23Z</time>
      </trkpt>
      <trkpt lat="46.42745" lon="-0.34601">
        <ele>74</ele>
        <time>2013-03-19T15:48:28Z</time>
      </trkpt>
      <trkpt lat="46.4274" lon="-0.34595">
        <ele>74</ele>
        <time>2013-03-19T15:48:33Z</time>
      </trkpt>
      <trkpt lat="46.42739" lon="-0.3459">
        <ele>74</ele>
        <time>2013-03-19T15:48:38Z</time>
      </trkpt>
      <trkpt lat="46.42735" lon="-0.34583">
        <ele>74</ele>
        <time>2013-03-19T15:48:43Z</time>
      </trkpt>
      <trkpt lat="46.42729" lon="-0.34577">
        <ele>74</ele>
        <time>2013-03-19T15:48:48Z</time>
      </trkpt>
      <trkpt lat="46.42726" lon="-0.34571">
        <ele>74</ele>
        <time>2013-03-19T15:48:53Z</time>
      </trkpt>
      <trkpt lat="46.42724" lon="-0.34567">
        <ele>74</ele>
        <time>2013-03-19T15:48:58Z</time>
      </trkpt>
      <trkpt lat="46.4272" lon="-0.34563">
        <ele>74</ele>
        <time>2013-03-19T15:49:03Z</time>
      </trkpt>
      <trkpt lat="46.42716" lon="-0.34555">
        <ele>74</ele>
        <time>2013-03-19T15:49:08Z</time>
      </trkpt>
      <trkpt lat="46.4271" lon="-0.34548">
        <ele>74</ele>
        <time>2013-03-19T15:49:13Z</time>
      </trkpt>
      <trkpt lat="46.42706" lon="-0.34543">
        <ele>77</ele>
        <time>2013-03-19T15:49:18Z</time>
      </trkpt>
      <trkpt lat="46.42705" lon="-0.34539">
        <ele>67</ele>
        <time>2013-03-19T15:49:23Z</time>
      </trkpt>
      <trkpt lat="46.42704" lon="-0.34538">
        <ele>67</ele>
        <time>2013-03-19T15:49:28Z</time>
      </trkpt>
      <trkpt lat="46.42702" lon="-0.34537">
        <ele>67</ele>
        <time>2013-03-19T15:49:33Z</time>
      </trkpt>
      <trkpt lat="46.42702" lon="-0.34536">
        <ele>67</ele>
        <time>2013-03-19T15:49:38Z</time>
      </trkpt>
      <trkpt lat="46.42702" lon="-0.34535">
        <ele>67</ele>
        <time>2013-03-19T15:49:43Z</time>
      </trkpt>
      <trkpt lat="46.42702" lon="-0.34536">
        <ele>67</ele>
        <time>2013-03-19T15:49:58Z</time>
      </trkpt>
      <trkpt lat="46.42701" lon="-0.34536">
        <ele>67</ele>
        <time>2013-03-19T15:50:08Z</time>
      </trkpt>
      <trkpt lat="46.42701" lon="-0.34535">
        <ele>67</ele>
        <time>2013-03-19T15:50:13Z</time>
      </trkpt>
      <trkpt lat="46.42701" lon="-0.34535">
        <ele>67</ele>
        <time>2013-03-19T15:50:18Z</time>
      </trkpt>
      <trkpt lat="46.42699" lon="-0.34534">
        <ele>67</ele>
        <time>2013-03-19T15:50:53Z</time>
      </trkpt>
      <trkpt lat="46.42696" lon="-0.34535">
        <ele>67</ele>
        <time>2013-03-19T15:50:58Z</time>
      </trkpt>
      <trkpt lat="46.42692" lon="-0.34539">
        <ele>67</ele>
        <time>2013-03-19T15:51:04Z</time>
      </trkpt>
      <trkpt lat="46.42688" lon="-0.34544">
        <ele>77</ele>
        <time>2013-03-19T15:51:09Z</time>
      </trkpt>
      <trkpt lat="46.42681" lon="-0.34547">
        <ele>77</ele>
        <time>2013-03-19T15:51:14Z</time>
      </trkpt>
      <trkpt lat="46.42677" lon="-0.34557">
        <ele>77</ele>
        <time>2013-03-19T15:51:19Z</time>
      </trkpt>
      <trkpt lat="46.42673" lon="-0.3456">
        <ele>77</ele>
        <time>2013-03-19T15:51:24Z</time>
      </trkpt>
      <trkpt lat="46.42669" lon="-0.34567">
        <ele>77</ele>
        <time>2013-03-19T15:51:29Z</time>
      </trkpt>
      <trkpt lat="46.42665" lon="-0.34572">
        <ele>77</ele>
        <time>2013-03-19T15:51:34Z</time>
      </trkpt>
      <trkpt lat="46.42661" lon="-0.34577">
        <ele>77</ele>
        <time>2013-03-19T15:51:39Z</time>
      </trkpt>
      <trkpt lat="46.42658" lon="-0.34582">
        <ele>77</ele>
        <time>2013-03-19T15:51:44Z</time>
      </trkpt>
      <trkpt lat="46.42654" lon="-0.34585">
        <ele>77</ele>
        <time>2013-03-19T15:51:49Z</time>
      </trkpt>
      <trkpt lat="46.42649" lon="-0.34584">
        <ele>77</ele>
        <time>2013-03-19T15:51:54Z</time>
      </trkpt>
      <trkpt lat="46.42646" lon="-0.3458">
        <ele>77</ele>
        <time>2013-03-19T15:51:59Z</time>
      </trkpt>
      <trkpt lat="46.42645" lon="-0.34572">
        <ele>77</ele>
        <time>2013-03-19T15:52:04Z</time>
      </trkpt>
      <trkpt lat="46.42644" lon="-0.34566">
        <ele>77</ele>
        <time>2013-03-19T15:52:09Z</time>
      </trkpt>
      <trkpt lat="46.42644" lon="-0.34557">
        <ele>77</ele>
        <time>2013-03-19T15:52:14Z</time>
      </trkpt>
      <trkpt lat="46.42644" lon="-0.34548">
        <ele>77</ele>
        <time>2013-03-19T15:52:19Z</time>
      </trkpt>
      <trkpt lat="46.42644" lon="-0.3454">
        <ele>67</ele>
        <time>2013-03-19T15:52:24Z</time>
      </trkpt>
      <trkpt lat="46.42644" lon="-0.34531">
        <ele>67</ele>
        <time>2013-03-19T15:52:29Z</time>
      </trkpt>
      <trkpt lat="46.42643" lon="-0.34525">
        <ele>67</ele>
        <time>2013-03-19T15:52:34Z</time>
      </trkpt>
      <trkpt lat="46.42643" lon="-0.34518">
        <ele>67</ele>
        <time>2013-03-19T15:52:39Z</time>
      </trkpt>
      <trkpt lat="46.42641" lon="-0.34512">
        <ele>67</ele>
        <time>2013-03-19T15:52:44Z</time>
      </trkpt>
      <trkpt lat="46.42641" lon="-0.34507">
        <ele>67</ele>
        <time>2013-03-19T15:52:49Z</time>
      </trkpt>
      <trkpt lat="46.42635" lon="-0.34501">
        <ele>67</ele>
        <time>2013-03-19T15:52:54Z</time>
      </trkpt>
      <trkpt lat="46.42625" lon="-0.34498">
        <ele>69</ele>
        <time>2013-03-19T15:52:59Z</time>
      </trkpt>
      <trkpt lat="46.4262" lon="-0.34496">
        <ele>69</ele>
        <time>2013-03-19T15:53:04Z</time>
      </trkpt>
      <trkpt lat="46.42615" lon="-0.34493">
        <ele>69</ele>
        <time>2013-03-19T15:53:09Z</time>
      </trkpt>
      <trkpt lat="46.42609" lon="-0.34489">
        <ele>69</ele>
        <time>2013-03-19T15:53:14Z</time>
      </trkpt>
      <trkpt lat="46.42604" lon="-0.34486">
        <ele>69</ele>
        <time>2013-03-19T15:53:19Z</time>
      </trkpt>
      <trkpt lat="46.426" lon="-0.34483">
        <ele>69</ele>
        <time>2013-03-19T15:53:24Z</time>
      </trkpt>
      <trkpt lat="46.42595" lon="-0.34481">
        <ele>69</ele>
        <time>2013-03-19T15:53:29Z</time>
      </trkpt>
      <trkpt lat="46.4259" lon="-0.34476">
        <ele>69</ele>
        <time>2013-03-19T15:53:34Z</time>
      </trkpt>
      <trkpt lat="46.42585" lon="-0.34472">
        <ele>69</ele>
        <time>2013-03-19T15:53:39Z</time>
      </trkpt>
      <trkpt lat="46.42582" lon="-0.34469">
        <ele>69</ele>
        <time>2013-03-19T15:53:44Z</time>
      </trkpt>
      <trkpt lat="46.42579" lon="-0.34466">
        <ele>69</ele>
        <time>2013-03-19T15:53:49Z</time>
      </trkpt>
      <trkpt lat="46.42575" lon="-0.34463">
        <ele>69</ele>
        <time>2013-03-19T15:53:54Z</time>
      </trkpt>
      <trkpt lat="46.42571" lon="-0.3446">
        <ele>69</ele>
        <time>2013-03-19T15:53:59Z</time>
      </trkpt>
      <trkpt lat="46.42564" lon="-0.34455">
        <ele>65</ele>
        <time>2013-03-19T15:54:04Z</time>
      </trkpt>
      <trkpt lat="46.42558" lon="-0.34447">
        <ele>65</ele>
        <time>2013-03-19T15:54:09Z</time>
      </trkpt>
      <trkpt lat="46.42554" lon="-0.34445">
        <ele>65</ele>
        <time>2013-03-19T15:54:14Z</time>
      </trkpt>
      <trkpt lat="46.4255" lon="-0.34441">
        <ele>65</ele>
        <time>2013-03-19T15:54:19Z</time>
      </trkpt>
      <trkpt lat="46.42548" lon="-0.34436">
        <ele>65</ele>
        <time>2013-03-19T15:54:24Z</time>
      </trkpt>
      <trkpt lat="46.42544" lon="-0.34432">
        <ele>65</ele>
        <time>2013-03-19T15:54:29Z</time>
      </trkpt>
      <trkpt lat="46.4254" lon="-0.34426">
        <ele>67</ele>
        <time>2013-03-19T15:54:34Z</time>
      </trkpt>
      <trkpt lat="46.42536" lon="-0.3442">
        <ele>67</ele>
        <time>2013-03-19T15:54:39Z</time>
      </trkpt>
      <trkpt lat="46.42533" lon="-0.34414">
        <ele>67</ele>
        <time>2013-03-19T15:54:44Z</time>
      </trkpt>
      <trkpt lat="46.42532" lon="-0.34408">
        <ele>67</ele>
        <time>2013-03-19T15:54:49Z</time>
      </trkpt>
      <trkpt lat="46.42526" lon="-0.34404">
        <ele>67</ele>
        <time>2013-03-19T15:54:54Z</time>
      </trkpt>
      <trkpt lat="46.42524" lon="-0.344">
        <ele>67</ele>
        <time>2013-03-19T15:54:59Z</time>
      </trkpt>
      <trkpt lat="46.42522" lon="-0.34393">
        <ele>67</ele>
        <time>2013-03-19T15:55:04Z</time>
      </trkpt>
      <trkpt lat="46.42515" lon="-0.34386">
        <ele>67</ele>
        <time>2013-03-19T15:55:09Z</time>
      </trkpt>
      <trkpt lat="46.42507" lon="-0.34381">
        <ele>67</ele>
        <time>2013-03-19T15:55:14Z</time>
      </trkpt>
      <trkpt lat="46.42502" lon="-0.34374">
        <ele>65</ele>
        <time>2013-03-19T15:55:19Z</time>
      </trkpt>
      <trkpt lat="46.42497" lon="-0.34369">
        <ele>65</ele>
        <time>2013-03-19T15:55:24Z</time>
      </trkpt>
      <trkpt lat="46.42493" lon="-0.34366">
        <ele>65</ele>
        <time>2013-03-19T15:55:29Z</time>
      </trkpt>
      <trkpt lat="46.42489" lon="-0.34362">
        <ele>65</ele>
        <time>2013-03-19T15:55:34Z</time>
      </trkpt>
      <trkpt lat="46.42486" lon="-0.34357">
        <ele>65</ele>
        <time>2013-03-19T15:55:39Z</time>
      </trkpt>
      <trkpt lat="46.42481" lon="-0.34351">
        <ele>65</ele>
        <time>2013-03-19T15:55:44Z</time>
      </trkpt>
      <trkpt lat="46.42478" lon="-0.34346">
        <ele>65</ele>
        <time>2013-03-19T15:55:49Z</time>
      </trkpt>
      <trkpt lat="46.42475" lon="-0.3434">
        <ele>65</ele>
        <time>2013-03-19T15:55:54Z</time>
      </trkpt>
      <trkpt lat="46.42468" lon="-0.34333">
        <ele>65</ele>
        <time>2013-03-19T15:55:59Z</time>
      </trkpt>
      <trkpt lat="46.42463" lon="-0.34327">
        <ele>65</ele>
        <time>2013-03-19T15:56:04Z</time>
      </trkpt>
      <trkpt lat="46.4246" lon="-0.34321">
        <ele>65</ele>
        <time>2013-03-19T15:56:09Z</time>
      </trkpt>
      <trkpt lat="46.42459" lon="-0.34316">
        <ele>65</ele>
        <time>2013-03-19T15:56:14Z</time>
      </trkpt>
      <trkpt lat="46.42459" lon="-0.34313">
        <ele>65</ele>
        <time>2013-03-19T15:56:19Z</time>
      </trkpt>
      <trkpt lat="46.42461" lon="-0.34311">
        <ele>65</ele>
        <time>2013-03-19T15:56:24Z</time>
      </trkpt>
      <trkpt lat="46.42461" lon="-0.34312">
        <ele>65</ele>
        <time>2013-03-19T15:56:29Z</time>
      </trkpt>
      <trkpt lat="46.42461" lon="-0.34311">
        <ele>65</ele>
        <time>2013-03-19T15:56:34Z</time>
      </trkpt>
      <trkpt lat="46.42458" lon="-0.34311">
        <ele>67</ele>
        <time>2013-03-19T15:56:44Z</time>
      </trkpt>
      <trkpt lat="46.42457" lon="-0.34311">
        <ele>67</ele>
        <time>2013-03-19T15:56:49Z</time>
      </trkpt>
      <trkpt lat="46.42454" lon="-0.34311">
        <ele>67</ele>
        <time>2013-03-19T15:56:54Z</time>
      </trkpt>
      <trkpt lat="46.42453" lon="-0.34309">
        <ele>67</ele>
        <time>2013-03-19T15:56:59Z</time>
      </trkpt>
      <trkpt lat="46.42453" lon="-0.3431">
        <ele>67</ele>
        <time>2013-03-19T15:57:04Z</time>
      </trkpt>
      <trkpt lat="46.42453" lon="-0.34309">
        <ele>67</ele>
        <time>2013-03-19T15:57:09Z</time>
      </trkpt>
      <trkpt lat="46.42452" lon="-0.34308">
        <ele>67</ele>
        <time>2013-03-19T15:57:14Z</time>
      </trkpt>
      <trkpt lat="46.42452" lon="-0.34308">
        <ele>67</ele>
        <time>2013-03-19T15:57:29Z</time>
      </trkpt>
      <trkpt lat="46.42451" lon="-0.34306">
        <ele>67</ele>
        <time>2013-03-19T15:57:34Z</time>
      </trkpt>
      <trkpt lat="46.42447" lon="-0.34303">
        <ele>67</ele>
        <time>2013-03-19T15:57:39Z</time>
      </trkpt>
      <trkpt lat="46.4244" lon="-0.34298">
        <ele>67</ele>
        <time>2013-03-19T15:57:43Z</time>
      </trkpt>
      <trkpt lat="46.42439" lon="-0.34293">
        <ele>67</ele>
        <time>2013-03-19T15:57:48Z</time>
      </trkpt>
      <trkpt lat="46.42439" lon="-0.34293">
        <ele>67</ele>
        <time>2013-03-19T15:57:53Z</time>
      </trkpt>
      <trkpt lat="46.42439" lon="-0.34292">
        <ele>67</ele>
        <time>2013-03-19T15:57:58Z</time>
      </trkpt>
      <trkpt lat="46.42438" lon="-0.34291">
        <ele>63</ele>
        <time>2013-03-19T15:58:03Z</time>
      </trkpt>
      <trkpt lat="46.42436" lon="-0.3429">
        <ele>63</ele>
        <time>2013-03-19T15:58:08Z</time>
      </trkpt>
      <trkpt lat="46.42435" lon="-0.3429">
        <ele>63</ele>
        <time>2013-03-19T15:58:13Z</time>
      </trkpt>
      <trkpt lat="46.42434" lon="-0.3429">
        <ele>63</ele>
        <time>2013-03-19T15:58:18Z</time>
      </trkpt>
      <trkpt lat="46.42434" lon="-0.34289">
        <ele>63</ele>
        <time>2013-03-19T15:58:23Z</time>
      </trkpt>
      <trkpt lat="46.42433" lon="-0.3429">
        <ele>63</ele>
        <time>2013-03-19T15:58:28Z</time>
      </trkpt>
      <trkpt lat="46.42434" lon="-0.3429">
        <ele>63</ele>
        <time>2013-03-19T15:58:33Z</time>
      </trkpt>
      <trkpt lat="46.4243" lon="-0.3429">
        <ele>63</ele>
        <time>2013-03-19T15:58:43Z</time>
      </trkpt>
      <trkpt lat="46.42427" lon="-0.34289">
        <ele>63</ele>
        <time>2013-03-19T15:58:48Z</time>
      </trkpt>
      <trkpt lat="46.42422" lon="-0.34294">
        <ele>67</ele>
        <time>2013-03-19T15:58:53Z</time>
      </trkpt>
      <trkpt lat="46.42419" lon="-0.34297">
        <ele>67</ele>
        <time>2013-03-19T15:58:58Z</time>
      </trkpt>
      <trkpt lat="46.42415" lon="-0.343">
        <ele>67</ele>
        <time>2013-03-19T15:59:03Z</time>
      </trkpt>
      <trkpt lat="46.4241" lon="-0.34301">
        <ele>67</ele>
        <time>2013-03-19T15:59:08Z</time>
      </trkpt>
      <trkpt lat="46.42405" lon="-0.34303">
        <ele>67</ele>
        <time>2013-03-19T15:59:13Z</time>
      </trkpt>
      <trkpt lat="46.42401" lon="-0.34307">
        <ele>67</ele>
        <time>2013-03-19T15:59:18Z</time>
      </trkpt>
      <trkpt lat="46.42396" lon="-0.34311">
        <ele>67</ele>
        <time>2013-03-19T15:59:23Z</time>
      </trkpt>
      <trkpt lat="46.42393" lon="-0.34315">
        <ele>67</ele>
        <time>2013-03-19T15:59:28Z</time>
      </trkpt>
      <trkpt lat="46.42389" lon="-0.34318">
        <ele>67</ele>
        <time>2013-03-19T15:59:33Z</time>
      </trkpt>
      <trkpt lat="46.42386" lon="-0.34323">
        <ele>67</ele>
        <time>2013-03-19T15:59:38Z</time>
      </trkpt>
      <trkpt lat="46.42381" lon="-0.34326">
        <ele>67</ele>
        <time>2013-03-19T15:59:43Z</time>
      </trkpt>
      <trkpt lat="46.42378" lon="-0.34329">
        <ele>67</ele>
        <time>2013-03-19T15:59:48Z</time>
      </trkpt>
      <trkpt lat="46.42373" lon="-0.34333">
        <ele>81</ele>
        <time>2013-03-19T15:59:53Z</time>
      </trkpt>
      <trkpt lat="46.42369" lon="-0.34338">
        <ele>81</ele>
        <time>2013-03-19T15:59:58Z</time>
      </trkpt>
      <trkpt lat="46.42365" lon="-0.34342">
        <ele>81</ele>
        <time>2013-03-19T16:00:03Z</time>
      </trkpt>
      <trkpt lat="46.42361" lon="-0.34347">
        <ele>81</ele>
        <time>2013-03-19T16:00:08Z</time>
      </trkpt>
      <trkpt lat="46.42357" lon="-0.34352">
        <ele>81</ele>
        <time>2013-03-19T16:00:13Z</time>
      </trkpt>
      <trkpt lat="46.42353" lon="-0.34358">
        <ele>81</ele>
        <time>2013-03-19T16:00:18Z</time>
      </trkpt>
      <trkpt lat="46.42349" lon="-0.3436">
        <ele>81</ele>
        <time>2013-03-19T16:00:23Z</time>
      </trkpt>
      <trkpt lat="46.42345" lon="-0.34362">
        <ele>81</ele>
        <time>2013-03-19T16:00:28Z</time>
      </trkpt>
      <trkpt lat="46.42339" lon="-0.34365">
        <ele>81</ele>
        <time>2013-03-19T16:00:33Z</time>
      </trkpt>
      <trkpt lat="46.42336" lon="-0.34371">
        <ele>81</ele>
        <time>2013-03-19T16:00:38Z</time>
      </trkpt>
      <trkpt lat="46.42332" lon="-0.34375">
        <ele>88</ele>
        <time>2013-03-19T16:00:43Z</time>
      </trkpt>
      <trkpt lat="46.42329" lon="-0.34378">
        <ele>88</ele>
        <time>2013-03-19T16:00:48Z</time>
      </trkpt>
      <trkpt lat="46.42323" lon="-0.34384">
        <ele>88</ele>
        <time>2013-03-19T16:00:53Z</time>
      </trkpt>
      <trkpt lat="46.42319" lon="-0.34386">
        <ele>88</ele>
        <time>2013-03-19T16:00:58Z</time>
      </trkpt>
      <trkpt lat="46.42316" lon="-0.34392">
        <ele>88</ele>
        <time>2013-03-19T16:01:03Z</time>
      </trkpt>
      <trkpt lat="46.42316" lon="-0.344">
        <ele>88</ele>
        <time>2013-03-19T16:01:08Z</time>
      </trkpt>
      <trkpt lat="46.42316" lon="-0.34407">
        <ele>88</ele>
        <time>2013-03-19T16:01:13Z</time>
      </trkpt>
      <trkpt lat="46.42316" lon="-0.34413">
        <ele>88</ele>
        <time>2013-03-19T16:01:18Z</time>
      </trkpt>
      <trkpt lat="46.42316" lon="-0.34421">
        <ele>88</ele>
        <time>2013-03-19T16:01:23Z</time>
      </trkpt>
      <trkpt lat="46.42317" lon="-0.34429">
        <ele>88</ele>
        <time>2013-03-19T16:01:28Z</time>
      </trkpt>
      <trkpt lat="46.42316" lon="-0.34436">
        <ele>88</ele>
        <time>2013-03-19T16:01:33Z</time>
      </trkpt>
      <trkpt lat="46.42315" lon="-0.34444">
        <ele>88</ele>
        <time>2013-03-19T16:01:38Z</time>
      </trkpt>
      <trkpt lat="46.42316" lon="-0.34451">
        <ele>88</ele>
        <time>2013-03-19T16:01:43Z</time>
      </trkpt>
      <trkpt lat="46.42316" lon="-0.34458">
        <ele>88</ele>
        <time>2013-03-19T16:01:48Z</time>
      </trkpt>
      <trkpt lat="46.42318" lon="-0.34464">
        <ele>92</ele>
        <time>2013-03-19T16:01:53Z</time>
      </trkpt>
      <trkpt lat="46.42319" lon="-0.34471">
        <ele>92</ele>
        <time>2013-03-19T16:01:58Z</time>
      </trkpt>
      <trkpt lat="46.4232" lon="-0.34478">
        <ele>92</ele>
        <time>2013-03-19T16:02:03Z</time>
      </trkpt>
      <trkpt lat="46.42322" lon="-0.34484">
        <ele>92</ele>
        <time>2013-03-19T16:02:08Z</time>
      </trkpt>
      <trkpt lat="46.42324" lon="-0.34491">
        <ele>92</ele>
        <time>2013-03-19T16:02:13Z</time>
      </trkpt>
      <trkpt lat="46.42326" lon="-0.34497">
        <ele>92</ele>
        <time>2013-03-19T16:02:18Z</time>
      </trkpt>
      <trkpt lat="46.42329" lon="-0.34503">
        <ele>92</ele>
        <time>2013-03-19T16:02:23Z</time>
      </trkpt>
      <trkpt lat="46.42331" lon="-0.34511">
        <ele>92</ele>
        <time>2013-03-19T16:02:28Z</time>
      </trkpt>
      <trkpt lat="46.42332" lon="-0.34519">
        <ele>92</ele>
        <time>2013-03-19T16:02:33Z</time>
      </trkpt>
      <trkpt lat="46.42334" lon="-0.34525">
        <ele>92</ele>
        <time>2013-03-19T16:02:38Z</time>
      </trkpt>
      <trkpt lat="46.42338" lon="-0.34531">
        <ele>92</ele>
        <time>2013-03-19T16:02:43Z</time>
      </trkpt>
      <trkpt lat="46.4234" lon="-0.34537">
        <ele>92</ele>
        <time>2013-03-19T16:02:48Z</time>
      </trkpt>
      <trkpt lat="46.42343" lon="-0.34547">
        <ele>97</ele>
        <time>2013-03-19T16:02:53Z</time>
      </trkpt>
      <trkpt lat="46.42344" lon="-0.34552">
        <ele>97</ele>
        <time>2013-03-19T16:02:58Z</time>
      </trkpt>
      <trkpt lat="46.42346" lon="-0.3456">
        <ele>97</ele>
        <time>2013-03-19T16:03:03Z</time>
      </trkpt>
      <trkpt lat="46.42349" lon="-0.34566">
        <ele>97</ele>
        <time>2013-03-19T16:03:08Z</time>
      </trkpt>
      <trkpt lat="46.42349" lon="-0.34575">
        <ele>97</ele>
        <time>2013-03-19T16:03:13Z</time>
      </trkpt>
      <trkpt lat="46.4235" lon="-0.34582">
        <ele>97</ele>
        <time>2013-03-19T16:03:18Z</time>
      </trkpt>
      <trkpt lat="46.42351" lon="-0.34587">
        <ele>97</ele>
        <time>2013-03-19T16:03:23Z</time>
      </trkpt>
      <trkpt lat="46.42351" lon="-0.34594">
        <ele>97</ele>
        <time>2013-03-19T16:03:28Z</time>
      </trkpt>
      <trkpt lat="46.42351" lon="-0.346">
        <ele>97</ele>
        <time>2013-03-19T16:03:33Z</time>
      </trkpt>
      <trkpt lat="46.4235" lon="-0.34607">
        <ele>97</ele>
        <time>2013-03-19T16:03:38Z</time>
      </trkpt>
      <trkpt lat="46.42348" lon="-0.34614">
        <ele>97</ele>
        <time>2013-03-19T16:03:43Z</time>
      </trkpt>
      <trkpt lat="46.42346" lon="-0.3462">
        <ele>97</ele>
        <time>2013-03-19T16:03:48Z</time>
      </trkpt>
      <trkpt lat="46.42344" lon="-0.34627">
        <ele>98</ele>
        <time>2013-03-19T16:03:53Z</time>
      </trkpt>
      <trkpt lat="46.42341" lon="-0.34634">
        <ele>98</ele>
        <time>2013-03-19T16:03:58Z</time>
      </trkpt>
      <trkpt lat="46.42338" lon="-0.34641">
        <ele>98</ele>
        <time>2013-03-19T16:04:03Z</time>
      </trkpt>
      <trkpt lat="46.42334" lon="-0.34647">
        <ele>98</ele>
        <time>2013-03-19T16:04:08Z</time>
      </trkpt>
      <trkpt lat="46.42328" lon="-0.34649">
        <ele>98</ele>
        <time>2013-03-19T16:04:13Z</time>
      </trkpt>
      <trkpt lat="46.42325" lon="-0.34653">
        <ele>98</ele>
        <time>2013-03-19T16:04:18Z</time>
      </trkpt>
      <trkpt lat="46.42322" lon="-0.34656">
        <ele>98</ele>
        <time>2013-03-19T16:04:23Z</time>
      </trkpt>
      <trkpt lat="46.4232" lon="-0.34658">
        <ele>98</ele>
        <time>2013-03-19T16:04:28Z</time>
      </trkpt>
      <trkpt lat="46.42315" lon="-0.34663">
        <ele>98</ele>
        <time>2013-03-19T16:04:33Z</time>
      </trkpt>
      <trkpt lat="46.42311" lon="-0.34666">
        <ele>98</ele>
        <time>2013-03-19T16:04:38Z</time>
      </trkpt>
      <trkpt lat="46.42306" lon="-0.34671">
        <ele>98</ele>
        <time>2013-03-19T16:04:43Z</time>
      </trkpt>
      <trkpt lat="46.42302" lon="-0.34675">
        <ele>98</ele>
        <time>2013-03-19T16:04:48Z</time>
      </trkpt>
      <trkpt lat="46.42299" lon="-0.34677">
        <ele>98</ele>
        <time>2013-03-19T16:04:53Z</time>
      </trkpt>
      <trkpt lat="46.42294" lon="-0.34681">
        <ele>98</ele>
        <time>2013-03-19T16:04:58Z</time>
      </trkpt>
      <trkpt lat="46.4229" lon="-0.34686">
        <ele>102</ele>
        <time>2013-03-19T16:05:03Z</time>
      </trkpt>
      <trkpt lat="46.42285" lon="-0.34691">
        <ele>102</ele>
        <time>2013-03-19T16:05:08Z</time>
      </trkpt>
      <trkpt lat="46.42282" lon="-0.34695">
        <ele>102</ele>
        <time>2013-03-19T16:05:13Z</time>
      </trkpt>
      <trkpt lat="46.42277" lon="-0.34698">
        <ele>102</ele>
        <time>2013-03-19T16:05:18Z</time>
      </trkpt>
      <trkpt lat="46.42274" lon="-0.34704">
        <ele>102</ele>
        <time>2013-03-19T16:05:23Z</time>
      </trkpt>
      <trkpt lat="46.4227" lon="-0.34709">
        <ele>104</ele>
        <time>2013-03-19T16:05:28Z</time>
      </trkpt>
      <trkpt lat="46.42267" lon="-0.34713">
        <ele>104</ele>
        <time>2013-03-19T16:05:33Z</time>
      </trkpt>
      <trkpt lat="46.42263" lon="-0.34718">
        <ele>104</ele>
        <time>2013-03-19T16:05:38Z</time>
      </trkpt>
      <trkpt lat="46.42261" lon="-0.34722">
        <ele>104</ele>
        <time>2013-03-19T16:05:43Z</time>
      </trkpt>
      <trkpt lat="46.42257" lon="-0.34727">
        <ele>104</ele>
        <time>2013-03-19T16:05:48Z</time>
      </trkpt>
      <trkpt lat="46.42254" lon="-0.34731">
        <ele>104</ele>
        <time>2013-03-19T16:05:53Z</time>
      </trkpt>
      <trkpt lat="46.4225" lon="-0.34737">
        <ele>104</ele>
        <time>2013-03-19T16:05:58Z</time>
      </trkpt>
      <trkpt lat="46.42246" lon="-0.34746">
        <ele>104</ele>
        <time>2013-03-19T16:06:03Z</time>
      </trkpt>
      <trkpt lat="46.42243" lon="-0.34753">
        <ele>104</ele>
        <time>2013-03-19T16:06:08Z</time>
      </trkpt>
      <trkpt lat="46.4224" lon="-0.34759">
        <ele>104</ele>
        <time>2013-03-19T16:06:13Z</time>
      </trkpt>
      <trkpt lat="46.42238" lon="-0.34765">
        <ele>104</ele>
        <time>2013-03-19T16:06:18Z</time>
      </trkpt>
      <trkpt lat="46.42235" lon="-0.34771">
        <ele>104</ele>
        <time>2013-03-19T16:06:23Z</time>
      </trkpt>
      <trkpt lat="46.42234" lon="-0.34776">
        <ele>104</ele>
        <time>2013-03-19T16:06:28Z</time>
      </trkpt>
      <trkpt lat="46.42232" lon="-0.34784">
        <ele>104</ele>
        <time>2013-03-19T16:06:33Z</time>
      </trkpt>
      <trkpt lat="46.42228" lon="-0.34789">
        <ele>104</ele>
        <time>2013-03-19T16:06:38Z</time>
      </trkpt>
      <trkpt lat="46.42224" lon="-0.34797">
        <ele>104</ele>
        <time>2013-03-19T16:06:43Z</time>
      </trkpt>
      <trkpt lat="46.4222" lon="-0.34804">
        <ele>104</ele>
        <time>2013-03-19T16:06:48Z</time>
      </trkpt>
      <trkpt lat="46.42218" lon="-0.34808">
        <ele>104</ele>
        <time>2013-03-19T16:06:53Z</time>
      </trkpt>
      <trkpt lat="46.42214" lon="-0.34813">
        <ele>104</ele>
        <time>2013-03-19T16:06:58Z</time>
      </trkpt>
      <trkpt lat="46.42211" lon="-0.34819">
        <ele>104</ele>
        <time>2013-03-19T16:07:03Z</time>
      </trkpt>
      <trkpt lat="46.42209" lon="-0.34824">
        <ele>104</ele>
        <time>2013-03-19T16:07:08Z</time>
      </trkpt>
      <trkpt lat="46.42204" lon="-0.34832">
        <ele>111</ele>
        <time>2013-03-19T16:07:13Z</time>
      </trkpt>
      <trkpt lat="46.42202" lon="-0.34837">
        <ele>111</ele>
        <time>2013-03-19T16:07:18Z</time>
      </trkpt>
      <trkpt lat="46.42198" lon="-0.34842">
        <ele>111</ele>
        <time>2013-03-19T16:07:23Z</time>
      </trkpt>
      <trkpt lat="46.42195" lon="-0.34849">
        <ele>111</ele>
        <time>2013-03-19T16:07:28Z</time>
      </trkpt>
      <trkpt lat="46.42192" lon="-0.34854">
        <ele>111</ele>
        <time>2013-03-19T16:07:33Z</time>
      </trkpt>
      <trkpt lat="46.42189" lon="-0.34861">
        <ele>111</ele>
        <time>2013-03-19T16:07:38Z</time>
      </trkpt>
      <trkpt lat="46.42186" lon="-0.34867">
        <ele>111</ele>
        <time>2013-03-19T16:07:43Z</time>
      </trkpt>
      <trkpt lat="46.42184" lon="-0.34873">
        <ele>111</ele>
        <time>2013-03-19T16:07:48Z</time>
      </trkpt>
      <trkpt lat="46.42182" lon="-0.34878">
        <ele>111</ele>
        <time>2013-03-19T16:07:53Z</time>
      </trkpt>
      <trkpt lat="46.42178" lon="-0.34886">
        <ele>111</ele>
        <time>2013-03-19T16:07:58Z</time>
      </trkpt>
      <trkpt lat="46.42175" lon="-0.34896">
        <ele>111</ele>
        <time>2013-03-19T16:08:03Z</time>
      </trkpt>
      <trkpt lat="46.42173" lon="-0.34899">
        <ele>111</ele>
        <time>2013-03-19T16:08:08Z</time>
      </trkpt>
      <trkpt lat="46.42172" lon="-0.34899">
        <ele>111</ele>
        <time>2013-03-19T16:09:18Z</time>
      </trkpt>
      <trkpt lat="46.42169" lon="-0.34899">
        <ele>111</ele>
        <time>2013-03-19T16:09:23Z</time>
      </trkpt>
      <trkpt lat="46.42164" lon="-0.34895">
        <ele>111</ele>
        <time>2013-03-19T16:09:28Z</time>
      </trkpt>
      <trkpt lat="46.42161" lon="-0.3489">
        <ele>111</ele>
        <time>2013-03-19T16:09:33Z</time>
      </trkpt>
      <trkpt lat="46.42155" lon="-0.34887">
        <ele>111</ele>
        <time>2013-03-19T16:09:38Z</time>
      </trkpt>
      <trkpt lat="46.42152" lon="-0.3488">
        <ele>111</ele>
        <time>2013-03-19T16:09:43Z</time>
      </trkpt>
      <trkpt lat="46.42149" lon="-0.34871">
        <ele>111</ele>
        <time>2013-03-19T16:09:48Z</time>
      </trkpt>
      <trkpt lat="46.42145" lon="-0.34865">
        <ele>111</ele>
        <time>2013-03-19T16:09:53Z</time>
      </trkpt>
      <trkpt lat="46.42142" lon="-0.34861">
        <ele>111</ele>
        <time>2013-03-19T16:09:58Z</time>
      </trkpt>
      <trkpt lat="46.42138" lon="-0.34852">
        <ele>111</ele>
        <time>2013-03-19T16:10:03Z</time>
      </trkpt>
      <trkpt lat="46.42136" lon="-0.34847">
        <ele>111</ele>
        <time>2013-03-19T16:10:08Z</time>
      </trkpt>
      <trkpt lat="46.42135" lon="-0.34844">
        <ele>111</ele>
        <time>2013-03-19T16:10:13Z</time>
      </trkpt>
      <trkpt lat="46.42133" lon="-0.34842">
        <ele>111</ele>
        <time>2013-03-19T16:10:18Z</time>
      </trkpt>
      <trkpt lat="46.42128" lon="-0.34832">
        <ele>111</ele>
        <time>2013-03-19T16:10:23Z</time>
      </trkpt>
      <trkpt lat="46.42124" lon="-0.34826">
        <ele>110</ele>
        <time>2013-03-19T16:10:28Z</time>
      </trkpt>
      <trkpt lat="46.4212" lon="-0.3482">
        <ele>110</ele>
        <time>2013-03-19T16:10:33Z</time>
      </trkpt>
      <trkpt lat="46.42116" lon="-0.34815">
        <ele>110</ele>
        <time>2013-03-19T16:10:38Z</time>
      </trkpt>
      <trkpt lat="46.42113" lon="-0.34806">
        <ele>110</ele>
        <time>2013-03-19T16:10:43Z</time>
      </trkpt>
      <trkpt lat="46.4211" lon="-0.34801">
        <ele>110</ele>
        <time>2013-03-19T16:10:48Z</time>
      </trkpt>
      <trkpt lat="46.42107" lon="-0.34799">
        <ele>110</ele>
        <time>2013-03-19T16:10:53Z</time>
      </trkpt>
      <trkpt lat="46.42103" lon="-0.34793">
        <ele>110</ele>
        <time>2013-03-19T16:10:58Z</time>
      </trkpt>
      <trkpt lat="46.42099" lon="-0.34786">
        <ele>110</ele>
        <time>2013-03-19T16:11:03Z</time>
      </trkpt>
      <trkpt lat="46.42093" lon="-0.34779">
        <ele>110</ele>
        <time>2013-03-19T16:11:08Z</time>
      </trkpt>
      <trkpt lat="46.4209" lon="-0.34774">
        <ele>110</ele>
        <time>2013-03-19T16:11:13Z</time>
      </trkpt>
      <trkpt lat="46.42086" lon="-0.34767">
        <ele>110</ele>
        <time>2013-03-19T16:11:18Z</time>
      </trkpt>
      <trkpt lat="46.42082" lon="-0.34762">
        <ele>110</ele>
        <time>2013-03-19T16:11:23Z</time>
      </trkpt>
      <trkpt lat="46.42078" lon="-0.34757">
        <ele>110</ele>
        <time>2013-03-19T16:11:28Z</time>
      </trkpt>
      <trkpt lat="46.42074" lon="-0.34753">
        <ele>110</ele>
        <time>2013-03-19T16:11:33Z</time>
      </trkpt>
      <trkpt lat="46.4207" lon="-0.34749">
        <ele>110</ele>
        <time>2013-03-19T16:11:38Z</time>
      </trkpt>
      <trkpt lat="46.42068" lon="-0.34746">
        <ele>110</ele>
        <time>2013-03-19T16:11:43Z</time>
      </trkpt>
      <trkpt lat="46.42064" lon="-0.34741">
        <ele>110</ele>
        <time>2013-03-19T16:11:48Z</time>
      </trkpt>
      <trkpt lat="46.42061" lon="-0.34735">
        <ele>110</ele>
        <time>2013-03-19T16:11:53Z</time>
      </trkpt>
      <trkpt lat="46.42055" lon="-0.34727">
        <ele>110</ele>
        <time>2013-03-19T16:11:58Z</time>
      </trkpt>
      <trkpt lat="46.4205" lon="-0.34722">
        <ele>110</ele>
        <time>2013-03-19T16:12:03Z</time>
      </trkpt>
      <trkpt lat="46.42047" lon="-0.34717">
        <ele>110</ele>
        <time>2013-03-19T16:12:08Z</time>
      </trkpt>
      <trkpt lat="46.42043" lon="-0.3471">
        <ele>110</ele>
        <time>2013-03-19T16:12:13Z</time>
      </trkpt>
      <trkpt lat="46.42038" lon="-0.34707">
        <ele>112</ele>
        <time>2013-03-19T16:12:18Z</time>
      </trkpt>
      <trkpt lat="46.42033" lon="-0.347">
        <ele>112</ele>
        <time>2013-03-19T16:12:23Z</time>
      </trkpt>
      <trkpt lat="46.42027" lon="-0.34693">
        <ele>112</ele>
        <time>2013-03-19T16:12:28Z</time>
      </trkpt>
      <trkpt lat="46.42023" lon="-0.34687">
        <ele>112</ele>
        <time>2013-03-19T16:12:33Z</time>
      </trkpt>
      <trkpt lat="46.42019" lon="-0.34684">
        <ele>112</ele>
        <time>2013-03-19T16:12:38Z</time>
      </trkpt>
      <trkpt lat="46.42018" lon="-0.34676">
        <ele>112</ele>
        <time>2013-03-19T16:12:43Z</time>
      </trkpt>
      <trkpt lat="46.42013" lon="-0.3467">
        <ele>112</ele>
        <time>2013-03-19T16:12:48Z</time>
      </trkpt>
      <trkpt lat="46.42008" lon="-0.34663">
        <ele>112</ele>
        <time>2013-03-19T16:12:53Z</time>
      </trkpt>
      <trkpt lat="46.42004" lon="-0.34658">
        <ele>112</ele>
        <time>2013-03-19T16:12:58Z</time>
      </trkpt>
      <trkpt lat="46.41999" lon="-0.34652">
        <ele>112</ele>
        <time>2013-03-19T16:13:03Z</time>
      </trkpt>
      <trkpt lat="46.41995" lon="-0.34646">
        <ele>112</ele>
        <time>2013-03-19T16:13:08Z</time>
      </trkpt>
      <trkpt lat="46.4199" lon="-0.3464">
        <ele>112</ele>
        <time>2013-03-19T16:13:13Z</time>
      </trkpt>
      <trkpt lat="46.41986" lon="-0.34635">
        <ele>112</ele>
        <time>2013-03-19T16:13:18Z</time>
      </trkpt>
      <trkpt lat="46.4198" lon="-0.34625">
        <ele>112</ele>
        <time>2013-03-19T16:13:23Z</time>
      </trkpt>
      <trkpt lat="46.41978" lon="-0.34622">
        <ele>112</ele>
        <time>2013-03-19T16:13:28Z</time>
      </trkpt>
      <trkpt lat="46.41975" lon="-0.34618">
        <ele>112</ele>
        <time>2013-03-19T16:13:33Z</time>
      </trkpt>
      <trkpt lat="46.41971" lon="-0.34612">
        <ele>112</ele>
        <time>2013-03-19T16:13:38Z</time>
      </trkpt>
      <trkpt lat="46.41968" lon="-0.34607">
        <ele>112</ele>
        <time>2013-03-19T16:13:43Z</time>
      </trkpt>
      <trkpt lat="46.41966" lon="-0.34603">
        <ele>112</ele>
        <time>2013-03-19T16:13:48Z</time>
      </trkpt>
      <trkpt lat="46.41962" lon="-0.34598">
        <ele>112</ele>
        <time>2013-03-19T16:13:53Z</time>
      </trkpt>
      <trkpt lat="46.4196" lon="-0.34591">
        <ele>112</ele>
        <time>2013-03-19T16:13:58Z</time>
      </trkpt>
      <trkpt lat="46.41957" lon="-0.34584">
        <ele>111</ele>
        <time>2013-03-19T16:14:03Z</time>
      </trkpt>
      <trkpt lat="46.41954" lon="-0.34577">
        <ele>111</ele>
        <time>2013-03-19T16:14:08Z</time>
      </trkpt>
      <trkpt lat="46.41951" lon="-0.34571">
        <ele>111</ele>
        <time>2013-03-19T16:14:13Z</time>
      </trkpt>
      <trkpt lat="46.41948" lon="-0.34565">
        <ele>111</ele>
        <time>2013-03-19T16:14:18Z</time>
      </trkpt>
      <trkpt lat="46.41945" lon="-0.34559">
        <ele>111</ele>
        <time>2013-03-19T16:14:23Z</time>
      </trkpt>
      <trkpt lat="46.41942" lon="-0.34552">
        <ele>111</ele>
        <time>2013-03-19T16:14:28Z</time>
      </trkpt>
      <trkpt lat="46.41938" lon="-0.34546">
        <ele>111</ele>
        <time>2013-03-19T16:14:33Z</time>
      </trkpt>
      <trkpt lat="46.41936" lon="-0.34541">
        <ele>110</ele>
        <time>2013-03-19T16:14:38Z</time>
      </trkpt>
      <trkpt lat="46.41933" lon="-0.34536">
        <ele>110</ele>
        <time>2013-03-19T16:14:43Z</time>
      </trkpt>
      <trkpt lat="46.4193" lon="-0.3453">
        <ele>110</ele>
        <time>2013-03-19T16:14:48Z</time>
      </trkpt>
      <trkpt lat="46.41927" lon="-0.34524">
        <ele>110</ele>
        <time>2013-03-19T16:14:53Z</time>
      </trkpt>
      <trkpt lat="46.41926" lon="-0.34518">
        <ele>110</ele>
        <time>2013-03-19T16:14:58Z</time>
      </trkpt>
      <trkpt lat="46.41919" lon="-0.34511">
        <ele>110</ele>
        <time>2013-03-19T16:15:03Z</time>
      </trkpt>
      <trkpt lat="46.41918" lon="-0.34509">
        <ele>110</ele>
        <time>2013-03-19T16:15:08Z</time>
      </trkpt>
      <trkpt lat="46.41916" lon="-0.34508">
        <ele>110</ele>
        <time>2013-03-19T16:15:13Z</time>
      </trkpt>
      <trkpt lat="46.41909" lon="-0.34499">
        <ele>110</ele>
        <time>2013-03-19T16:15:18Z</time>
      </trkpt>
      <trkpt lat="46.41902" lon="-0.34493">
        <ele>110</ele>
        <time>2013-03-19T16:15:23Z</time>
      </trkpt>
      <trkpt lat="46.41896" lon="-0.34488">
        <ele>110</ele>
        <time>2013-03-19T16:15:28Z</time>
      </trkpt>
      <trkpt lat="46.41892" lon="-0.34485">
        <ele>110</ele>
        <time>2013-03-19T16:15:33Z</time>
      </trkpt>
      <trkpt lat="46.4189" lon="-0.34481">
        <ele>110</ele>
        <time>2013-03-19T16:15:38Z</time>
      </trkpt>
      <trkpt lat="46.41889" lon="-0.3448">
        <ele>110</ele>
        <time>2013-03-19T16:15:43Z</time>
      </trkpt>
      <trkpt lat="46.41888" lon="-0.34481">
        <ele>110</ele>
        <time>2013-03-19T16:15:48Z</time>
      </trkpt>
      <trkpt lat="46.41886" lon="-0.3448">
        <ele>110</ele>
        <time>2013-03-19T16:15:53Z</time>
      </trkpt>
      <trkpt lat="46.41883" lon="-0.34475">
        <ele>110</ele>
        <time>2013-03-19T16:15:58Z</time>
      </trkpt>
      <trkpt lat="46.41883" lon="-0.34467">
        <ele>110</ele>
        <time>2013-03-19T16:16:03Z</time>
      </trkpt>
      <trkpt lat="46.41888" lon="-0.34461">
        <ele>110</ele>
        <time>2013-03-19T16:16:08Z</time>
      </trkpt>
      <trkpt lat="46.41894" lon="-0.34455">
        <ele>108</ele>
        <time>2013-03-19T16:16:13Z</time>
      </trkpt>
      <trkpt lat="46.41898" lon="-0.34448">
        <ele>108</ele>
        <time>2013-03-19T16:16:18Z</time>
      </trkpt>
      <trkpt lat="46.41898" lon="-0.34442">
        <ele>108</ele>
        <time>2013-03-19T16:16:23Z</time>
      </trkpt>
      <trkpt lat="46.41901" lon="-0.34434">
        <ele>108</ele>
        <time>2013-03-19T16:16:28Z</time>
      </trkpt>
      <trkpt lat="46.41903" lon="-0.34426">
        <ele>108</ele>
        <time>2013-03-19T16:16:33Z</time>
      </trkpt>
      <trkpt lat="46.41904" lon="-0.34419">
        <ele>108</ele>
        <time>2013-03-19T16:16:38Z</time>
      </trkpt>
      <trkpt lat="46.41907" lon="-0.34412">
        <ele>108</ele>
        <time>2013-03-19T16:16:43Z</time>
      </trkpt>
      <trkpt lat="46.41908" lon="-0.34405">
        <ele>108</ele>
        <time>2013-03-19T16:16:48Z</time>
      </trkpt>
      <trkpt lat="46.4191" lon="-0.34397">
        <ele>108</ele>
        <time>2013-03-19T16:16:53Z</time>
      </trkpt>
      <trkpt lat="46.41912" lon="-0.34388">
        <ele>108</ele>
        <time>2013-03-19T16:16:58Z</time>
      </trkpt>
      <trkpt lat="46.41915" lon="-0.34379">
        <ele>108</ele>
        <time>2013-03-19T16:17:03Z</time>
      </trkpt>
      <trkpt lat="46.41918" lon="-0.3437">
        <ele>105</ele>
        <time>2013-03-19T16:17:08Z</time>
      </trkpt>
      <trkpt lat="46.41918" lon="-0.34363">
        <ele>105</ele>
        <time>2013-03-19T16:17:13Z</time>
      </trkpt>
      <trkpt lat="46.41917" lon="-0.34355">
        <ele>105</ele>
        <time>2013-03-19T16:17:18Z</time>
      </trkpt>
      <trkpt lat="46.41915" lon="-0.34348">
        <ele>105</ele>
        <time>2013-03-19T16:17:23Z</time>
      </trkpt>
      <trkpt lat="46.41914" lon="-0.34341">
        <ele>105</ele>
        <time>2013-03-19T16:17:28Z</time>
      </trkpt>
      <trkpt lat="46.41914" lon="-0.34334">
        <ele>105</ele>
        <time>2013-03-19T16:17:33Z</time>
      </trkpt>
      <trkpt lat="46.41915" lon="-0.3433">
        <ele>105</ele>
        <time>2013-03-19T16:17:38Z</time>
      </trkpt>
      <trkpt lat="46.41914" lon="-0.34325">
        <ele>105</ele>
        <time>2013-03-19T16:17:43Z</time>
      </trkpt>
      <trkpt lat="46.41912" lon="-0.34318">
        <ele>105</ele>
        <time>2013-03-19T16:17:48Z</time>
      </trkpt>
      <trkpt lat="46.4191" lon="-0.34311">
        <ele>105</ele>
        <time>2013-03-19T16:17:53Z</time>
      </trkpt>
      <trkpt lat="46.4191" lon="-0.34303">
        <ele>105</ele>
        <time>2013-03-19T16:17:58Z</time>
      </trkpt>
      <trkpt lat="46.41908" lon="-0.34294">
        <ele>105</ele>
        <time>2013-03-19T16:18:03Z</time>
      </trkpt>
      <trkpt lat="46.41907" lon="-0.34287">
        <ele>100</ele>
        <time>2013-03-19T16:18:09Z</time>
      </trkpt>
      <trkpt lat="46.41905" lon="-0.34279">
        <ele>100</ele>
        <time>2013-03-19T16:18:13Z</time>
      </trkpt>
      <trkpt lat="46.41904" lon="-0.34271">
        <ele>100</ele>
        <time>2013-03-19T16:18:18Z</time>
      </trkpt>
      <trkpt lat="46.41903" lon="-0.34266">
        <ele>100</ele>
        <time>2013-03-19T16:18:23Z</time>
      </trkpt>
      <trkpt lat="46.41901" lon="-0.34261">
        <ele>100</ele>
        <time>2013-03-19T16:18:28Z</time>
      </trkpt>
      <trkpt lat="46.41901" lon="-0.34261">
        <ele>100</ele>
        <time>2013-03-19T16:18:38Z</time>
      </trkpt>
      <trkpt lat="46.41901" lon="-0.34261">
        <ele>100</ele>
        <time>2013-03-19T16:18:43Z</time>
      </trkpt>
      <trkpt lat="46.41896" lon="-0.34262">
        <ele>100</ele>
        <time>2013-03-19T16:19:03Z</time>
      </trkpt>
      <trkpt lat="46.4189" lon="-0.34264">
        <ele>100</ele>
        <time>2013-03-19T16:19:08Z</time>
      </trkpt>
      <trkpt lat="46.41886" lon="-0.34268">
        <ele>100</ele>
        <time>2013-03-19T16:19:13Z</time>
      </trkpt>
      <trkpt lat="46.41881" lon="-0.34272">
        <ele>100</ele>
        <time>2013-03-19T16:19:18Z</time>
      </trkpt>
      <trkpt lat="46.41875" lon="-0.34274">
        <ele>100</ele>
        <time>2013-03-19T16:19:23Z</time>
      </trkpt>
      <trkpt lat="46.41871" lon="-0.34278">
        <ele>100</ele>
        <time>2013-03-19T16:19:28Z</time>
      </trkpt>
      <trkpt lat="46.41865" lon="-0.3428">
        <ele>100</ele>
        <time>2013-03-19T16:19:33Z</time>
      </trkpt>
      <trkpt lat="46.41858" lon="-0.34285">
        <ele>100</ele>
        <time>2013-03-19T16:19:38Z</time>
      </trkpt>
      <trkpt lat="46.41853" lon="-0.34288">
        <ele>100</ele>
        <time>2013-03-19T16:19:43Z</time>
      </trkpt>
      <trkpt lat="46.41848" lon="-0.3429">
        <ele>100</ele>
        <time>2013-03-19T16:19:48Z</time>
      </trkpt>
      <trkpt lat="46.41842" lon="-0.34293">
        <ele>104</ele>
        <time>2013-03-19T16:19:53Z</time>
      </trkpt>
      <trkpt lat="46.41838" lon="-0.34295">
        <ele>104</ele>
        <time>2013-03-19T16:19:58Z</time>
      </trkpt>
      <trkpt lat="46.41831" lon="-0.34298">
        <ele>104</ele>
        <time>2013-03-19T16:20:03Z</time>
      </trkpt>
      <trkpt lat="46.41826" lon="-0.34302">
        <ele>104</ele>
        <time>2013-03-19T16:20:08Z</time>
      </trkpt>
      <trkpt lat="46.41821" lon="-0.34305">
        <ele>104</ele>
        <time>2013-03-19T16:20:13Z</time>
      </trkpt>
      <trkpt lat="46.41818" lon="-0.34309">
        <ele>104</ele>
        <time>2013-03-19T16:20:18Z</time>
      </trkpt>
      <trkpt lat="46.41813" lon="-0.34312">
        <ele>104</ele>
        <time>2013-03-19T16:20:23Z</time>
      </trkpt>
      <trkpt lat="46.41808" lon="-0.34315">
        <ele>104</ele>
        <time>2013-03-19T16:20:28Z</time>
      </trkpt>
      <trkpt lat="46.41802" lon="-0.34318">
        <ele>104</ele>
        <time>2013-03-19T16:20:33Z</time>
      </trkpt>
      <trkpt lat="46.41798" lon="-0.34322">
        <ele>104</ele>
        <time>2013-03-19T16:20:38Z</time>
      </trkpt>
      <trkpt lat="46.41793" lon="-0.34326">
        <ele>104</ele>
        <time>2013-03-19T16:20:43Z</time>
      </trkpt>
      <trkpt lat="46.41788" lon="-0.3433">
        <ele>104</ele>
        <time>2013-03-19T16:20:48Z</time>
      </trkpt>
      <trkpt lat="46.41783" lon="-0.34333">
        <ele>104</ele>
        <time>2013-03-19T16:20:53Z</time>
      </trkpt>
      <trkpt lat="46.41778" lon="-0.34337">
        <ele>104</ele>
        <time>2013-03-19T16:20:58Z</time>
      </trkpt>
      <trkpt lat="46.41773" lon="-0.34341">
        <ele>104</ele>
        <time>2013-03-19T16:21:03Z</time>
      </trkpt>
      <trkpt lat="46.41768" lon="-0.34344">
        <ele>104</ele>
        <time>2013-03-19T16:21:08Z</time>
      </trkpt>
      <trkpt lat="46.41761" lon="-0.34349">
        <ele>104</ele>
        <time>2013-03-19T16:21:13Z</time>
      </trkpt>
      <trkpt lat="46.41759" lon="-0.34353">
        <ele>104</ele>
        <time>2013-03-19T16:21:18Z</time>
      </trkpt>
      <trkpt lat="46.41754" lon="-0.34358">
        <ele>104</ele>
        <time>2013-03-19T16:21:23Z</time>
      </trkpt>
      <trkpt lat="46.4175" lon="-0.34362">
        <ele>104</ele>
        <time>2013-03-19T16:21:28Z</time>
      </trkpt>
      <trkpt lat="46.41746" lon="-0.34366">
        <ele>104</ele>
        <time>2013-03-19T16:21:33Z</time>
      </trkpt>
      <trkpt lat="46.41741" lon="-0.34371">
        <ele>104</ele>
        <time>2013-03-19T16:21:38Z</time>
      </trkpt>
      <trkpt lat="46.41735" lon="-0.34377">
        <ele>107</ele>
        <time>2013-03-19T16:21:43Z</time>
      </trkpt>
      <trkpt lat="46.41731" lon="-0.34381">
        <ele>107</ele>
        <time>2013-03-19T16:21:48Z</time>
      </trkpt>
      <trkpt lat="46.41727" lon="-0.34386">
        <ele>107</ele>
        <time>2013-03-19T16:21:53Z</time>
      </trkpt>
      <trkpt lat="46.41721" lon="-0.34393">
        <ele>107</ele>
        <time>2013-03-19T16:21:58Z</time>
      </trkpt>
      <trkpt lat="46.41716" lon="-0.34396">
        <ele>107</ele>
        <time>2013-03-19T16:22:03Z</time>
      </trkpt>
      <trkpt lat="46.4171" lon="-0.344">
        <ele>107</ele>
        <time>2013-03-19T16:22:08Z</time>
      </trkpt>
      <trkpt lat="46.41706" lon="-0.34405">
        <ele>107</ele>
        <time>2013-03-19T16:22:13Z</time>
      </trkpt>
      <trkpt lat="46.41701" lon="-0.34409">
        <ele>107</ele>
        <time>2013-03-19T16:22:18Z</time>
      </trkpt>
      <trkpt lat="46.41696" lon="-0.34413">
        <ele>107</ele>
        <time>2013-03-19T16:22:23Z</time>
      </trkpt>
      <trkpt lat="46.41691" lon="-0.34417">
        <ele>107</ele>
        <time>2013-03-19T16:22:28Z</time>
      </trkpt>
      <trkpt lat="46.41687" lon="-0.34422">
        <ele>107</ele>
        <time>2013-03-19T16:22:33Z</time>
      </trkpt>
      <trkpt lat="46.41683" lon="-0.34428">
        <ele>107</ele>
        <time>2013-03-19T16:22:38Z</time>
      </trkpt>
      <trkpt lat="46.4168" lon="-0.34434">
        <ele>107</ele>
        <time>2013-03-19T16:22:43Z</time>
      </trkpt>
      <trkpt lat="46.41674" lon="-0.3444">
        <ele>107</ele>
        <time>2013-03-19T16:22:48Z</time>
      </trkpt>
      <trkpt lat="46.41669" lon="-0.34443">
        <ele>107</ele>
        <time>2013-03-19T16:22:53Z</time>
      </trkpt>
      <trkpt lat="46.41664" lon="-0.34448">
        <ele>107</ele>
        <time>2013-03-19T16:22:58Z</time>
      </trkpt>
      <trkpt lat="46.41659" lon="-0.34453">
        <ele>107</ele>
        <time>2013-03-19T16:23:03Z</time>
      </trkpt>
      <trkpt lat="46.41654" lon="-0.34457">
        <ele>107</ele>
        <time>2013-03-19T16:23:08Z</time>
      </trkpt>
      <trkpt lat="46.4165" lon="-0.34462">
        <ele>106</ele>
        <time>2013-03-19T16:23:13Z</time>
      </trkpt>
      <trkpt lat="46.41645" lon="-0.34468">
        <ele>106</ele>
        <time>2013-03-19T16:23:18Z</time>
      </trkpt>
      <trkpt lat="46.41639" lon="-0.34473">
        <ele>106</ele>
        <time>2013-03-19T16:23:23Z</time>
      </trkpt>
      <trkpt lat="46.41635" lon="-0.34478">
        <ele>106</ele>
        <time>2013-03-19T16:23:28Z</time>
      </trkpt>
      <trkpt lat="46.4163" lon="-0.34482">
        <ele>106</ele>
        <time>2013-03-19T16:23:33Z</time>
      </trkpt>
      <trkpt lat="46.41625" lon="-0.34487">
        <ele>106</ele>
        <time>2013-03-19T16:23:38Z</time>
      </trkpt>
      <trkpt lat="46.4162" lon="-0.34492">
        <ele>106</ele>
        <time>2013-03-19T16:23:43Z</time>
      </trkpt>
      <trkpt lat="46.41615" lon="-0.34497">
        <ele>106</ele>
        <time>2013-03-19T16:23:48Z</time>
      </trkpt>
      <trkpt lat="46.4161" lon="-0.34503">
        <ele>106</ele>
        <time>2013-03-19T16:23:53Z</time>
      </trkpt>
      <trkpt lat="46.41606" lon="-0.34506">
        <ele>106</ele>
        <time>2013-03-19T16:23:58Z</time>
      </trkpt>
      <trkpt lat="46.41601" lon="-0.3451">
        <ele>106</ele>
        <time>2013-03-19T16:24:03Z</time>
      </trkpt>
      <trkpt lat="46.41596" lon="-0.34513">
        <ele>106</ele>
        <time>2013-03-19T16:24:08Z</time>
      </trkpt>
      <trkpt lat="46.41594" lon="-0.34513">
        <ele>106</ele>
        <time>2013-03-19T16:24:13Z</time>
      </trkpt>
      <trkpt lat="46.41588" lon="-0.34515">
        <ele>106</ele>
        <time>2013-03-19T16:24:18Z</time>
      </trkpt>
      <trkpt lat="46.41584" lon="-0.3452">
        <ele>106</ele>
        <time>2013-03-19T16:24:23Z</time>
      </trkpt>
      <trkpt lat="46.4158" lon="-0.34523">
        <ele>106</ele>
        <time>2013-03-19T16:24:28Z</time>
      </trkpt>
      <trkpt lat="46.41576" lon="-0.34524">
        <ele>106</ele>
        <time>2013-03-19T16:24:33Z</time>
      </trkpt>
      <trkpt lat="46.41573" lon="-0.3453">
        <ele>106</ele>
        <time>2013-03-19T16:24:38Z</time>
      </trkpt>
      <trkpt lat="46.41571" lon="-0.34535">
        <ele>106</ele>
        <time>2013-03-19T16:24:43Z</time>
      </trkpt>
      <trkpt lat="46.41567" lon="-0.34539">
        <ele>106</ele>
        <time>2013-03-19T16:24:48Z</time>
      </trkpt>
      <trkpt lat="46.41563" lon="-0.34544">
        <ele>103</ele>
        <time>2013-03-19T16:24:53Z</time>
      </trkpt>
      <trkpt lat="46.41559" lon="-0.3455">
        <ele>103</ele>
        <time>2013-03-19T16:24:58Z</time>
      </trkpt>
      <trkpt lat="46.41555" lon="-0.34553">
        <ele>103</ele>
        <time>2013-03-19T16:25:03Z</time>
      </trkpt>
      <trkpt lat="46.4155" lon="-0.34555">
        <ele>103</ele>
        <time>2013-03-19T16:25:08Z</time>
      </trkpt>
      <trkpt lat="46.41545" lon="-0.34557">
        <ele>103</ele>
        <time>2013-03-19T16:25:13Z</time>
      </trkpt>
      <trkpt lat="46.4154" lon="-0.34559">
        <ele>106</ele>
        <time>2013-03-19T16:25:18Z</time>
      </trkpt>
      <trkpt lat="46.41534" lon="-0.34561">
        <ele>106</ele>
        <time>2013-03-19T16:25:23Z</time>
      </trkpt>
      <trkpt lat="46.41528" lon="-0.34563">
        <ele>106</ele>
        <time>2013-03-19T16:25:28Z</time>
      </trkpt>
      <trkpt lat="46.41524" lon="-0.34565">
        <ele>106</ele>
        <time>2013-03-19T16:25:33Z</time>
      </trkpt>
      <trkpt lat="46.41518" lon="-0.34567">
        <ele>106</ele>
        <time>2013-03-19T16:25:38Z</time>
      </trkpt>
      <trkpt lat="46.41514" lon="-0.34569">
        <ele>106</ele>
        <time>2013-03-19T16:25:43Z</time>
      </trkpt>
      <trkpt lat="46.4151" lon="-0.34574">
        <ele>106</ele>
        <time>2013-03-19T16:25:48Z</time>
      </trkpt>
      <trkpt lat="46.41506" lon="-0.34578">
        <ele>106</ele>
        <time>2013-03-19T16:25:53Z</time>
      </trkpt>
      <trkpt lat="46.41502" lon="-0.34581">
        <ele>106</ele>
        <time>2013-03-19T16:25:58Z</time>
      </trkpt>
      <trkpt lat="46.41497" lon="-0.34587">
        <ele>106</ele>
        <time>2013-03-19T16:26:03Z</time>
      </trkpt>
      <trkpt lat="46.41492" lon="-0.34594">
        <ele>106</ele>
        <time>2013-03-19T16:26:08Z</time>
      </trkpt>
      <trkpt lat="46.41488" lon="-0.34599">
        <ele>106</ele>
        <time>2013-03-19T16:26:13Z</time>
      </trkpt>
      <trkpt lat="46.41485" lon="-0.34602">
        <ele>106</ele>
        <time>2013-03-19T16:26:18Z</time>
      </trkpt>
      <trkpt lat="46.4148" lon="-0.34605">
        <ele>106</ele>
        <time>2013-03-19T16:26:23Z</time>
      </trkpt>
      <trkpt lat="46.41475" lon="-0.34609">
        <ele>106</ele>
        <time>2013-03-19T16:26:28Z</time>
      </trkpt>
      <trkpt lat="46.41472" lon="-0.34611">
        <ele>106</ele>
        <time>2013-03-19T16:26:33Z</time>
      </trkpt>
      <trkpt lat="46.41468" lon="-0.34616">
        <ele>106</ele>
        <time>2013-03-19T16:26:38Z</time>
      </trkpt>
      <trkpt lat="46.41463" lon="-0.34622">
        <ele>106</ele>
        <time>2013-03-19T16:26:43Z</time>
      </trkpt>
      <trkpt lat="46.41458" lon="-0.34622">
        <ele>104</ele>
        <time>2013-03-19T16:26:48Z</time>
      </trkpt>
      <trkpt lat="46.41454" lon="-0.34627">
        <ele>104</ele>
        <time>2013-03-19T16:26:53Z</time>
      </trkpt>
      <trkpt lat="46.4145" lon="-0.34632">
        <ele>104</ele>
        <time>2013-03-19T16:26:58Z</time>
      </trkpt>
      <trkpt lat="46.41445" lon="-0.34635">
        <ele>104</ele>
        <time>2013-03-19T16:27:03Z</time>
      </trkpt>
      <trkpt lat="46.41439" lon="-0.3464">
        <ele>104</ele>
        <time>2013-03-19T16:27:08Z</time>
      </trkpt>
      <trkpt lat="46.41435" lon="-0.34647">
        <ele>104</ele>
        <time>2013-03-19T16:27:13Z</time>
      </trkpt>
      <trkpt lat="46.41432" lon="-0.34651">
        <ele>104</ele>
        <time>2013-03-19T16:27:18Z</time>
      </trkpt>
      <trkpt lat="46.41427" lon="-0.34656">
        <ele>104</ele>
        <time>2013-03-19T16:27:23Z</time>
      </trkpt>
      <trkpt lat="46.41423" lon="-0.34662">
        <ele>104</ele>
        <time>2013-03-19T16:27:28Z</time>
      </trkpt>
      <trkpt lat="46.41419" lon="-0.34669">
        <ele>104</ele>
        <time>2013-03-19T16:27:33Z</time>
      </trkpt>
      <trkpt lat="46.41416" lon="-0.34676">
        <ele>104</ele>
        <time>2013-03-19T16:27:38Z</time>
      </trkpt>
      <trkpt lat="46.41412" lon="-0.34683">
        <ele>104</ele>
        <time>2013-03-19T16:27:43Z</time>
      </trkpt>
      <trkpt lat="46.41409" lon="-0.34687">
        <ele>104</ele>
        <time>2013-03-19T16:27:48Z</time>
      </trkpt>
      <trkpt lat="46.41406" lon="-0.34697">
        <ele>104</ele>
        <time>2013-03-19T16:27:53Z</time>
      </trkpt>
      <trkpt lat="46.41402" lon="-0.34701">
        <ele>104</ele>
        <time>2013-03-19T16:27:58Z</time>
      </trkpt>
      <trkpt lat="46.414" lon="-0.34709">
        <ele>103</ele>
        <time>2013-03-19T16:28:03Z</time>
      </trkpt>
      <trkpt lat="46.41399" lon="-0.34716">
        <ele>103</ele>
        <time>2013-03-19T16:28:08Z</time>
      </trkpt>
      <trkpt lat="46.41399" lon="-0.3472">
        <ele>103</ele>
        <time>2013-03-19T16:28:13Z</time>
      </trkpt>
      <trkpt lat="46.41399" lon="-0.34722">
        <ele>103</ele>
        <time>2013-03-19T16:28:19Z</time>
      </trkpt>
      <trkpt lat="46.41401" lon="-0.34722">
        <ele>103</ele>
        <time>2013-03-19T16:28:23Z</time>
      </trkpt>
      <trkpt lat="46.41402" lon="-0.34723">
        <ele>103</ele>
        <time>2013-03-19T16:28:28Z</time>
      </trkpt>
      <trkpt lat="46.41405" lon="-0.34725">
        <ele>103</ele>
        <time>2013-03-19T16:28:33Z</time>
      </trkpt>
      <trkpt lat="46.41404" lon="-0.34724">
        <ele>103</ele>
        <time>2013-03-19T16:28:38Z</time>
      </trkpt>
      <trkpt lat="46.41405" lon="-0.34725">
        <ele>103</ele>
        <time>2013-03-19T16:28:43Z</time>
      </trkpt>
      <trkpt lat="46.41409" lon="-0.3473">
        <ele>103</ele>
        <time>2013-03-19T16:28:48Z</time>
      </trkpt>
      <trkpt lat="46.41412" lon="-0.34735">
        <ele>103</ele>
        <time>2013-03-19T16:28:53Z</time>
      </trkpt>
      <trkpt lat="46.41417" lon="-0.34739">
        <ele>103</ele>
        <time>2013-03-19T16:28:58Z</time>
      </trkpt>
      <trkpt lat="46.41421" lon="-0.34743">
        <ele>103</ele>
        <time>2013-03-19T16:29:03Z</time>
      </trkpt>
      <trkpt lat="46.41426" lon="-0.34747">
        <ele>103</ele>
        <time>2013-03-19T16:29:08Z</time>
      </trkpt>
      <trkpt lat="46.41431" lon="-0.34751">
        <ele>103</ele>
        <time>2013-03-19T16:29:13Z</time>
      </trkpt>
      <trkpt lat="46.41434" lon="-0.34753">
        <ele>103</ele>
        <time>2013-03-19T16:29:18Z</time>
      </trkpt>
      <trkpt lat="46.41439" lon="-0.34756">
        <ele>103</ele>
        <time>2013-03-19T16:29:23Z</time>
      </trkpt>
      <trkpt lat="46.41445" lon="-0.34758">
        <ele>103</ele>
        <time>2013-03-19T16:29:28Z</time>
      </trkpt>
      <trkpt lat="46.4145" lon="-0.34762">
        <ele>103</ele>
        <time>2013-03-19T16:29:33Z</time>
      </trkpt>
      <trkpt lat="46.41455" lon="-0.34765">
        <ele>103</ele>
        <time>2013-03-19T16:29:38Z</time>
      </trkpt>
      <trkpt lat="46.41459" lon="-0.34768">
        <ele>100</ele>
        <time>2013-03-19T16:29:43Z</time>
      </trkpt>
      <trkpt lat="46.41463" lon="-0.34769">
        <ele>100</ele>
        <time>2013-03-19T16:29:48Z</time>
      </trkpt>
      <trkpt lat="46.41467" lon="-0.34773">
        <ele>100</ele>
        <time>2013-03-19T16:29:53Z</time>
      </trkpt>
      <trkpt lat="46.41471" lon="-0.34781">
        <ele>100</ele>
        <time>2013-03-19T16:29:58Z</time>
      </trkpt>
      <trkpt lat="46.41475" lon="-0.34787">
        <ele>100</ele>
        <time>2013-03-19T16:30:03Z</time>
      </trkpt>
      <trkpt lat="46.41481" lon="-0.34791">
        <ele>100</ele>
        <time>2013-03-19T16:30:08Z</time>
      </trkpt>
      <trkpt lat="46.41484" lon="-0.34795">
        <ele>96</ele>
        <time>2013-03-19T16:30:13Z</time>
      </trkpt>
      <trkpt lat="46.41488" lon="-0.348">
        <ele>96</ele>
        <time>2013-03-19T16:30:18Z</time>
      </trkpt>
      <trkpt lat="46.41492" lon="-0.34801">
        <ele>96</ele>
        <time>2013-03-19T16:30:23Z</time>
      </trkpt>
      <trkpt lat="46.41496" lon="-0.34806">
        <ele>96</ele>
        <time>2013-03-19T16:30:28Z</time>
      </trkpt>
      <trkpt lat="46.41498" lon="-0.34817">
        <ele>96</ele>
        <time>2013-03-19T16:30:33Z</time>
      </trkpt>
      <trkpt lat="46.415" lon="-0.34823">
        <ele>96</ele>
        <time>2013-03-19T16:30:38Z</time>
      </trkpt>
      <trkpt lat="46.41505" lon="-0.34827">
        <ele>96</ele>
        <time>2013-03-19T16:30:43Z</time>
      </trkpt>
      <trkpt lat="46.41509" lon="-0.3483">
        <ele>96</ele>
        <time>2013-03-19T16:30:48Z</time>
      </trkpt>
      <trkpt lat="46.41512" lon="-0.34835">
        <ele>96</ele>
        <time>2013-03-19T16:30:53Z</time>
      </trkpt>
      <trkpt lat="46.41517" lon="-0.34841">
        <ele>96</ele>
        <time>2013-03-19T16:30:58Z</time>
      </trkpt>
      <trkpt lat="46.4152" lon="-0.34847">
        <ele>96</ele>
        <time>2013-03-19T16:31:03Z</time>
      </trkpt>
      <trkpt lat="46.41524" lon="-0.34852">
        <ele>96</ele>
        <time>2013-03-19T16:31:08Z</time>
      </trkpt>
      <trkpt lat="46.41527" lon="-0.34857">
        <ele>96</ele>
        <time>2013-03-19T16:31:13Z</time>
      </trkpt>
      <trkpt lat="46.41532" lon="-0.34865">
        <ele>96</ele>
        <time>2013-03-19T16:31:18Z</time>
      </trkpt>
      <trkpt lat="46.41536" lon="-0.34872">
        <ele>96</ele>
        <time>2013-03-19T16:31:24Z</time>
      </trkpt>
      <trkpt lat="46.41539" lon="-0.34879">
        <ele>94</ele>
        <time>2013-03-19T16:31:28Z</time>
      </trkpt>
      <trkpt lat="46.41541" lon="-0.34886">
        <ele>94</ele>
        <time>2013-03-19T16:31:33Z</time>
      </trkpt>
      <trkpt lat="46.41542" lon="-0.34893">
        <ele>96</ele>
        <time>2013-03-19T16:31:38Z</time>
      </trkpt>
      <trkpt lat="46.41543" lon="-0.34901">
        <ele>96</ele>
        <time>2013-03-19T16:31:43Z</time>
      </trkpt>
      <trkpt lat="46.41544" lon="-0.3491">
        <ele>96</ele>
        <time>2013-03-19T16:31:48Z</time>
      </trkpt>
      <trkpt lat="46.41546" lon="-0.34918">
        <ele>96</ele>
        <time>2013-03-19T16:31:53Z</time>
      </trkpt>
      <trkpt lat="46.41547" lon="-0.34926">
        <ele>96</ele>
        <time>2013-03-19T16:31:58Z</time>
      </trkpt>
      <trkpt lat="46.41548" lon="-0.34935">
        <ele>96</ele>
        <time>2013-03-19T16:32:03Z</time>
      </trkpt>
      <trkpt lat="46.4155" lon="-0.34943">
        <ele>96</ele>
        <time>2013-03-19T16:32:08Z</time>
      </trkpt>
      <trkpt lat="46.41551" lon="-0.34951">
        <ele>96</ele>
        <time>2013-03-19T16:32:13Z</time>
      </trkpt>
      <trkpt lat="46.41553" lon="-0.34958">
        <ele>96</ele>
        <time>2013-03-19T16:32:18Z</time>
      </trkpt>
      <trkpt lat="46.41555" lon="-0.34966">
        <ele>95</ele>
        <time>2013-03-19T16:32:23Z</time>
      </trkpt>
      <trkpt lat="46.41555" lon="-0.34975">
        <ele>95</ele>
        <time>2013-03-19T16:32:28Z</time>
      </trkpt>
      <trkpt lat="46.41556" lon="-0.34983">
        <ele>95</ele>
        <time>2013-03-19T16:32:33Z</time>
      </trkpt>
      <trkpt lat="46.41557" lon="-0.34989">
        <ele>95</ele>
        <time>2013-03-19T16:32:38Z</time>
      </trkpt>
      <trkpt lat="46.4156" lon="-0.34997">
        <ele>95</ele>
        <time>2013-03-19T16:32:43Z</time>
      </trkpt>
      <trkpt lat="46.4156" lon="-0.35006">
        <ele>95</ele>
        <time>2013-03-19T16:32:48Z</time>
      </trkpt>
      <trkpt lat="46.41561" lon="-0.35014">
        <ele>95</ele>
        <time>2013-03-19T16:32:53Z</time>
      </trkpt>
      <trkpt lat="46.41562" lon="-0.35022">
        <ele>95</ele>
        <time>2013-03-19T16:32:58Z</time>
      </trkpt>
      <trkpt lat="46.41562" lon="-0.35033">
        <ele>95</ele>
        <time>2013-03-19T16:33:03Z</time>
      </trkpt>
      <trkpt lat="46.41564" lon="-0.3504">
        <ele>95</ele>
        <time>2013-03-19T16:33:08Z</time>
      </trkpt>
      <trkpt lat="46.41565" lon="-0.35047">
        <ele>93</ele>
        <time>2013-03-19T16:33:13Z</time>
      </trkpt>
      <trkpt lat="46.41566" lon="-0.35054">
        <ele>93</ele>
        <time>2013-03-19T16:33:18Z</time>
      </trkpt>
      <trkpt lat="46.41567" lon="-0.3506">
        <ele>93</ele>
        <time>2013-03-19T16:33:23Z</time>
      </trkpt>
      <trkpt lat="46.4157" lon="-0.35066">
        <ele>93</ele>
        <time>2013-03-19T16:33:28Z</time>
      </trkpt>
      <trkpt lat="46.41571" lon="-0.35074">
        <ele>93</ele>
        <time>2013-03-19T16:33:33Z</time>
      </trkpt>
      <trkpt lat="46.41573" lon="-0.35083">
        <ele>93</ele>
        <time>2013-03-19T16:33:38Z</time>
      </trkpt>
      <trkpt lat="46.41573" lon="-0.35091">
        <ele>93</ele>
        <time>2013-03-19T16:33:43Z</time>
      </trkpt>
      <trkpt lat="46.41576" lon="-0.35095">
        <ele>93</ele>
        <time>2013-03-19T16:33:49Z</time>
      </trkpt>
      <trkpt lat="46.41579" lon="-0.35093">
        <ele>93</ele>
        <time>2013-03-19T16:33:53Z</time>
      </trkpt>
      <trkpt lat="46.41583" lon="-0.35097">
        <ele>93</ele>
        <time>2013-03-19T16:33:58Z</time>
      </trkpt>
    </trkseg>
  </trk>
</gpx>